[[{"header":{"parameterUnit":"m.s-1","parameterCategory":1,"la1":31.0,"la2":29.5877,"lo1":-88.7671,"lo2":-86.6584,"dx":0.0162,"dy":0.0185,"nx":115,"ny":88,"refTime":"2023-02-09T06:00:00:Z","depth":0,"parameterNumber":2,"parameterNumberName":"U-component_of_WINDS"},"data":[0.0,0.0,0.0,0.0,0.0,0.0,0.0,0.0,0.0,0.0,0.0,0.0,0.0,0.0,0.0,0.0,0.0,0.0,0.0,0.0,0.0,0.0,0.0,0.0,0.0,0.0,0.0,0.0,0.0,0.0,0.0,0.0,0.0,0.0,0.0,0.0,0.0,0.0,0.0,0.0,0.0,0.0,0.0,0.0,0.0,0.0,0.0,0.0,0.0,0.0,0.0,0.0,0.0,0.0,0.0,0.0,0.0,0.0,0.0,0.0,0.0,0.0,0.0,0.0,0.0,0.0,0.0,0.0,0.0,0.0,0.0,0.0,0.0,0.0,0.0,0.0,0.0,0.0,0.0,0.0,0.0,0.0,0.0,0.0,0.0,0.0,0.0,0.0,0.0,0.0,0.0,0.0,0.0,0.0,0.0,0.0,0.0,0.0,0.0,0.0,0.0,0.0,0.0,0.0,0.0,0.0,0.0,0.0,0.0,0.0,0.0,0.0,0.0,0.0,0.0,0.0,0.0,0.0,0.0,0.0,0.0,0.0,0.0,0.0,0.0,0.0,0.0,0.0,0.0,0.0,0.0,0.0,0.0,0.0,0.0,0.0,0.0,0.0,0.0,0.0,0.0,0.0,0.0,0.0,0.0,0.0,0.0,0.0,0.0,0.0,0.0,0.0,0.0,0.0,0.0,0.0,0.0,0.0,0.0,0.0,0.0,0.0,0.0,0.0,0.0,0.0,0.0,0.0,0.0,0.0,0.0,0.0,0.0,0.0,0.0,0.0,0.0,0.0,0.0,0.0,0.0,0.0,0.0,0.0,0.0,0.0,0.0,0.0,0.0,0.0,0.0,0.0,0.0,0.0,0.0,0.0,0.0,0.0,0.0,0.0,0.0,0.0,0.0,0.0,0.0,0.0,0.0,0.0,0.0,0.0,0.0,0.0,0.0,0.0,0.0,0.0,0.0,0.0,0.0,0.0,0.0,0.0,0.0,0.0,0.0,0.0,0.0,0.0,0.0,0.0,0.0,0.0,0.0,0.0,0.0,0.0,0.0,0.0,0.0,0.0,0.0,0.0,0.0,0.0,0.0,0.0,0.0,0.0,0.0,0.0,0.0,0.0,0.0,0.0,0.0,0.0,0.0,0.0,0.0,0.0,0.0,0.0,0.0,0.0,0.0,0.0,0.0,0.0,0.0,0.0,0.0,0.0,0.0,0.0,0.0,0.0,0.0,0.0,0.0,0.0,0.0,0.0,0.0,0.0,0.0,0.0,0.0,0.0,0.0,0.0,0.0,0.0,0.0,0.0,0.0,0.0,0.0,0.0,0.0,0.0,0.0,0.0,0.0,0.0,0.0,0.0,0.0,0.0,0.0,0.0,0.0,0.0,0.0,0.0,0.0,0.0,0.0,0.0,0.0,0.0,0.0,0.0,0.0,0.0,0.0,0.0,0.0,0.0,0.0,0.0,0.0,0.0,0.0,0.0,0.0,0.0,0.0,0.0,0.0,0.0,0.0,0.0,0.0,0.0,0.0,0.0,0.0,0.0,0.0,0.0,0.0,0.0,0.0,0.0,0.0,0.0,0.0,0.0,0.0,0.0,0.0,0.0,0.0,0.0,0.0,0.0,0.0,0.0,0.0,0.0,0.0,0.0,0.0,0.0,0.0,0.0,0.0,0.0,0.0,0.0,0.0,0.0,0.0,0.0,0.0,0.0,0.0,0.0,0.0,0.0,0.0,0.0,0.0,0.0,0.0,0.0,0.0,0.0,0.0,0.0,0.0,0.0,0.0,0.0,0.0,0.0,0.0,0.0,0.0,0.0,0.0,0.0,0.0,0.0,0.0,0.0,0.0,0.0,0.0,0.0,0.0,0.0,0.0,0.0,0.0,0.0,0.0,0.0,0.0,0.0,0.0,0.0,0.0,0.0,0.0,0.0,0.0,0.0,0.0,0.0,0.0,0.0,0.0,0.0,0.0,0.0,0.0,0.0,0.0,0.0,0.0,0.0,0.0,0.0,0.0,0.0,0.0,0.0,0.0,0.0,0.0,0.0,0.0,0.0,0.0,0.0,0.0,0.0,0.0,0.0,0.0,0.0,0.0,0.0,0.0,0.0,0.0,0.0,0.0,0.0,0.0,0.0,0.0,0.0,0.0,0.0,0.0,0.0,0.0,0.0,0.0,0.0,0.0,0.0,0.0,0.0,0.0,0.0,0.0,0.0,0.0,0.0,0.0,0.0,0.0,0.0,0.0,0.0,0.0,0.0,0.0,0.0,0.0,0.0,0.0,0.0,0.0,0.0,0.0,0.0,0.0,0.0,0.0,0.0,0.0,0.0,0.0,0.0,0.0,0.0,0.0,0.0,0.0,0.0,0.0,0.0,0.0,0.0,0.0,0.0,0.0,0.0,0.0,0.0,0.0,0.0,0.0,0.0,0.0,0.0,0.0,0.0,0.0,0.0,0.0,0.0,0.0,0.0,0.0,0.0,0.0,0.0,0.0,0.0,0.0,0.0,0.0,0.0,0.0,0.0,0.0,0.0,0.0,0.0,0.0,0.0,0.0,0.0,0.0,0.0,0.0,0.0,0.0,0.0,0.0,0.0,0.0,0.0,0.0,0.0,0.0,0.0,0.0,0.0,0.0,0.0,0.0,0.0,0.0,0.0,0.0,0.0,0.0,0.0,0.0,0.0,0.0,0.0,0.0,0.0,0.0,0.0,0.0,0.0,0.0,0.0,0.0,0.0,0.0,0.0,0.0,0.0,0.0,0.0,0.0,0.0,0.0,0.0,0.0,0.0,0.0,0.0,0.0,0.0,0.0,0.0,0.0,0.0,0.0,0.0,0.0,0.0,0.0,0.0,0.0,0.0,0.0,0.0,0.0,0.0,0.0,0.0,0.0,0.0,0.0,0.0,0.0,0.0,0.0,0.0,0.0,0.0,0.0,0.0,0.0,0.0,0.0,0.0,0.0,0.0,0.0,0.0,0.0,0.0,0.0,0.0,0.0,0.0,0.0,0.0,0.0,0.0,0.0,0.0,0.0,0.0,0.0,0.0,0.0,0.0,0.0,0.0,0.0,0.0,0.0,0.0,0.0,0.0,0.0,0.0,0.0,0.0,0.0,0.0,0.0,0.0,0.0,0.0,0.0,0.0,0.0,0.0,0.0,0.0,0.0,0.0,0.0,0.0,0.0,0.0,0.0,0.0,0.0,0.0,0.0,0.0,0.0,0.0,0.0,0.0,0.0,0.0,0.0,0.0,0.0,0.0,0.0,0.0,0.0,0.0,0.0,0.0,0.0,0.0,0.0,0.0,0.0,0.0,0.0,0.0,0.0,0.0,0.0,0.0,0.0,0.0,0.0,0.0,0.0,0.0,0.0,0.0,0.0,0.0,0.0,0.0,0.0,0.0,0.0,0.0,0.0,0.0,0.0,0.0,0.0,0.0,0.0,0.0,0.0,0.0,0.0,0.0,0.0,0.0,0.0,0.0,0.0,0.0,0.0,0.0,0.0,0.0,0.0,0.0,0.0,0.0,0.0,0.0,0.0,0.0,0.0,0.0,0.0,0.0,0.0,0.0,0.0,0.0,0.0,0.0,0.0,0.0,0.0,0.0,0.0,0.0,0.0,0.0,0.0,0.0,0.0,0.0,0.0,0.0,0.0,0.0,0.0,0.0,0.0,0.0,0.0,0.0,0.0,0.0,0.0,0.0,0.0,0.0,0.0,0.0,0.0,0.0,0.0,0.0,0.0,0.0,0.0,0.0,0.0,0.0,0.0,0.0,0.0,0.0,0.0,0.0,0.0,0.0,0.0,0.0,0.0,0.0,0.0,0.0,0.0,0.0,0.0,0.0,0.0,0.0,0.0,0.0,0.0,0.0,0.0,0.0,0.0,0.0,0.0,0.0,0.0,0.0,0.0,0.0,0.0,0.0,0.0,0.0,0.0,0.0,0.0,0.0,0.0,0.0,0.0,0.0,0.0,0.0,0.0,0.0,0.0,0.0,0.0,0.0,0.0,0.0,0.0,0.0,0.0,0.0,0.0,0.0,0.0,0.0,0.0,0.0,0.0,0.0,0.0,0.0,0.0,0.0,0.0,0.0,0.0,0.0,0.0,0.0,0.0,0.0,0.0,0.0,0.0,0.0,0.0,0.0,0.0,0.0,0.0,0.0,0.0,0.0,0.0,0.0,0.0,0.0,0.0,0.0,0.0,0.0,0.0,0.0,0.0,0.0,0.0,0.0,0.0,0.0,0.0,0.0,0.0,0.0,0.0,0.0,0.0,0.0,-7.7291,0.0,0.0,0.0,0.0,0.0,0.0,0.0,0.0,0.0,0.0,0.0,0.0,0.0,0.0,0.0,0.0,0.0,0.0,0.0,0.0,0.0,0.0,0.0,0.0,0.0,0.0,0.0,0.0,0.0,0.0,0.0,0.0,0.0,0.0,0.0,0.0,0.0,0.0,0.0,0.0,0.0,0.0,0.0,0.0,0.0,0.0,0.0,0.0,0.0,0.0,0.0,0.0,0.0,0.0,0.0,0.0,0.0,0.0,0.0,0.0,0.0,0.0,0.0,0.0,0.0,0.0,0.0,0.0,0.0,0.0,0.0,0.0,0.0,0.0,0.0,0.0,0.0,0.0,0.0,0.0,0.0,0.0,0.0,0.0,0.0,0.0,0.0,0.0,0.0,0.0,0.0,0.0,0.0,0.0,0.0,0.0,0.0,0.0,0.0,0.0,0.0,0.0,0.0,0.0,0.0,0.0,0.0,0.0,0.0,0.0,-7.9937,-7.9862,-7.8386,-7.7522,-7.7507,0.0,0.0,0.0,0.0,0.0,0.0,0.0,0.0,0.0,0.0,0.0,0.0,0.0,0.0,0.0,0.0,0.0,0.0,0.0,0.0,0.0,0.0,0.0,0.0,0.0,0.0,0.0,0.0,0.0,0.0,0.0,0.0,0.0,0.0,0.0,0.0,0.0,0.0,0.0,0.0,0.0,0.0,0.0,0.0,0.0,0.0,0.0,0.0,0.0,0.0,0.0,0.0,0.0,0.0,0.0,0.0,0.0,0.0,0.0,0.0,0.0,0.0,0.0,0.0,0.0,0.0,0.0,0.0,0.0,0.0,0.0,0.0,0.0,0.0,0.0,0.0,0.0,0.0,0.0,0.0,0.0,0.0,0.0,0.0,0.0,0.0,0.0,0.0,0.0,0.0,0.0,0.0,0.0,0.0,0.0,0.0,0.0,0.0,0.0,0.0,0.0,0.0,0.0,0.0,0.0,0.0,0.0,0.0,0.0,0.0,0.0,0.0,-7.8349,-7.756,-7.6942,0.0,0.0,0.0,0.0,0.0,0.0,0.0,0.0,0.0,0.0,0.0,0.0,0.0,0.0,0.0,0.0,0.0,0.0,0.0,0.0,0.0,0.0,0.0,0.0,0.0,0.0,0.0,0.0,0.0,0.0,0.0,0.0,0.0,0.0,0.0,0.0,0.0,0.0,0.0,0.0,0.0,0.0,0.0,0.0,0.0,0.0,0.0,0.0,0.0,0.0,0.0,0.0,0.0,0.0,0.0,0.0,0.0,0.0,0.0,0.0,0.0,0.0,0.0,0.0,0.0,0.0,0.0,0.0,0.0,0.0,0.0,0.0,0.0,0.0,0.0,0.0,0.0,0.0,0.0,0.0,0.0,0.0,0.0,0.0,0.0,0.0,0.0,0.0,0.0,0.0,0.0,0.0,0.0,0.0,0.0,0.0,0.0,0.0,0.0,0.0,0.0,0.0,0.0,0.0,0.0,0.0,0.0,0.0,0.0,0.0,-7.7492,-7.752,-7.6001,0.0,-7.5259,0.0,0.0,0.0,0.0,0.0,0.0,0.0,0.0,0.0,0.0,0.0,0.0,0.0,0.0,0.0,0.0,0.0,0.0,0.0,0.0,0.0,0.0,0.0,0.0,0.0,0.0,0.0,0.0,0.0,0.0,0.0,0.0,0.0,0.0,0.0,0.0,0.0,0.0,0.0,0.0,0.0,0.0,0.0,0.0,0.0,0.0,0.0,0.0,0.0,0.0,0.0,0.0,0.0,0.0,0.0,0.0,0.0,0.0,0.0,0.0,0.0,0.0,0.0,0.0,0.0,0.0,0.0,0.0,0.0,0.0,0.0,0.0,0.0,0.0,0.0,0.0,0.0,0.0,0.0,0.0,0.0,0.0,0.0,0.0,0.0,0.0,0.0,0.0,0.0,0.0,0.0,0.0,0.0,0.0,0.0,0.0,0.0,0.0,0.0,0.0,0.0,0.0,0.0,0.0,0.0,0.0,0.0,0.0,0.0,0.0,-7.7258,-7.7316,-7.5755,-7.4479,0.0,0.0,0.0,0.0,0.0,0.0,0.0,0.0,0.0,0.0,0.0,0.0,0.0,0.0,0.0,0.0,0.0,0.0,0.0,0.0,0.0,0.0,0.0,0.0,0.0,0.0,0.0,0.0,0.0,0.0,0.0,0.0,0.0,0.0,0.0,0.0,0.0,0.0,0.0,0.0,0.0,0.0,0.0,0.0,0.0,0.0,0.0,0.0,0.0,0.0,0.0,0.0,0.0,0.0,0.0,0.0,0.0,0.0,0.0,0.0,0.0,0.0,0.0,0.0,0.0,0.0,0.0,0.0,0.0,0.0,0.0,0.0,0.0,0.0,0.0,0.0,0.0,0.0,0.0,0.0,0.0,0.0,0.0,0.0,0.0,0.0,0.0,0.0,0.0,0.0,0.0,0.0,0.0,0.0,0.0,0.0,0.0,0.0,0.0,0.0,0.0,0.0,0.0,0.0,0.0,0.0,0.0,0.0,0.0,0.0,-7.6661,-7.6354,-7.5902,-7.465,-7.3504,-7.2533,0.0,0.0,0.0,0.0,0.0,0.0,0.0,0.0,0.0,0.0,0.0,0.0,0.0,0.0,0.0,0.0,0.0,0.0,0.0,0.0,0.0,0.0,0.0,0.0,0.0,0.0,0.0,0.0,0.0,0.0,0.0,0.0,0.0,0.0,0.0,0.0,0.0,0.0,0.0,0.0,0.0,0.0,0.0,0.0,0.0,0.0,0.0,0.0,0.0,0.0,0.0,0.0,0.0,0.0,0.0,0.0,0.0,0.0,0.0,0.0,0.0,0.0,0.0,0.0,0.0,0.0,0.0,0.0,0.0,0.0,0.0,0.0,0.0,0.0,0.0,0.0,0.0,0.0,0.0,0.0,0.0,0.0,0.0,0.0,0.0,0.0,0.0,0.0,0.0,0.0,0.0,0.0,0.0,0.0,0.0,0.0,0.0,0.0,0.0,0.0,0.0,0.0,0.0,0.0,0.0,0.0,0.0,0.0,-7.6006,-7.5162,-7.4056,-7.2711,-7.1887,-7.1766,0.0,0.0,0.0,0.0,0.0,0.0,0.0,0.0,0.0,0.0,0.0,0.0,0.0,0.0,0.0,0.0,0.0,0.0,0.0,0.0,0.0,0.0,0.0,0.0,0.0,0.0,0.0,0.0,0.0,0.0,0.0,0.0,0.0,0.0,0.0,0.0,0.0,0.0,0.0,0.0,0.0,0.0,0.0,0.0,0.0,0.0,0.0,0.0,0.0,0.0,0.0,0.0,0.0,0.0,0.0,0.0,0.0,0.0,0.0,0.0,0.0,0.0,0.0,0.0,0.0,0.0,0.0,0.0,0.0,0.0,0.0,0.0,0.0,0.0,0.0,0.0,0.0,0.0,0.0,0.0,0.0,0.0,0.0,0.0,0.0,0.0,0.0,0.0,0.0,0.0,0.0,0.0,0.0,0.0,0.0,0.0,0.0,0.0,0.0,0.0,0.0,0.0,0.0,0.0,0.0,0.0,0.0,0.0,0.0,-7.507,-7.3865,-7.2699,-7.1751,-7.1447,-7.1412,0.0,0.0,0.0,0.0,0.0,0.0,0.0,0.0,0.0,0.0,0.0,0.0,0.0,0.0,0.0,0.0,0.0,0.0,0.0,0.0,0.0,0.0,0.0,0.0,0.0,0.0,0.0,0.0,0.0,0.0,0.0,0.0,0.0,0.0,0.0,0.0,0.0,0.0,0.0,0.0,0.0,0.0,0.0,0.0,0.0,0.0,0.0,0.0,0.0,0.0,0.0,0.0,0.0,0.0,0.0,0.0,0.0,0.0,0.0,0.0,0.0,0.0,0.0,0.0,0.0,0.0,0.0,0.0,0.0,0.0,0.0,0.0,0.0,0.0,0.0,0.0,0.0,0.0,0.0,0.0,0.0,0.0,0.0,0.0,0.0,0.0,0.0,0.0,0.0,0.0,0.0,0.0,0.0,0.0,0.0,0.0,0.0,0.0,0.0,0.0,0.0,0.0,0.0,0.0,0.0,0.0,0.0,0.0,0.0,-7.3883,0.0,-7.1819,-7.1345,-7.1312,-7.1312,0.0,0.0,0.0,0.0,0.0,0.0,0.0,0.0,0.0,0.0,0.0,0.0,0.0,0.0,0.0,0.0,0.0,0.0,0.0,0.0,0.0,0.0,0.0,0.0,0.0,0.0,0.0,0.0,0.0,0.0,0.0,0.0,0.0,0.0,0.0,0.0,0.0,0.0,0.0,0.0,0.0,0.0,0.0,0.0,0.0,0.0,0.0,0.0,0.0,0.0,0.0,0.0,0.0,0.0,0.0,0.0,0.0,0.0,0.0,0.0,0.0,0.0,0.0,0.0,0.0,0.0,0.0,0.0,0.0,0.0,0.0,0.0,0.0,0.0,0.0,0.0,0.0,0.0,0.0,0.0,0.0,0.0,0.0,0.0,0.0,0.0,0.0,0.0,0.0,0.0,0.0,0.0,0.0,0.0,0.0,0.0,0.0,0.0,0.0,0.0,0.0,0.0,0.0,0.0,0.0,0.0,0.0,0.0,-7.3849,-7.2462,-7.1718,-7.1345,-7.1312,-7.1312,-7.1312,0.0,0.0,0.0,0.0,0.0,0.0,0.0,0.0,0.0,0.0,0.0,0.0,0.0,0.0,0.0,0.0,0.0,0.0,0.0,0.0,0.0,0.0,0.0,0.0,0.0,0.0,0.0,0.0,0.0,0.0,0.0,0.0,0.0,0.0,0.0,0.0,0.0,0.0,0.0,0.0,0.0,0.0,0.0,0.0,0.0,0.0,0.0,0.0,0.0,0.0,0.0,0.0,0.0,0.0,0.0,0.0,0.0,0.0,0.0,0.0,0.0,0.0,0.0,0.0,0.0,0.0,0.0,0.0,0.0,0.0,0.0,0.0,0.0,0.0,0.0,0.0,0.0,0.0,0.0,0.0,0.0,0.0,0.0,0.0,0.0,0.0,0.0,0.0,0.0,0.0,0.0,0.0,0.0,0.0,0.0,0.0,0.0,0.0,0.0,0.0,0.0,0.0,0.0,0.0,0.0,0.0,0.0,0.0,0.0,-7.165,-7.1447,-7.1312,-7.1312,-7.1312,-7.1312,0.0,0.0,0.0,0.0,0.0,0.0,0.0,0.0,0.0,0.0,0.0,0.0,0.0,0.0,0.0,0.0,0.0,0.0,0.0,0.0,0.0,0.0,0.0,0.0,0.0,0.0,0.0,0.0,0.0,0.0,0.0,0.0,0.0,0.0,0.0,0.0,0.0,0.0,0.0,0.0,0.0,0.0,0.0,0.0,0.0,0.0,0.0,0.0,0.0,0.0,0.0,0.0,0.0,0.0,0.0,0.0,0.0,0.0,0.0,0.0,0.0,0.0,0.0,0.0,0.0,0.0,0.0,0.0,0.0,0.0,0.0,0.0,0.0,0.0,0.0,0.0,0.0,0.0,0.0,0.0,0.0,0.0,0.0,0.0,0.0,0.0,0.0,0.0,0.0,0.0,0.0,0.0,0.0,0.0,0.0,0.0,0.0,0.0,0.0,0.0,0.0,0.0,0.0,0.0,0.0,0.0,0.0,0.0,0.0,-7.1312,-7.1312,-7.1312,-7.1312,-7.1312,-7.1312,-7.1312,0.0,0.0,0.0,0.0,0.0,0.0,0.0,0.0,0.0,0.0,0.0,0.0,0.0,0.0,0.0,0.0,0.0,0.0,0.0,0.0,0.0,0.0,0.0,0.0,0.0,0.0,0.0,0.0,0.0,0.0,0.0,0.0,0.0,0.0,0.0,0.0,0.0,0.0,0.0,0.0,0.0,0.0,0.0,0.0,0.0,0.0,0.0,0.0,0.0,0.0,0.0,0.0,0.0,0.0,0.0,0.0,0.0,0.0,0.0,0.0,0.0,0.0,0.0,0.0,0.0,0.0,0.0,0.0,0.0,0.0,0.0,0.0,0.0,0.0,0.0,0.0,0.0,0.0,0.0,0.0,0.0,0.0,0.0,0.0,0.0,0.0,0.0,0.0,0.0,0.0,0.0,0.0,0.0,0.0,0.0,0.0,0.0,0.0,0.0,0.0,0.0,0.0,0.0,0.0,0.0,0.0,0.0,0.0,-7.1379,-7.1379,-7.1345,-7.1312,-7.1312,-7.1312,0.0,0.0,0.0,0.0,0.0,0.0,0.0,0.0,0.0,0.0,0.0,0.0,0.0,0.0,0.0,0.0,0.0,0.0,0.0,0.0,0.0,0.0,0.0,0.0,0.0,0.0,0.0,0.0,0.0,0.0,0.0,0.0,0.0,0.0,0.0,0.0,0.0,0.0,0.0,0.0,0.0,0.0,0.0,0.0,0.0,0.0,0.0,0.0,0.0,0.0,0.0,0.0,0.0,0.0,0.0,0.0,0.0,0.0,0.0,0.0,0.0,0.0,0.0,0.0,0.0,0.0,0.0,0.0,0.0,0.0,0.0,0.0,0.0,0.0,0.0,0.0,0.0,0.0,0.0,0.0,0.0,0.0,0.0,0.0,0.0,0.0,0.0,0.0,0.0,0.0,0.0,0.0,0.0,0.0,0.0,0.0,0.0,0.0,0.0,0.0,0.0,0.0,0.0,0.0,0.0,0.0,0.0,0.0,0.0,-7.2157,-7.2124,-7.1853,-7.1345,-7.1312,-7.1312,0.0,0.0,0.0,0.0,0.0,0.0,0.0,0.0,0.0,0.0,0.0,0.0,0.0,0.0,0.0,0.0,0.0,0.0,0.0,0.0,0.0,0.0,0.0,0.0,0.0,0.0,0.0,0.0,0.0,0.0,0.0,0.0,0.0,0.0,0.0,0.0,0.0,0.0,0.0,0.0,0.0,0.0,0.0,0.0,0.0,0.0,0.0,0.0,0.0,0.0,0.0,0.0,0.0,0.0,0.0,0.0,0.0,0.0,0.0,0.0,0.0,0.0,0.0,0.0,0.0,0.0,0.0,0.0,0.0,0.0,0.0,0.0,0.0,0.0,0.0,0.0,0.0,0.0,0.0,0.0,0.0,0.0,0.0,0.0,0.0,0.0,0.0,0.0,0.0,0.0,0.0,0.0,0.0,0.0,0.0,0.0,0.0,0.0,0.0,0.0,0.0,0.0,0.0,0.0,0.0,0.0,0.0,0.0,-7.3274,-7.2868,-7.2868,-7.2665,-7.2225,-7.165,-7.1312,0.0,0.0,0.0,0.0,0.0,0.0,0.0,0.0,0.0,0.0,0.0,0.0,0.0,0.0,0.0,0.0,0.0,0.0,0.0,0.0,0.0,0.0,0.0,0.0,0.0,0.0,0.0,0.0,0.0,0.0,0.0,0.0,0.0,0.0,0.0,0.0,0.0,0.0,0.0,0.0,0.0,0.0,0.0,0.0,0.0,0.0,0.0,0.0,0.0,0.0,0.0,0.0,0.0,0.0,0.0,0.0,0.0,0.0,0.0,0.0,0.0,0.0,0.0,0.0,0.0,0.0,0.0,0.0,0.0,0.0,0.0,0.0,0.0,0.0,0.0,0.0,0.0,0.0,0.0,0.0,0.0,0.0,0.0,0.0,0.0,0.0,0.0,0.0,0.0,0.0,0.0,0.0,0.0,0.0,0.0,0.0,0.0,0.0,0.0,0.0,0.0,0.0,0.0,0.0,0.0,0.0,0.0,0.0,-7.368,-7.3578,-7.3612,-7.3578,-7.3443,-7.2225,-7.1548,0.0,0.0,0.0,0.0,0.0,0.0,0.0,0.0,0.0,0.0,0.0,0.0,0.0,0.0,0.0,0.0,0.0,0.0,0.0,0.0,0.0,0.0,0.0,0.0,0.0,0.0,0.0,0.0,0.0,0.0,0.0,0.0,0.0,0.0,0.0,0.0,0.0,0.0,0.0,0.0,0.0,0.0,0.0,0.0,0.0,0.0,0.0,0.0,0.0,0.0,0.0,0.0,0.0,0.0,0.0,0.0,0.0,0.0,0.0,0.0,0.0,0.0,0.0,0.0,0.0,0.0,0.0,0.0,0.0,0.0,0.0,0.0,0.0,0.0,0.0,0.0,0.0,0.0,0.0,0.0,0.0,0.0,0.0,0.0,0.0,0.0,0.0,0.0,0.0,0.0,0.0,0.0,0.0,0.0,0.0,0.0,0.0,0.0,0.0,0.0,0.0,0.0,0.0,0.0,0.0,0.0,0.0,0.0,-7.4931,-7.439,-7.4356,-7.4086,-7.3477,-7.3172,-7.3037,0.0,0.0,0.0,0.0,0.0,0.0,0.0,0.0,0.0,0.0,0.0,0.0,0.0,0.0,0.0,0.0,0.0,0.0,0.0,0.0,0.0,0.0,0.0,0.0,0.0,0.0,0.0,0.0,0.0,0.0,0.0,0.0,0.0,0.0,0.0,0.0,0.0,0.0,0.0,0.0,0.0,0.0,0.0,0.0,0.0,0.0,0.0,0.0,-6.6609,0.0,0.0,0.0,0.0,0.0,0.0,0.0,0.0,0.0,0.0,0.0,0.0,0.0,0.0,0.0,0.0,0.0,0.0,0.0,0.0,0.0,0.0,0.0,0.0,0.0,0.0,0.0,0.0,0.0,0.0,0.0,0.0,0.0,0.0,0.0,0.0,0.0,0.0,0.0,0.0,0.0,0.0,0.0,0.0,0.0,0.0,0.0,0.0,0.0,0.0,0.0,0.0,0.0,0.0,0.0,0.0,0.0,0.0,0.0,-7.5506,-7.5134,-7.5134,-7.4931,-7.4559,-7.4525,-7.4187,0.0,0.0,0.0,0.0,0.0,0.0,0.0,0.0,0.0,0.0,0.0,0.0,0.0,0.0,0.0,0.0,0.0,0.0,0.0,0.0,0.0,0.0,0.0,0.0,0.0,0.0,0.0,0.0,0.0,0.0,0.0,0.0,0.0,0.0,0.0,0.0,0.0,0.0,0.0,0.0,0.0,0.0,0.0,0.0,0.0,0.0,0.0,0.0,0.0,0.0,0.0,0.0,0.0,0.0,0.0,0.0,0.0,0.0,0.0,0.0,0.0,0.0,0.0,0.0,0.0,0.0,0.0,0.0,0.0,0.0,0.0,0.0,0.0,0.0,0.0,0.0,0.0,0.0,0.0,0.0,0.0,0.0,0.0,0.0,0.0,0.0,0.0,0.0,0.0,0.0,0.0,0.0,0.0,0.0,0.0,0.0,0.0,0.0,0.0,0.0,0.0,0.0,0.0,0.0,0.0,0.0,0.0,-7.5676,-7.5676,-7.5676,-7.5676,-7.5676,-7.5676,-7.5676,-7.51,-7.3883,0.0,0.0,0.0,0.0,0.0,0.0,0.0,0.0,0.0,0.0,0.0,0.0,0.0,0.0,0.0,0.0,0.0,0.0,0.0,0.0,0.0,0.0,0.0,0.0,0.0,0.0,0.0,0.0,0.0,0.0,0.0,0.0,0.0,0.0,0.0,0.0,0.0,0.0,-6.6812,-6.6812,0.0,0.0,0.0,0.0,0.0,0.0,0.0,0.0,-6.6812,0.0,0.0,0.0,0.0,0.0,0.0,0.0,0.0,0.0,0.0,0.0,0.0,0.0,0.0,0.0,0.0,0.0,0.0,0.0,0.0,0.0,0.0,0.0,0.0,0.0,0.0,0.0,0.0,0.0,0.0,0.0,0.0,0.0,0.0,0.0,0.0,0.0,0.0,0.0,0.0,0.0,0.0,0.0,0.0,0.0,0.0,0.0,0.0,0.0,0.0,0.0,0.0,0.0,0.0,0.0,0.0,-7.5676,-7.5676,-7.5676,-7.5676,-7.5676,-7.5676,-7.5676,-7.5676,-7.5574,-7.5337,0.0,0.0,0.0,0.0,0.0,0.0,0.0,0.0,0.0,0.0,0.0,0.0,0.0,0.0,0.0,0.0,0.0,0.0,0.0,0.0,0.0,0.0,0.0,0.0,0.0,0.0,0.0,0.0,0.0,0.0,0.0,0.0,0.0,0.0,0.0,0.0,0.0,0.0,0.0,-6.6812,-6.6812,0.0,0.0,0.0,0.0,0.0,0.0,0.0,0.0,-6.6779,0.0,0.0,0.0,0.0,0.0,0.0,0.0,0.0,0.0,0.0,0.0,0.0,0.0,0.0,0.0,0.0,0.0,0.0,0.0,0.0,0.0,0.0,0.0,0.0,0.0,0.0,0.0,0.0,0.0,0.0,0.0,0.0,0.0,0.0,0.0,0.0,0.0,0.0,0.0,0.0,0.0,0.0,0.0,0.0,0.0,0.0,0.0,0.0,0.0,0.0,0.0,0.0,0.0,0.0,0.0,-7.5676,-7.5676,-7.5676,-7.5676,-7.5676,-7.5676,-7.5676,-7.5676,-7.5676,0.0,0.0,0.0,0.0,0.0,0.0,0.0,0.0,0.0,0.0,0.0,0.0,0.0,0.0,0.0,0.0,0.0,0.0,0.0,0.0,0.0,0.0,0.0,0.0,0.0,0.0,0.0,0.0,0.0,0.0,0.0,0.0,0.0,0.0,0.0,0.0,0.0,0.0,0.0,0.0,-6.6812,-6.6812,-6.6812,0.0,0.0,0.0,0.0,0.0,0.0,-6.6812,-6.6812,0.0,0.0,0.0,0.0,0.0,0.0,0.0,0.0,0.0,0.0,0.0,0.0,0.0,0.0,0.0,0.0,0.0,0.0,0.0,0.0,0.0,0.0,0.0,0.0,0.0,0.0,0.0,0.0,0.0,0.0,0.0,0.0,0.0,0.0,0.0,0.0,0.0,0.0,0.0,0.0,0.0,0.0,0.0,0.0,0.0,0.0,0.0,0.0,0.0,0.0,0.0,0.0,0.0,0.0,0.0,-7.5676,-7.5676,-7.5676,-7.5676,-7.5676,-7.5676,-7.5676,-7.5676,-7.5676,0.0,0.0,0.0,0.0,0.0,0.0,0.0,0.0,0.0,0.0,0.0,0.0,0.0,0.0,0.0,0.0,0.0,0.0,0.0,0.0,0.0,0.0,0.0,0.0,0.0,0.0,0.0,0.0,0.0,0.0,0.0,0.0,0.0,0.0,0.0,0.0,0.0,0.0,0.0,0.0,0.0,-6.6812,-6.6812,-6.6812,0.0,0.0,0.0,0.0,-6.6812,-6.6812,0.0,0.0,0.0,0.0,0.0,0.0,0.0,0.0,0.0,0.0,0.0,0.0,0.0,0.0,0.0,0.0,0.0,0.0,0.0,0.0,0.0,0.0,0.0,0.0,0.0,0.0,0.0,0.0,0.0,0.0,0.0,0.0,0.0,0.0,0.0,0.0,0.0,0.0,0.0,0.0,0.0,0.0,0.0,0.0,0.0,0.0,0.0,0.0,0.0,0.0,0.0,0.0,0.0,0.0,0.0,0.0,-7.5676,-7.5676,-7.5676,-7.5676,-7.5676,-7.5676,-7.5676,-7.5676,-7.5676,0.0,0.0,0.0,0.0,0.0,0.0,0.0,0.0,0.0,0.0,0.0,0.0,0.0,0.0,0.0,0.0,0.0,0.0,0.0,0.0,0.0,0.0,0.0,0.0,0.0,0.0,0.0,0.0,0.0,0.0,0.0,0.0,0.0,0.0,0.0,0.0,0.0,0.0,0.0,0.0,0.0,-6.6812,-6.6812,-6.6812,-6.6812,0.0,0.0,-6.6812,-6.6812,-6.6812,0.0,0.0,0.0,0.0,0.0,0.0,0.0,0.0,0.0,0.0,0.0,0.0,0.0,0.0,0.0,0.0,0.0,0.0,0.0,0.0,0.0,0.0,0.0,0.0,0.0,0.0,0.0,0.0,0.0,0.0,0.0,0.0,0.0,0.0,0.0,0.0,0.0,0.0,0.0,0.0,0.0,0.0,0.0,0.0,0.0,0.0,0.0,0.0,0.0,0.0,0.0,0.0,0.0,0.0,0.0,-7.5676,-7.5676,-7.5676,-7.5676,-7.5676,-7.5676,-7.5676,-7.5676,-7.5676,-7.5676,0.0,0.0,0.0,0.0,0.0,0.0,0.0,0.0,0.0,0.0,0.0,0.0,0.0,0.0,0.0,0.0,0.0,0.0,0.0,0.0,0.0,0.0,0.0,0.0,0.0,0.0,0.0,0.0,0.0,0.0,0.0,0.0,0.0,0.0,0.0,0.0,0.0,0.0,0.0,0.0,0.0,0.0,-6.8132,-6.8098,0.0,0.0,0.0,-6.7286,-6.688,0.0,0.0,0.0,0.0,0.0,0.0,0.0,0.0,0.0,0.0,0.0,0.0,0.0,0.0,0.0,0.0,0.0,0.0,0.0,0.0,0.0,0.0,0.0,0.0,0.0,0.0,0.0,0.0,0.0,0.0,0.0,0.0,0.0,0.0,0.0,0.0,0.0,0.0,0.0,0.0,0.0,0.0,0.0,0.0,0.0,0.0,0.0,0.0,0.0,0.0,0.0,0.0,0.0,0.0,0.0,0.0,0.0,-7.5676,-7.5676,-7.5676,-7.5676,-7.5676,-7.5676,-7.5676,-7.5676,0.0,0.0,0.0,0.0,0.0,0.0,0.0,0.0,0.0,0.0,0.0,0.0,0.0,0.0,0.0,0.0,0.0,0.0,0.0,0.0,0.0,0.0,0.0,0.0,0.0,0.0,0.0,-6.9079,0.0,0.0,0.0,0.0,0.0,0.0,0.0,0.0,0.0,0.0,0.0,0.0,0.0,0.0,-6.9079,-6.9079,-6.9079,-6.891,0.0,0.0,-6.7996,-6.7489,-6.7218,-6.7083,0.0,0.0,0.0,0.0,0.0,0.0,0.0,0.0,0.0,0.0,0.0,0.0,0.0,0.0,0.0,0.0,0.0,0.0,0.0,0.0,0.0,0.0,0.0,0.0,0.0,0.0,0.0,0.0,0.0,0.0,0.0,0.0,0.0,0.0,0.0,0.0,0.0,0.0,0.0,0.0,0.0,0.0,0.0,0.0,0.0,0.0,0.0,0.0,0.0,0.0,0.0,0.0,0.0,0.0,-7.5676,-7.5676,-7.5676,-7.5676,-7.5676,-7.5676,-7.5676,-7.5676,-7.5676,-7.5676,0.0,0.0,0.0,0.0,0.0,0.0,0.0,0.0,0.0,0.0,0.0,0.0,0.0,0.0,0.0,0.0,0.0,0.0,0.0,0.0,0.0,0.0,0.0,0.0,0.0,0.0,0.0,0.0,0.0,0.0,0.0,0.0,0.0,0.0,0.0,0.0,0.0,0.0,0.0,0.0,0.0,-6.9113,-6.9079,-6.9079,-6.9113,0.0,-6.9011,-6.9011,-6.8944,-6.8301,-6.7827,-6.7827,0.0,0.0,0.0,0.0,0.0,0.0,0.0,0.0,0.0,0.0,0.0,0.0,0.0,0.0,0.0,0.0,0.0,0.0,0.0,0.0,0.0,0.0,0.0,0.0,0.0,0.0,0.0,0.0,0.0,0.0,0.0,0.0,0.0,0.0,0.0,0.0,0.0,0.0,0.0,0.0,0.0,0.0,0.0,0.0,0.0,0.0,0.0,0.0,0.0,0.0,0.0,0.0,0.0,-7.5676,-7.5676,-7.5676,-7.5676,-7.5676,-7.5676,-7.5676,-7.5676,-7.5676,-7.5676,0.0,0.0,0.0,0.0,0.0,0.0,0.0,0.0,0.0,0.0,0.0,0.0,0.0,0.0,0.0,0.0,0.0,0.0,0.0,0.0,0.0,0.0,0.0,0.0,0.0,0.0,0.0,0.0,-7.0466,-7.0466,-7.0466,0.0,0.0,0.0,0.0,0.0,0.0,0.0,0.0,0.0,0.0,-7.0466,-7.0466,-7.0466,0.0,0.0,-6.9755,-6.962,-6.918,-6.8842,-6.8639,-6.8639,-6.8402,0.0,0.0,0.0,0.0,0.0,0.0,0.0,0.0,0.0,0.0,0.0,0.0,0.0,0.0,0.0,0.0,0.0,0.0,0.0,0.0,0.0,0.0,0.0,0.0,0.0,0.0,0.0,0.0,0.0,0.0,0.0,0.0,0.0,0.0,0.0,0.0,0.0,0.0,0.0,0.0,0.0,0.0,0.0,0.0,0.0,0.0,0.0,0.0,0.0,0.0,0.0,0.0,-7.5676,-7.5676,-7.5676,-7.5676,-7.5676,-7.5676,-7.5676,-7.5676,-7.5676,-7.5676,0.0,0.0,0.0,0.0,0.0,0.0,0.0,0.0,0.0,0.0,0.0,0.0,0.0,0.0,0.0,0.0,0.0,0.0,0.0,0.0,0.0,0.0,0.0,0.0,0.0,0.0,0.0,0.0,-7.1312,-7.1312,-7.1312,0.0,0.0,0.0,0.0,0.0,0.0,0.0,0.0,0.0,0.0,-7.1312,-7.1312,-7.1312,-7.1142,-7.0601,-7.0534,-7.0364,-6.9857,-6.9586,-6.9417,-6.9417,0.0,0.0,0.0,0.0,0.0,0.0,0.0,0.0,0.0,0.0,0.0,0.0,0.0,0.0,0.0,0.0,0.0,0.0,0.0,0.0,0.0,0.0,0.0,0.0,0.0,0.0,0.0,-8.1776,0.0,0.0,-8.1776,0.0,0.0,0.0,0.0,0.0,0.0,0.0,0.0,0.0,0.0,0.0,0.0,0.0,0.0,0.0,0.0,0.0,0.0,0.0,0.0,0.0,0.0,-7.5676,-7.5676,-7.5676,-7.5676,-7.5676,-7.5676,-7.5676,-7.5676,-7.5676,-7.5676,-7.5676,0.0,0.0,0.0,0.0,0.0,0.0,0.0,0.0,0.0,0.0,0.0,0.0,0.0,0.0,0.0,0.0,0.0,0.0,0.0,0.0,0.0,0.0,0.0,0.0,0.0,0.0,-7.1312,-7.1312,-7.1312,0.0,0.0,0.0,0.0,0.0,0.0,0.0,0.0,0.0,-7.1312,-7.1312,-7.1312,-7.1312,-7.1312,-7.1278,-7.1278,-7.1278,-7.1278,-7.121,-7.0635,-7.0161,0.0,0.0,0.0,0.0,0.0,0.0,0.0,0.0,0.0,0.0,0.0,0.0,0.0,0.0,0.0,0.0,0.0,0.0,0.0,0.0,0.0,0.0,0.0,0.0,0.0,0.0,0.0,-8.1776,-8.1776,0.0,0.0,0.0,0.0,0.0,0.0,0.0,0.0,0.0,0.0,0.0,-7.7982,-7.734,0.0,0.0,0.0,0.0,0.0,0.0,0.0,0.0,0.0,0.0,0.0,0.0,-7.5676,-7.5676,-7.5676,-7.5676,-7.5676,-7.5676,-7.5676,-7.5676,-7.5676,-7.5676,-7.5676,0.0,0.0,0.0,0.0,0.0,0.0,0.0,0.0,0.0,0.0,0.0,0.0,0.0,0.0,0.0,0.0,0.0,0.0,0.0,0.0,0.0,0.0,0.0,0.0,0.0,-7.1312,0.0,0.0,0.0,0.0,0.0,0.0,0.0,0.0,0.0,0.0,-7.1312,-7.1312,-7.1312,-7.1312,-7.1312,-7.1312,-7.1312,-7.1312,0.0,0.0,0.0,0.0,0.0,0.0,0.0,0.0,0.0,0.0,0.0,0.0,0.0,0.0,-6.8166,-6.7624,-6.7523,-6.7387,-6.6914,0.0,0.0,0.0,0.0,0.0,0.0,0.0,0.0,0.0,0.0,0.0,0.0,0.0,0.0,-8.1776,-8.1776,-8.1776,0.0,0.0,0.0,0.0,0.0,0.0,0.0,0.0,-7.9603,-7.8913,-7.8396,-7.7879,-7.7499,-7.7223,-7.7223,-7.7133,0.0,0.0,0.0,0.0,0.0,0.0,0.0,0.0,-7.5676,-7.5676,-7.5676,-7.5676,-7.5676,-7.5676,-7.5676,-7.5676,-7.5676,-7.5676,-7.5676,-7.5676,-7.5676,0.0,0.0,0.0,0.0,0.0,0.0,0.0,0.0,0.0,0.0,0.0,0.0,0.0,0.0,0.0,0.0,0.0,0.0,0.0,0.0,0.0,0.0,0.0,-7.1312,0.0,0.0,0.0,0.0,0.0,0.0,0.0,0.0,0.0,-7.1312,-7.1312,-7.1312,-7.1312,-7.1312,-7.1312,-7.1312,0.0,0.0,0.0,0.0,0.0,0.0,0.0,-7.1312,-7.1312,-7.1312,-7.1312,-7.1312,-7.0906,-7.0432,-6.9958,0.0,0.0,-6.8504,-6.8301,-6.8166,-6.7692,-6.7218,-6.6948,-6.7151,-6.6779,-6.6508,0.0,0.0,0.0,0.0,-8.1879,0.0,0.0,0.0,-8.1776,-8.1776,0.0,-8.1776,0.0,0.0,0.0,0.0,-8.1776,-8.1776,0.0,0.0,-8.0603,-7.9844,-7.8534,-7.843,-7.8017,-7.7292,-7.7258,-7.7178,-7.7178,-7.6918,0.0,0.0,0.0,0.0,0.0,0.0,-7.5709,-7.5676,-7.5709,-7.5676,-7.5676,-7.5676,-7.5676,-7.5676,-7.5676,-7.5676,-7.5676,-7.5676,-7.5676,-7.5676,-7.5676,0.0,0.0,0.0,0.0,0.0,0.0,0.0,0.0,0.0,0.0,0.0,0.0,0.0,0.0,0.0,0.0,0.0,0.0,0.0,0.0,-7.1785,0.0,0.0,0.0,0.0,0.0,0.0,0.0,0.0,0.0,-7.1312,-7.1312,-7.1312,-7.1312,-7.1312,0.0,0.0,0.0,0.0,-7.1312,-7.1312,-7.1312,-7.1312,-7.1312,-7.1312,-7.1312,-7.1312,0.0,0.0,-7.1312,-7.1312,-7.1278,-7.1312,-7.1244,-7.0872,-6.9451,-6.9147,-6.9113,-6.9045,-6.8977,-6.8808,-6.8132,-6.7895,-6.7726,-8.619,0.0,0.0,0.0,0.0,-8.2017,-8.1776,-8.1776,-8.1776,-8.1776,-8.1776,-8.1776,0.0,0.0,0.0,0.0,0.0,0.0,-8.1672,-8.1431,-8.0879,-8.0396,-7.9948,-7.8913,-7.8292,-7.8051,-7.7499,-7.7223,-7.7178,-7.7099,-7.6873,-7.6495,0.0,0.0,0.0,0.0,-7.5947,-7.5981,-7.5805,-7.5676,-7.5676,-7.5676,-7.5676,-7.5676,-7.5676,-7.5676,-7.5676,-7.5676,-7.5676,-7.5676,-7.5676,0.0,0.0,0.0,0.0,0.0,0.0,0.0,0.0,0.0,0.0,0.0,0.0,0.0,0.0,0.0,0.0,0.0,0.0,0.0,-7.3172,-7.2529,-7.209,0.0,0.0,0.0,0.0,0.0,0.0,0.0,0.0,0.0,-7.1312,-7.1312,-7.1312,0.0,0.0,-7.1312,-7.1312,-7.1312,-7.1312,-7.1312,-7.1312,0.0,-7.1312,-7.1312,-7.1312,-7.1312,-7.1312,-7.1312,-7.1312,-7.1312,-7.1312,-7.1312,-7.1312,-7.1176,-7.077,-7.0229,-6.9722,-6.9248,-6.9079,-6.9045,-6.8808,-6.8774,-6.8707,-8.69,-8.5831,-8.4426,-8.3466,-8.288,-8.2431,-8.2086,-8.1776,-8.1776,-8.1776,-8.1776,-8.1776,-8.1776,-8.1776,-8.1776,0.0,0.0,0.0,-8.1776,-8.1776,-8.1328,-8.0914,-8.0569,-7.9707,-7.8982,-7.8396,-7.7913,-7.7489,-7.7178,-7.7223,-7.6998,-7.6645,0.0,-7.6461,-7.6262,-7.6262,-7.6262,-7.6262,-7.5994,-7.5852,-7.5852,-7.5757,-7.5676,-7.5676,-7.5676,-7.5676,-7.5676,-7.5676,-7.5676,-7.5676,-7.5676,-7.5676,0.0,0.0,0.0,0.0,0.0,0.0,0.0,0.0,0.0,0.0,0.0,-7.5067,-7.5033,0.0,0.0,0.0,-7.4086,-7.3815,-7.351,-7.3105,0.0,0.0,0.0,0.0,0.0,0.0,0.0,-7.0703,-7.1041,-7.1312,-7.1312,-7.1312,-7.1312,-7.1312,-7.1312,-7.1312,-7.1312,0.0,-7.1312,-7.1312,-7.1312,-7.1312,-7.1312,-7.1312,-7.1312,-7.1312,-7.1312,-7.1312,-7.1312,-7.1312,-7.1312,-7.1312,-7.1312,-7.1312,-7.1312,-7.0939,-7.05,-7.006,-6.9958,-6.9891,-6.962,-6.9519,-6.9485,-8.7213,-8.7095,-8.5866,-8.4446,-8.3018,-8.2949,-8.25,-8.181,-8.1776,-8.1776,-8.1776,-8.1776,-8.1776,-8.1776,-8.1776,0.0,-8.1776,-8.1776,-8.1776,-8.1776,-8.1776,-8.1431,-8.0741,-8.0638,-7.9879,-7.8499,-7.843,-7.7982,-7.7258,-7.7223,-7.7088,-7.6839,-7.6839,-7.6736,-7.6541,-7.6541,-7.6541,-7.6541,-7.6262,-7.6122,-7.6122,-7.5852,-7.5676,-7.5676,-7.5676,-7.5676,-7.5676,-7.5676,-7.5676,-7.5676,-7.5676,-7.5676,-7.5676,0.0,0.0,0.0,0.0,0.0,0.0,0.0,0.0,0.0,0.0,0.0,0.0,0.0,0.0,0.0,-7.51,0.0,-7.3713,-7.3612,0.0,0.0,0.0,-7.3206,-7.2563,-7.2462,-7.2225,-7.1548,0.0,0.0,-7.1413,-7.1345,-7.1312,-7.1312,-7.1312,-7.1312,-7.1312,-7.1312,-7.1312,-7.1312,-7.1312,-7.1312,-7.1312,-7.1312,-7.1312,-7.1312,-7.1312,-7.1312,-7.1312,-7.1312,-7.1312,-7.1312,-7.1312,-7.1312,-7.1312,-7.1278,-7.1312,-7.1244,-7.1244,-7.1075,-7.0432,-7.0263,-7.0094,-8.8178,-8.8051,-8.7065,-8.5499,-8.3707,-8.3156,-8.25,-8.181,-8.1776,-8.1776,-8.1776,-8.1776,-8.1776,-8.1776,-8.1776,-8.1776,-8.1776,-8.1776,-8.1776,-8.1776,-8.1776,-8.1707,-8.15,-8.0914,-8.0155,-7.9258,-7.8672,-7.7982,-7.7258,-7.7223,-7.7178,-7.7099,-7.7099,-7.6964,-7.6736,-7.6736,-7.6736,-7.6736,-7.6541,-7.6309,-7.6122,-7.5852,-7.5676,-7.5676,-7.5676,-7.5676,-7.5676,-7.5676,-7.5676,-7.5676,-7.5676,-7.5676,-7.5676,-7.5676,0.0,0.0,0.0,0.0,0.0,0.0,0.0,0.0,0.0,-7.5676,-7.5676,0.0,-7.5676,0.0,-7.554,-7.5371,-7.5202,-7.4695,0.0,0.0,-7.3815,-7.3409,-7.324,-7.324,-7.3172,-7.3003,-7.2462,-7.2124,-7.2124,-7.165,-7.1312,-7.1312,-7.1312,-7.1312,-7.1312,-7.1312,-7.1312,-7.1312,-7.1312,-7.1312,-7.1312,-7.1312,-7.1312,-7.1312,-7.1312,-7.1312,-7.1312,-7.1312,-7.1312,-7.1312,-7.1312,-7.1312,-7.1312,-7.1312,-7.1312,-7.1312,-7.1312,-7.1278,-7.1075,-7.1041,-7.1007,-8.8506,-8.8416,-8.7513,-8.6193,-8.4772,-8.3804,-8.2983,-8.2259,-8.1948,-8.1776,-8.1776,-8.1776,-8.1776,-8.1776,-8.1776,-8.1776,-8.1776,-8.1776,-8.1776,-8.1776,-8.1776,-8.1776,-8.1776,-8.1362,-8.0569,-7.9534,-7.9086,-7.8327,-7.7258,-7.7223,-7.7223,-7.7223,-7.7223,-7.7133,-7.6964,-7.6964,-7.6964,-7.6964,-7.6736,-7.6461,-7.6122,-7.5947,-7.5805,-7.5676,-7.5676,-7.5676,-7.5676,-7.5676,-7.5676,-7.5676,-7.5676,-7.5676,-7.5676,-7.5676,-7.5676,0.0,0.0,0.0,0.0,0.0,0.0,0.0,0.0,0.0,0.0,0.0,-7.5676,-7.5676,-7.5676,-7.5676,-7.5676,-7.5337,-7.51,-7.51,-7.4728,-7.4356,-7.4018,-7.3984,-7.3849,-7.351,-7.3138,-7.2868,-7.2868,-7.2529,-7.2293,-7.2293,-7.2022,-7.1684,-7.1379,-7.1312,-7.1312,-7.1312,-7.1312,-7.1312,-7.1312,-7.1312,-7.1312,-7.1312,-7.1312,-7.1312,-7.1312,-7.1312,-7.1312,-7.1312,-7.1312,-7.1312,-7.1312,-7.1312,-7.1312,-7.1312,-7.1312,-7.1312,-7.1312,-7.1312,-7.1312,-8.8596,-8.8506,-8.762,-8.6843,-8.6051,-8.4758,-8.3721,-8.2845,-8.2224,-8.1879,-8.1776,-8.1776,-8.1776,-8.1776,-8.1776,-8.1776,-8.1776,-8.1776,-8.1776,-8.1776,-8.1776,-8.1776,-8.1776,-8.1776,-8.1052,-7.9672,-7.9569,-7.8775,-7.7396,-7.7258,-7.7223,-7.7223,-7.7223,-7.7223,-7.7223,-7.7223,-7.7223,-7.7178,-7.6918,-7.6553,-7.6169,-7.6075,-7.5899,-7.5709,-7.5676,-7.5676,-7.5676,-7.5676,-7.5676,-7.5676,-7.5676,-7.5676,-7.5676,-7.5676,-7.5676,0.0,-7.5676,0.0,0.0,0.0,0.0,0.0,0.0,0.0,0.0,-7.5676,-7.5676,-7.5676,-7.5676,-7.5676,-7.5676,-7.5676,-7.5676,-7.5676,-7.5676,-7.5439,-7.483,-7.4762,-7.4492,-7.3849,-7.368,-7.3646,-7.3646,-7.3578,-7.3477,-7.3341,-7.2902,-7.236,-7.1751,-7.1481,-7.1312,-7.1312,-7.1312,-7.1345,-7.1481,-7.1481,-7.1515,-7.1582,-7.1718,-7.1582,-7.1684,-7.165,-7.1616,-7.1515,-7.1515,-7.1447,-7.1345,-7.1312,-7.1312,-7.1312,-7.1312,-7.1312,-7.1312,-7.1312,-7.1312,-8.9154,-8.9066,-8.8497,-8.7934,-8.7305,-8.6051,-8.4543,-8.2914,-8.2776,-8.2362,-8.181,-8.1776,-8.1776,-8.1776,-8.1776,-8.1776,-8.1776,-8.1776,-8.1776,-8.1776,-8.1776,-8.1776,-8.1776,-8.1776,-8.1328,-8.0396,-7.981,-7.9051,-7.8154,-7.7534,-7.7223,-7.7223,-7.7223,-7.7223,-7.7223,0.0,0.0,0.0,-7.6771,-7.6541,-7.6402,-7.5994,-7.5757,-7.5709,-7.5676,0.0,-7.5676,-7.5676,-7.5676,-7.5676,-7.5676,0.0,0.0,0.0,0.0,0.0,0.0,0.0,0.0,0.0,0.0,0.0,-7.5608,-7.5676,-7.5676,-7.5676,-7.5676,-7.5676,-7.5676,-7.5676,-7.5676,-7.5676,-7.5676,-7.5676,-7.5676,-7.5642,-7.5506,-7.5473,-7.5405,-7.5303,-7.4762,-7.439,-7.4356,-7.3883,-7.351,-7.3544,-7.3375,-7.324,-7.3105,-7.209,-7.1379,-7.1312,-7.1413,-7.1582,-7.209,-7.2191,-7.2394,-7.2868,-7.3071,-7.3037,-7.3003,-7.3003,-7.28,-7.2326,-7.2191,-7.1988,-7.1481,-7.1312,-7.1379,-7.1312,-7.1312,-7.1312,-7.1312,-7.1312,-7.1312,-8.932,-8.9241,-8.8721,-8.8234,0.0,-8.6821,-8.5575,-8.3983,-8.3225,-8.25,-8.181,-8.1776,-8.1776,-8.1776,-8.1776,-8.1776,-8.1776,-8.1776,-8.1776,-8.1776,-8.1776,-8.1776,-8.1776,-8.1776,-8.1397,-8.0603,-7.9879,-7.912,-7.8396,-7.7603,-7.7223,-7.7223,-7.7223,-7.7223,-7.7223,-7.7223,-7.7223,-7.7223,-7.6953,-7.6816,-7.6645,-7.6414,-7.6228,-7.6088,-7.6088,0.0,0.0,0.0,0.0,0.0,0.0,0.0,0.0,-7.5676,0.0,-7.5676,-7.5676,-7.5676,-7.5676,-7.5676,-7.5676,-7.5676,-7.5676,-7.5676,-7.5676,-7.5676,-7.5676,-7.5676,-7.5676,-7.5676,-7.5676,-7.5676,-7.5676,-7.5676,-7.5676,-7.5676,-7.5676,-7.5676,-7.5676,-7.5676,-7.5371,-7.5168,-7.5134,-7.4864,-7.4593,-7.4559,-7.4255,-7.4052,-7.395,-7.3105,-7.2394,-7.2394,-7.236,-7.2529,-7.2834,-7.2935,-7.3037,-7.3409,-7.3477,-7.3477,-7.3477,-7.3477,-7.3341,-7.3003,-7.2935,-7.28,-7.2496,-7.2394,-7.2293,-7.1954,-7.1853,-7.1684,-7.1413,-7.1312,-7.1312,-8.932,-8.9277,-8.881,-8.8315,-8.7761,-8.7418,-8.6401,-8.488,-8.35,0.0,0.0,-8.1776,-8.1776,-8.1776,-8.1776,-8.1776,-8.1776,-8.1776,-8.1776,-8.1776,-8.1776,-8.1776,-8.1776,-8.1776,-8.1466,-8.081,-7.9948,-7.9189,-7.8568,-7.7672,-7.7223,-7.7223,-7.7223,-7.7223,-7.7223,-7.7223,-7.7223,-7.7178,-7.7178,-7.7009,-7.6793,-7.6748,-7.6645,-7.6495,-7.6495,-7.6402,-7.6169,-7.6122,-7.5994,-7.5805,-7.5709,-7.5757,-7.5757,-7.5757,-7.5757,-7.5757,-7.5723,-7.5676,-7.5676,-7.5676,-7.5676,-7.5676,-7.5676,-7.5676,-7.5676,-7.5676,-7.5676,-7.5676,-7.5676,-7.5676,-7.5676,-7.5676,-7.5676,-7.5676,-7.5676,-7.5676,-7.5676,-7.5676,-7.5676,-7.5676,-7.5676,-7.5676,-7.5676,-7.5642,-7.5676,-7.5608,-7.5134,-7.4796,-7.4695,-7.3984,-7.3341,-7.3341,-7.3274,-7.3443,-7.3646,-7.368,-7.3713,-7.395,-7.395,-7.3883,-7.3883,-7.3883,-7.3849,-7.3713,-7.368,-7.3612,-7.351,-7.3375,-7.3274,-7.2699,-7.2563,-7.236,-7.1718,-7.1515,-7.1481,-8.932,-8.932,-8.9233,-8.8667,-8.7808,-8.7761,-8.639,-8.4156,-8.3293,-8.25,-8.181,-8.1776,-8.1776,-8.1776,-8.1776,-8.1776,-8.1776,-8.1776,-8.1776,-8.1776,-8.1776,-8.1776,-8.1776,-8.1776,-8.1741,-8.1535,-8.0189,-7.9465,-7.9224,-7.7913,-7.7223,-7.7223,-7.7223,-7.7223,-7.7223,-7.7223,-7.7223,-7.7178,-7.6964,-7.6873,-7.6793,-7.6645,-7.6541,-7.6495,-7.6495,-7.6495,-7.6449,-7.6216,-7.6075,-7.6028,-7.5805,-7.5805,-7.5994,-7.5852,-7.5805,-7.6028,-7.5852,-7.5676,-7.5676,-7.5676,-7.5676,-7.5676,-7.5676,-7.5676,-7.5676,-7.5676,-7.5676,-7.5676,-7.5676,-7.5676,-7.5676,-7.5676,-7.5676,-7.5676,-7.5676,-7.5676,-7.5676,-7.5676,-7.5676,-7.5676,-7.5676,-7.5676,-7.5676,-7.5676,-7.5676,-7.5676,-7.554,-7.5506,-7.527,-7.4356,-7.3578,-7.3477,-7.3477,-7.3747,-7.4289,-7.4458,-7.4661,-7.5303,-7.527,-7.5202,-7.5202,-7.5202,-7.4999,-7.4559,-7.4458,-7.4255,-7.3713,-7.3477,-7.351,-7.3375,-7.3341,-7.3071,-7.2394,-7.2225,-7.2022,-8.932,-8.932,-8.932,-8.889,-8.8143,-8.762,-8.6129,-8.4018,-8.3673,-8.2845,-8.1845,-8.1776,-8.1776,-8.1776,-8.1776,-8.1776,-8.1776,-8.1776,-8.1776,-8.1776,-8.1776,-8.1776,-8.1776,-8.1776,-8.1776,-8.1707,-8.0638,-7.9913,-7.9431,-7.8396,-7.7637,-7.7258,-7.7223,-7.7223,-7.7223,-7.7223,-7.7223,-7.7178,-7.7054,-7.7009,-7.7009,-7.6953,-7.6862,-7.6907,-7.6862,-7.6782,-7.6691,-7.6553,-7.6414,-7.6309,-7.6216,-7.6182,-7.6309,-7.6216,-7.6182,-7.6309,-7.6182,-7.6135,-7.6135,-7.5994,-7.5852,-7.5709,-7.5676,-7.5676,-7.5676,-7.5676,-7.5676,-7.5676,-7.5676,-7.5676,-7.5676,-7.5676,-7.5676,-7.5676,-7.5676,-7.5676,-7.5676,-7.5676,-7.5676,-7.5676,-7.5676,-7.5676,-7.5676,-7.5676,-7.5676,-7.5676,-7.5676,-7.5676,-7.5676,-7.5134,-7.4695,-7.4695,-7.4695,-7.483,-7.5134,-7.5202,-7.5371,-7.5676,-7.5676,-7.5676,-7.5676,-7.5676,-7.554,-7.5303,-7.5202,-7.5067,-7.4661,-7.4695,-7.4525,-7.4153,-7.4086,-7.3781,-7.3206,-7.2699,-7.2157,-8.932,-8.932,-8.932,-8.9023,-8.8416,-8.762,-8.622,-8.4488,-8.4281,-8.3355,-8.2121,-8.1914,-8.1776,-8.1776,-8.1776,-8.1776,-8.1776,-8.1776,-8.1776,-8.1776,-8.1776,-8.1776,-8.1776,-8.1776,-8.1776,-8.1707,-8.1017,-8.0224,-7.95,-7.8775,-7.8017,-7.7292,-7.7223,-7.7223,-7.7223,-7.7223,-7.7223,-7.7223,-7.7223,-7.7223,-7.7223,-7.7223,-7.7178,-7.7223,-7.7178,-7.7133,-7.6918,-7.6839,-7.6702,-7.6553,-7.6541,-7.6495,-7.6587,-7.6541,-7.6541,-7.6541,-7.6541,-7.6495,-7.6495,-7.6216,-7.5947,-7.5805,-7.5757,-7.5676,-7.5676,-7.5676,-7.5676,-7.5676,-7.5676,-7.5676,-7.5676,-7.5676,-7.5676,-7.5676,-7.5676,-7.5676,-7.5676,-7.5676,-7.5676,-7.5676,-7.5676,-7.5676,-7.5676,-7.5676,-7.5676,-7.5676,-7.5676,-7.5676,-7.5676,-7.5676,-7.5676,-7.5676,-7.5676,-7.5642,-7.5676,-7.5676,-7.5676,-7.5676,-7.5676,-7.5676,-7.5676,-7.5676,-7.5676,-7.5642,-7.5642,-7.5608,-7.5676,-7.5642,-7.5405,-7.4965,-7.4864,-7.4593,-7.3916,-7.3172,-7.2462,-8.932,-8.932,-8.932,-8.9023,-8.8461,-8.7994,-8.6941,-8.5711,-8.5016,-8.4002,-8.2742,-8.2121,-8.1776,-8.1776,-8.1776,-8.1776,-8.1776,-8.1776,-8.1776,-8.1776,-8.1776,-8.1776,-8.1776,-8.1776,-8.1776,-8.1707,-8.1017,-8.0293,-7.95,-7.8741,-7.8017,-7.7327,-7.7223,-7.7223,-7.7223,-7.7223,-7.7223,-7.7223,-7.7223,-7.7223,-7.7223,-7.7223,-7.7223,-7.7223,-7.7223,-7.7178,-7.7133,-7.6918,-7.6793,-7.6748,-7.6633,-7.6587,-7.6736,-7.6633,-7.6587,-7.6782,-7.6633,-7.6495,-7.6495,-7.6041,-7.5852,-7.6028,-7.5852,-7.5676,-7.5709,-7.5709,-7.5676,-7.5676,-7.5676,-7.5676,-7.5676,-7.5676,-7.5676,-7.5676,-7.5676,-7.5676,-7.5676,-7.5676,-7.5676,-7.5676,-7.5676,-7.5676,-7.5676,-7.5676,-7.5676,-7.5676,-7.5676,-7.5676,-7.5676,-7.5676,-7.5676,-7.5676,-7.5676,-7.5676,-7.5676,-7.5676,-7.5676,-7.5676,-7.5676,-7.5676,-7.5676,-7.5676,-7.5676,-7.5676,-7.5676,-7.5676,-7.5676,-7.5676,-7.5676,-7.5506,-7.5405,-7.5337,-7.4661,-7.3916,-7.3172,-8.932,-8.932,-8.932,-8.8978,-8.8506,-8.828,-8.7351,-8.5864,-8.5098,-8.4097,-8.2928,-8.2121,-8.1776,-8.1776,-8.1776,-8.1776,-8.1776,-8.1776,-8.1776,-8.1776,-8.1776,-8.1776,-8.1776,-8.1776,-8.1776,-8.1776,-8.1466,-8.0707,-7.95,-7.8292,-7.7534,-7.7258,-7.7223,-7.7223,-7.7223,-7.7223,-7.7223,-7.7223,-7.7223,-7.7223,-7.7223,-7.7223,-7.7223,-7.7223,-7.7223,-7.7223,-7.7178,-7.7088,-7.7009,-7.7009,-7.6953,-7.6953,-7.7009,-7.6953,-7.6953,-7.7009,-7.6953,-7.6862,-7.6691,-7.6461,-7.6368,-7.6356,-7.6262,-7.6088,-7.5947,-7.5947,-7.5852,-7.5757,-7.5676,-7.5676,-7.5676,-7.5676,-7.5676,-7.5676,-7.5676,-7.5676,-7.5676,-7.5676,-7.5676,-7.5676,-7.5676,-7.5676,-7.5676,-7.5676,-7.5676,-7.5676,-7.5676,-7.5676,-7.5676,-7.5676,-7.5676,-7.5676,-7.5676,-7.5676,-7.5676,-7.5676,-7.5676,-7.5676,-7.5676,-7.5676,-7.5676,-7.5676,-7.5676,-7.5676,-7.5676,-7.5676,-7.5676,-7.5676,-7.5676,-7.5676,-7.5676,-7.5574,-7.5303,-7.4661,-7.4052,-8.932,-8.932,-8.932,-8.9066,-8.8721,-8.8721,-8.7952,-8.6534,-8.545,-8.439,-8.3361,-8.2272,-8.1776,-8.1776,-8.1776,-8.1776,-8.1776,-8.1776,-8.1776,-8.1776,-8.1776,-8.1776,-8.1776,-8.1776,-8.1776,-8.1776,-8.1776,-8.0983,-7.9534,-7.8223,-7.743,-7.7213,-7.7223,-7.7223,-7.7223,-7.7223,-7.7223,-7.7223,-7.7223,-7.7223,-7.7223,-7.7223,-7.7223,-7.7223,-7.7223,-7.7223,-7.7223,-7.7223,-7.7223,-7.7178,-7.7223,-7.7223,-7.7223,-7.7223,-7.7223,-7.7178,-7.7133,-7.7088,-7.6884,-7.6748,-7.6691,-7.6587,-7.6541,-7.6402,-7.6262,-7.6169,-7.6028,-7.5852,-7.5757,-7.5676,-7.5676,-7.5676,-7.5676,-7.5676,-7.5676,-7.5676,-7.5676,-7.5676,-7.5676,-7.5676,-7.5676,-7.5676,-7.5676,-7.5676,-7.5676,-7.5676,-7.5676,-7.5676,-7.5676,-7.5676,-7.5676,-7.5676,-7.5676,-7.5676,-7.5676,-7.5676,-7.5676,-7.5676,-7.5676,-7.5676,-7.5676,-7.5676,-7.5676,-7.5676,-7.5676,-7.5676,-7.5676,-7.5676,-7.5676,-7.5676,-7.5676,-7.5676,-7.5608,-7.5168,-7.4864,-8.932,-8.932,-8.932,-8.9277,-8.9241,-8.9277,-8.8899,-8.8068,-8.6305,-8.5146,-8.4424,-8.2587,-8.1776,-8.1776,-8.1776,-8.1776,-8.1776,-8.1776,-8.1776,-8.1776,-8.1776,-8.1776,-8.1776,-8.1776,-8.1776,-8.1776,-8.1776,-8.1017,-7.9534,-7.8706,-7.7948,-7.7258,-7.7223,-7.7223,-7.7223,-7.7223,-7.7223,-7.7223,-7.7223,-7.7223,-7.7223,-7.7223,-7.7223,-7.7223,-7.7223,-7.7223,-7.7223,-7.7223,-7.7223,-7.7223,-7.7223,-7.7223,-7.7223,-7.7223,-7.7223,-7.7178,-7.6964,-7.6964,-7.7088,-7.6816,-7.6599,-7.6736,-7.6645,-7.6495,-7.6449,-7.6309,-7.6169,-7.6075,-7.5899,-7.5723,-7.5757,-7.5757,-7.5676,-7.5676,-7.5676,-7.5676,-7.5676,-7.5676,-7.5676,-7.5676,-7.5676,-7.5676,-7.5676,-7.5676,-7.5676,-7.5676,-7.5676,-7.5676,-7.5676,-7.5676,-7.5676,-7.5676,-7.5676,-7.5676,-7.5676,-7.5676,-7.5676,-7.5676,-7.5676,-7.5676,-7.5676,-7.5676,-7.5676,-7.5676,-7.5676,-7.5676,-7.5676,-7.5676,-7.5676,-7.5676,-7.5676,-7.5676,-7.5676,-7.5676,-7.5405,-8.932,-8.932,-8.932,-8.932,-8.932,-8.932,-8.9023,-8.832,-8.635,-8.5227,-8.4506,-8.2669,-8.1776,-8.1776,-8.1776,-8.1776,-8.1776,-8.1776,-8.1776,-8.1776,-8.1776,-8.1776,-8.1776,-8.1776,-8.1776,-8.1776,-8.1776,-8.1017,-7.9569,-7.8775,-7.7982,-7.7316,-7.7223,-7.7223,-7.7223,-7.7223,-7.7223,-7.7223,-7.7223,-7.7223,-7.7223,-7.7223,-7.7223,-7.7223,-7.7223,-7.7223,-7.7223,-7.7223,-7.7223,-7.7223,-7.7223,-7.7223,-7.7223,-7.7223,-7.7223,-7.7178,-7.7133,-7.7133,-7.7178,-7.7043,-7.6998,-7.7043,-7.6998,-7.6828,-7.6736,-7.6599,-7.6507,-7.6402,-7.6275,-7.6182,-7.6135,-7.5899,-7.5676,-7.5676,-7.5709,-7.5676,-7.5676,-7.5676,-7.5676,-7.5676,-7.5676,-7.5676,-7.5676,-7.5676,-7.5676,-7.5676,-7.5676,-7.5676,-7.5676,-7.5676,-7.5709,-7.5676,-7.5676,-7.5676,-7.5676,-7.5676,-7.5676,-7.5676,-7.5676,-7.5709,-7.5709,-7.5757,-7.5805,-7.5805,-7.5805,-7.5805,-7.5852,-7.5757,-7.5723,-7.5757,-7.5757,-7.5676,-7.5676,-7.5676,-7.5574,-8.932,-8.932,-8.932,-8.932,-8.932,-8.932,-8.911,-8.8579,-8.6858,-8.5701,-8.4775,-8.3147,-8.216,-8.181,-8.1776,-8.1776,-8.1776,-8.1776,-8.1776,-8.1776,-8.1776,-8.1776,-8.1776,-8.1776,-8.1776,-8.1776,-8.1776,-8.1086,-7.9913,-7.912,-7.8361,-7.7672,-7.7361,-7.7223,-7.7223,-7.7223,-7.7223,-7.7223,-7.7223,-7.7223,-7.7223,-7.7223,-7.7223,-7.7223,-7.7223,-7.7223,-7.7223,-7.7223,-7.7223,-7.7223,-7.7223,-7.7223,-7.7223,-7.7223,-7.7223,-7.7223,-7.7178,-7.7223,-7.7223,-7.7223,-7.7178,-7.7223,-7.7178,-7.7099,-7.6964,-7.6873,-7.6736,-7.6599,-7.6541,-7.6495,-7.6449,-7.6135,-7.5947,-7.5852,-7.5757,-7.5676,-7.5676,-7.5676,-7.5676,-7.5676,-7.5676,-7.5676,-7.5676,-7.5676,-7.5676,-7.5676,-7.5676,-7.5676,-7.5676,-7.5709,-7.5757,-7.5805,-7.5852,-7.5899,-7.5994,-7.6041,-7.5852,-7.5805,-7.5994,-7.5947,-7.5852,-7.5899,-7.5899,-7.5947,-7.5947,-7.5947,-7.5947,-7.5899,-7.5852,-7.5805,-7.5757,-7.5676,-7.5676,-7.5676,-7.5608,-8.932,-8.932,-8.932,-8.932,-8.932,-8.932,-8.932,-8.9011,-8.787,-8.6576,-8.5385,-8.4077,-8.2835,-8.1974,-8.1823,-8.1776,-8.1776,-8.1776,-8.1776,-8.1776,-8.1776,-8.1776,-8.1776,-8.1776,-8.1776,-8.1776,-8.1776,-8.1362,-8.0534,-7.9776,-7.9017,-7.8327,-7.7568,-7.7223,-7.7223,-7.7223,-7.7223,-7.7223,-7.7223,-7.7223,-7.7223,-7.7223,-7.7223,-7.7223,-7.7223,-7.7223,-7.7223,-7.7223,-7.7223,-7.7223,-7.7223,-7.7223,-7.7223,-7.7223,-7.7223,-7.7223,-7.7223,-7.7223,-7.7223,-7.7223,-7.7223,-7.7223,-7.7223,-7.7178,-7.7133,-7.6964,-7.6839,-7.6828,-7.6645,-7.6541,-7.6541,-7.6495,-7.6356,-7.6122,-7.5852,-7.5757,-7.5676,-7.5676,-7.5676,-7.5676,-7.5676,-7.5676,-7.5676,-7.5676,-7.5676,-7.5676,-7.5676,-7.5676,-7.5709,-7.5757,-7.5852,-7.6028,-7.6122,-7.6135,-7.6356,-7.6449,-7.6135,-7.5947,-7.6182,-7.6309,-7.6216,-7.6169,-7.6262,-7.6262,-7.6262,-7.6262,-7.6262,-7.6182,-7.6122,-7.6075,-7.5899,-7.5805,-7.5805,-7.5805,-7.5676,-8.932,-8.932,-8.932,-8.932,-8.932,-8.932,-8.932,-8.917,-8.7949,-8.6904,-8.5781,-8.433,-8.3103,-8.2349,-8.1965,-8.1776,-8.1776,-8.1776,-8.1776,-8.1776,-8.1776,-8.1776,-8.1776,-8.1776,-8.1776,-8.1776,-8.1776,-8.1397,-8.0638,-7.9879,-7.912,-7.8396,-7.7637,-7.7258,-7.7223,-7.7223,-7.7223,-7.7223,-7.7223,-7.7223,-7.7223,-7.7223,-7.7223,-7.7223,-7.7223,-7.7223,-7.7223,-7.7223,-7.7223,-7.7223,-7.7223,-7.7223,-7.7223,-7.7223,-7.7223,-7.7223,-7.7223,-7.7223,-7.7223,-7.7223,-7.7223,-7.7223,-7.7223,-7.7223,-7.7223,-7.7133,-7.7088,-7.7054,-7.7043,-7.6998,-7.6953,-7.6782,-7.6553,-7.6169,-7.6028,-7.5852,-7.5757,-7.5676,-7.5676,-7.5676,-7.5676,-7.5676,-7.5676,-7.5676,-7.5676,-7.5676,-7.5676,-7.5676,-7.5709,-7.5852,-7.5981,-7.6122,-7.6216,-7.6402,-7.6541,-7.6679,-7.6507,-7.6368,-7.6495,-7.6587,-7.6495,-7.6495,-7.6541,-7.6587,-7.6587,-7.6541,-7.6541,-7.6449,-7.6402,-7.6309,-7.6135,-7.6041,-7.5981,-7.5899,-7.5805,-8.932,-8.932,-8.932,-8.932,-8.932,-8.932,-8.932,-8.9206,-8.8481,-8.7409,-8.6153,-8.5099,-8.3886,-8.289,-8.2292,-8.2059,-8.2059,-8.1871,-8.1776,-8.1776,-8.1776,-8.1776,-8.1776,-8.1776,-8.1776,-8.1776,-8.1776,-8.1535,-8.1052,-8.0293,-7.9534,-7.881,-7.8051,-7.7499,-7.7258,-7.7223,-7.7223,-7.7223,-7.7223,-7.7223,-7.7223,-7.7223,-7.7223,-7.7223,-7.7223,-7.7223,-7.7223,-7.7223,-7.7223,-7.7223,-7.7223,-7.7223,-7.7223,-7.7223,-7.7223,-7.7223,-7.7223,-7.7223,-7.7223,-7.7223,-7.7223,-7.7223,-7.7223,-7.7223,-7.7223,-7.7223,-7.7223,-7.7223,-7.7178,-7.7223,-7.7178,-7.7054,-7.6782,-7.6414,-7.6216,-7.5994,-7.5757,-7.5676,-7.5676,-7.5676,-7.5676,-7.5676,-7.5676,-7.5676,-7.5676,-7.5676,-7.5676,-7.5676,-7.5757,-7.5899,-7.6075,-7.6262,-7.6461,-7.6633,-7.6771,-7.6862,-7.6873,-7.6862,-7.6816,-7.6771,-7.6645,-7.6771,-7.6862,-7.6862,-7.6862,-7.6907,-7.6862,-7.6691,-7.6599,-7.6461,-7.6368,-7.6262,-7.6122,-7.6028,-7.5899,-8.932,-8.932,-8.932,-8.932,-8.932,-8.932,-8.932,-8.932,-8.9241,-8.8133,-8.6612,-8.6126,-8.5049,-8.3524,-8.2831,-8.2488,-8.2396,-8.2106,-8.1823,-8.1776,-8.1776,-8.1776,-8.1776,-8.1776,-8.1776,-8.1776,-8.1776,-8.1776,-8.1638,-8.0879,-8.0293,-7.9569,-7.8741,-7.8051,-7.7499,-7.7292,-7.7223,-7.7223,-7.7223,-7.7223,-7.7223,-7.7223,-7.7223,-7.7223,-7.7223,-7.7223,-7.7223,-7.7223,-7.7223,-7.7223,-7.7223,-7.7223,-7.7223,-7.7223,-7.7223,-7.7223,-7.7223,-7.7223,-7.7223,-7.7223,-7.7223,-7.7223,-7.7223,-7.7223,-7.7223,-7.7223,-7.7223,-7.7223,-7.7223,-7.7223,-7.7178,-7.7178,-7.7009,-7.6748,-7.6368,-7.6041,-7.5771,-7.5805,-7.5852,-7.5805,-7.5757,-7.5757,-7.5805,-7.5805,-7.5805,-7.5805,-7.5852,-7.5852,-7.5899,-7.6088,-7.6262,-7.6495,-7.6691,-7.6828,-7.6998,-7.6998,-7.7043,-7.7043,-7.6998,-7.6953,-7.6873,-7.6998,-7.7088,-7.7088,-7.7088,-7.7133,-7.7133,-7.6918,-7.6828,-7.6782,-7.6645,-7.6414,-7.6275,-7.6182,-7.6122,-8.932,-8.932,-8.932,-8.932,-8.932,-8.932,-8.932,-8.932,-8.932,-8.8627,-8.7528,-8.6585,-8.5631,-8.4537,-8.3463,-8.2851,-8.2579,-8.235,-8.2106,-8.1823,-8.1776,-8.1776,-8.1776,-8.1776,-8.1776,-8.1776,-8.1776,-8.1776,-8.1741,-8.1052,-8.0534,-8.0293,-7.912,-7.8361,-7.8051,-7.7534,-7.7258,-7.7223,-7.7223,-7.7223,-7.7223,-7.7223,-7.7223,-7.7223,-7.7223,-7.7223,-7.7223,-7.7223,-7.7223,-7.7223,-7.7223,-7.7223,-7.7223,-7.7223,-7.7223,-7.7223,-7.7223,-7.7223,-7.7223,-7.7223,-7.7223,-7.7223,-7.7223,-7.7223,-7.7223,-7.7223,-7.7223,-7.7223,-7.7223,-7.7223,-7.7223,-7.7223,-7.7054,-7.6793,-7.6553,-7.6356,-7.6309,-7.6309,-7.6309,-7.6309,-7.6228,-7.6262,-7.6262,-7.6262,-7.6228,-7.6262,-7.6262,-7.6262,-7.6228,-7.6368,-7.6599,-7.6736,-7.6918,-7.7088,-7.7178,-7.7178,-7.7178,-7.7178,-7.7133,-7.7133,-7.7088,-7.7133,-7.7178,-7.7178,-7.7178,-7.7178,-7.7178,-7.7133,-7.7088,-7.7054,-7.6873,-7.6645,-7.6599,-7.6553,-7.6402,-8.932,-8.932,-8.932,-8.932,-8.932,-8.932,-8.932,-8.932,-8.9285,-8.8856,-8.7993,-8.6994,-8.6083,-8.5295,-8.4086,-8.3385,-8.3075,-8.267,-8.235,-8.2106,-8.1871,-8.181,-8.1776,-8.1776,-8.1776,-8.1776,-8.1776,-8.1776,-8.1741,-8.1293,-8.0983,-8.0534,-7.9776,-7.9051,-7.8361,-7.8017,-7.7534,-7.7247,-7.7223,-7.7223,-7.7223,-7.7223,-7.7223,-7.7223,-7.7223,-7.7223,-7.7223,-7.7223,-7.7223,-7.7223,-7.7223,-7.7223,-7.7223,-7.7223,-7.7223,-7.7223,-7.7223,-7.7223,-7.7223,-7.7223,-7.7223,-7.7223,-7.7223,-7.7223,-7.7223,-7.7223,-7.7223,-7.7223,-7.7223,-7.7223,-7.7223,-7.7223,-7.7133,-7.7009,-7.6862,-7.6725,-7.6541,-7.6495,-7.6495,-7.6495,-7.6495,-7.6495,-7.6495,-7.6495,-7.6495,-7.6495,-7.6449,-7.6449,-7.6495,-7.6691,-7.6839,-7.6918,-7.7009,-7.7133,-7.7178,-7.7178,-7.7223,-7.7223,-7.7223,-7.7223,-7.7223,-7.7223,-7.7223,-7.7223,-7.7223,-7.7223,-7.7223,-7.7223,-7.7178,-7.7133,-7.7009,-7.6918,-7.6828,-7.6782,-7.6645,-8.932,-8.932,-8.932,-8.932,-8.932,-8.932,-8.932,-8.932,-8.932,-8.8928,-8.8214,-8.7429,-8.6631,-8.5817,-8.4889,-8.4145,-8.3989,-8.3358,-8.2861,-8.2544,-8.2211,-8.2012,-8.1776,-8.1776,-8.1776,-8.1776,-8.1776,-8.1776,-8.1776,-8.1741,-8.1397,-8.0914,-8.0638,-7.9913,-7.9017,-7.8534,-7.8017,-7.7534,-7.7292,-7.7223,-7.7223,-7.7223,-7.7223,-7.7223,-7.7223,-7.7223,-7.7223,-7.7223,-7.7223,-7.7223,-7.7223,-7.7223,-7.7223,-7.7223,-7.7223,-7.7223,-7.7223,-7.7223,-7.7223,-7.7223,-7.7223,-7.7223,-7.7223,-7.7223,-7.7223,-7.7223,-7.7223,-7.7223,-7.7223,-7.7223,-7.7223,-7.7223,-7.7178,-7.7178,-7.7178,-7.6998,-7.6679,-7.6587,-7.6587,-7.6587,-7.6587,-7.6587,-7.6587,-7.6587,-7.6587,-7.6771,-7.6725,-7.6725,-7.6771,-7.6873,-7.6918,-7.6964,-7.7088,-7.7178,-7.7178,-7.7178,-7.7223,-7.7223,-7.7223,-7.7223,-7.7223,-7.7223,-7.7223,-7.7223,-7.7223,-7.7223,-7.7223,-7.7223,-7.7223,-7.7178,-7.7133,-7.7009,-7.6918,-7.6918,-7.6828,-8.932,-8.932,-8.932,-8.932,-8.932,-8.932,-8.932,-8.9285,-8.932,-8.9178,-8.8892,-8.8178,-8.74,-8.6614,-8.6127,-8.5522,-8.4742,-8.4549,-8.4225,-8.297,-8.2881,-8.2407,-8.2012,-8.1871,-8.1858,-8.1776,-8.1776,-8.1776,-8.1776,-8.1776,-8.1741,-8.15,-8.0948,-8.0465,-8.0051,-7.9017,-7.8361,-7.8051,-7.7568,-7.7292,-7.7223,-7.7223,-7.7223,-7.7223,-7.7223,-7.7223,-7.7223,-7.7223,-7.7223,-7.7223,-7.7223,-7.7223,-7.7223,-7.7223,-7.7223,-7.7223,-7.7223,-7.7223,-7.7223,-7.7223,-7.7223,-7.7223,-7.7223,-7.7223,-7.7223,-7.7223,-7.7223,-7.7223,-7.7223,-7.7223,-7.7223,-7.7223,-7.7223,-7.7223,-7.7178,-7.7178,-7.7043,-7.7043,-7.6998,-7.6998,-7.6998,-7.7043,-7.7043,-7.6998,-7.6998,-7.7043,-7.7043,-7.7043,-7.7043,-7.7043,-7.7043,-7.7043,-7.7088,-7.7223,-7.7223,-7.7223,-7.7223,-7.7223,-7.7223,-7.7223,-7.7223,-7.7223,-7.7223,-7.7223,-7.7223,-7.7223,-7.7223,-7.7223,-7.7223,-7.7223,-7.7223,-7.7133,-7.7054,-7.7054,-7.7054,-8.9457,-8.9719,-8.9719,-8.9887,-9.0058,-8.9845,-8.9719,-8.9671,-8.9371,-8.932,-8.9228,-8.869,-8.8069,-8.7326,-8.7092,-8.6452,-8.5682,-8.5348,-8.4876,-8.3981,-8.3727,-8.3235,-8.2691,-8.2691,-8.2691,-8.1977,-8.1776,-8.1776,-8.1776,-8.1823,-8.1776,-8.1776,-8.1362,-8.0948,-8.0638,-7.981,-7.912,-7.843,-7.8017,-7.7637,-7.7292,-7.7223,-7.7223,-7.7223,-7.7223,-7.7223,-7.7223,-7.7223,-7.7223,-7.7223,-7.7223,-7.7223,-7.7223,-7.7223,-7.7223,-7.7223,-7.7223,-7.7223,-7.7223,-7.7223,-7.7223,-7.7223,-7.7223,-7.7223,-7.7223,-7.7223,-7.7223,-7.7223,-7.7223,-7.7223,-7.7223,-7.7223,-7.7223,-7.7223,-7.7223,-7.7223,-7.7223,-7.7223,-7.7223,-7.7223,-7.7178,-7.7178,-7.7178,-7.7223,-7.7178,-7.7133,-7.7133,-7.7133,-7.7133,-7.7133,-7.7178,-7.7178,-7.7178,-7.7223,-7.7223,-7.7223,-7.7223,-7.7223,-7.7223,-7.7223,-7.7223,-7.7223,-7.7223,-7.7223,-7.7223,-7.7223,-7.7223,-7.7223,-7.7223,-7.7223,-7.7223,-7.7223,-7.7178,-7.7133,-7.7133,-8.9887,-9.0308,-9.0308,-9.0628,-9.0943,-9.0549,-9.0344,-9.0227,-8.9803,-8.9719,-8.9563,-8.9347,-8.9011,-8.8261,-8.8032,-8.7413,-8.661,-8.6101,-8.5618,-8.496,-8.472,-8.4106,-8.3634,-8.372,-8.3591,-8.2303,-8.2361,-8.2361,-8.2315,-8.2059,-8.2164,-8.2024,-8.1776,-8.1431,-8.0914,-8.0569,-8.0017,-7.9086,-7.8534,-7.8085,-7.7534,-7.7361,-7.7223,-7.7223,-7.7223,-7.7223,-7.7223,-7.7223,-7.7223,-7.7223,-7.7223,-7.7223,-7.7223,-7.7223,-7.7223,-7.7223,-7.7223,-7.7223,-7.7223,-7.7223,-7.7223,-7.7223,-7.7223,-7.7223,-7.7223,-7.7223,-7.7223,-7.7223,-7.7223,-7.7223,-7.7223,-7.7223,-7.7223,-7.7223,-7.7223,-7.7223,-7.7223,-7.7223,-7.7223,-7.7223,-7.7223,-7.7223,-7.7223,-7.7223,-7.7223,-7.7223,-7.7223,-7.7223,-7.7223,-7.7258,-7.7292,-7.7223,-7.7223,-7.7223,-7.7223,-7.7327,-7.7327,-7.7396,-7.7361,-7.7361,-7.7327,-7.7223,-7.7223,-7.7223,-7.7223,-7.7223,-7.7223,-7.7223,-7.7223,-7.7223,-7.7223,-7.7223,-7.7223,-7.7223,-7.7223,-9.0864,-9.0943,-9.098,-9.102,-9.1059,-9.1018,-9.098,-9.098,-9.0749,-9.0785,-9.0749,-9.0723,-9.0252,-8.9675,-8.9384,-8.863,-8.7623,-8.716,-8.6711,-8.5954,-8.5692,-8.5156,-8.4437,-8.4559,-8.4314,-8.4065,-8.3974,-8.3974,-8.3634,-8.3288,-8.2926,-8.2736,-8.2303,-8.1792,-8.1538,-8.1017,-8.0767,-8.0064,-7.9303,-7.8681,-7.829,-7.7682,-7.7292,-7.7258,-7.7223,-7.7223,-7.7223,-7.7223,-7.7223,-7.7223,-7.7223,-7.7223,-7.7223,-7.7223,-7.7223,-7.7223,-7.7223,-7.7223,-7.7223,-7.7223,-7.7223,-7.7223,-7.7223,-7.7223,-7.7223,-7.7268,-7.7411,-7.7367,-7.7278,-7.7223,-7.7223,-7.7268,-7.7223,-7.7223,-7.7223,-7.7223,-7.7223,-7.7223,-7.7223,-7.7223,-7.7223,-7.7223,-7.7223,-7.7223,-7.7223,-7.7223,-7.7223,-7.7223,-7.7223,-7.7292,-7.7361,-7.7292,-7.7223,-7.7223,-7.7223,-7.7361,-7.743,-7.7603,-7.7637,-7.7637,-7.7568,-7.7327,-7.7213,-7.7637,-7.7499,-7.7223,-7.7223,-7.7223,-7.7223,-7.7223,-7.7223,-7.7223,-7.7223,-7.7223,-7.7223,-9.1286,-9.1547,-9.1547,-9.1766,-9.2019,-9.1693,-9.1583,-9.151,-9.1249,-9.1097,-9.1173,-9.1362,-9.1144,-9.0554,-9.0165,-8.928,-8.8228,-8.7826,-8.7464,-8.6956,-8.6712,-8.6174,-8.5386,-8.554,-8.5425,-8.5348,-8.5463,-8.5192,-8.4437,-8.3981,-8.3805,-8.372,-8.3323,-8.2961,-8.2621,-8.262,-8.1987,-8.1389,-8.0583,-7.9956,-7.952,-7.847,-7.7706,-7.7327,-7.7258,-7.7223,-7.7223,-7.7223,-7.7223,-7.7223,-7.7223,-7.7223,-7.7223,-7.7223,-7.7223,-7.7223,-7.7223,-7.7223,-7.7223,-7.7223,-7.7223,-7.7223,-7.7223,-7.7223,-7.7357,-7.7588,-7.7996,-7.8209,-7.7465,-7.7597,-7.8427,-7.7728,-7.75,-7.7719,-7.7544,-7.7313,-7.7303,-7.7303,-7.7426,-7.7505,-7.7461,-7.7461,-7.7223,-7.7223,-7.7223,-7.7223,-7.7258,-7.7327,-7.7396,-7.7603,-7.7844,-7.7913,-7.7948,-7.8085,-7.8085,-7.8051,-7.8017,-7.8085,-7.812,-7.812,-7.8223,-7.8154,-7.8292,-7.8603,-7.8223,-7.7568,-7.7258,-7.7258,-7.7258,-7.7223,-7.7223,-7.7223,-7.7223,-7.7223,-7.7223,-9.1766,-9.2231,-9.2231,-9.251,-9.2851,-9.2405,-9.2231,-9.2089,-9.173,-9.1546,-9.1546,-9.1946,-9.1862,-9.1228,-9.0572,-8.9681,-8.8344,-8.8075,-8.7794,-8.7665,-8.7435,-8.6958,-8.6607,-8.6643,-8.6608,-8.6101,-8.6392,-8.6283,-8.5348,-8.4801,-8.468,-8.4559,-8.4518,-8.4142,-8.3599,-8.3783,-8.3351,-8.2857,-8.2177,-8.1747,-8.0692,-7.9608,-7.8359,-7.7623,-7.7609,-7.7663,-7.7258,-7.7223,-7.7223,-7.7223,-7.7223,-7.7223,-7.7223,-7.7223,-7.7313,-7.7411,-7.7313,-7.7223,-7.7223,-7.7223,-7.7223,-7.7223,-7.7367,-7.7456,-7.7685,-7.8294,-7.8963,-7.9289,-7.8759,-7.8217,-7.9089,-7.851,-7.8252,-7.8385,-7.8209,-7.7841,-7.8189,-7.838,-7.864,-7.8554,-7.811,-7.7821,-7.7663,-7.7637,-7.7741,-7.7913,-7.7982,-7.8223,-7.8292,-7.8465,-7.8637,-7.8741,-7.8879,-7.9155,-7.9155,-7.9051,-7.8982,-7.8913,-7.8948,-7.8948,-7.912,-7.9258,-7.9362,-7.9304,-7.8775,-7.8154,-7.7741,-7.7292,-7.7258,-7.7223,-7.7223,-7.7223,-7.7223,-7.7223,-7.7223,-9.2818,-9.2888,-9.2851,-9.2955,-9.2988,-9.2851,-9.2888,-9.2818,-9.2717,-9.2785,-9.2579,-9.2785,-9.2744,-9.2258,-9.1028,-9.0016,-8.9161,-8.835,-8.7958,-8.7826,-8.7697,-8.7468,-8.7166,-8.7166,-8.7064,-8.6749,-8.6891,-8.6925,-8.6356,-8.5767,-8.5578,-8.5463,-8.496,-8.4355,-8.4349,-8.464,-8.4319,-8.3987,-8.3488,-8.2484,-8.114,-8.0638,-7.974,-7.8979,-7.892,-7.8823,-7.7875,-7.7683,-7.7604,-7.7411,-7.7313,-7.7268,-7.7223,-7.7223,-7.7676,-7.7858,-7.7719,-7.7223,-7.7402,-7.75,-7.75,-7.7685,-7.7988,-7.8252,-7.8635,-7.8968,-7.9526,-7.9608,-7.9369,-7.9558,-7.9944,-7.9597,-7.9522,-7.9625,-7.9644,-7.9772,-8.0065,-7.9787,-8.0046,-8.0341,-8.0175,-7.9006,-7.8258,-7.8252,-7.8292,-7.8499,-7.8706,-7.8913,-7.912,-7.9258,-7.9603,-7.9776,-7.9844,-8.0051,-8.0189,-8.0086,-7.9982,-7.9844,-7.9844,-7.9844,-8.0017,-8.012,-7.9868,-7.9695,-7.9281,-7.8946,-7.8643,-7.8183,-7.7554,-7.7223,-7.7223,-7.7223,-7.7223,-7.7223,-7.7223,-9.2988,-9.2988,-9.2988,-9.2988,-9.2988,-9.2988,-9.2988,-9.2988,-9.2988,-9.2988,-9.2988,-9.2988,-9.2728,-9.2171,-9.0982,-9.0053,-8.9273,-8.8493,-8.8053,-8.7921,-8.7826,-8.7697,-8.7534,-8.7368,-8.7237,-8.7169,-8.7066,-8.6997,-8.6856,-8.6679,-8.6428,-8.6356,-8.6027,-8.5616,-8.527,-8.5616,-8.5502,-8.5204,-8.4718,-8.3825,-8.2648,-8.2111,-8.1668,-8.0584,-8.0848,-8.0306,-7.9528,-7.931,-7.9028,-7.8776,-7.86,-7.8635,-7.8635,-7.8676,-7.8846,-7.9009,-7.8882,-7.8676,-7.8641,-7.8635,-7.851,-7.8635,-7.9004,-7.9369,-7.9721,-7.9834,-8.0363,-8.1054,-8.0216,-8.0358,-8.12,-8.0863,-8.1148,-8.1291,-8.1255,-8.135,-8.1598,-8.1548,-8.1529,-8.1898,-8.212,-8.1135,-8.0239,-8.0104,-8.0089,-7.9905,-7.9813,-7.9625,-7.9776,-7.9879,-8.0327,-8.0879,-8.0914,-8.0983,-8.1052,-8.1052,-8.1052,-8.0948,-8.0948,-8.0948,-8.0948,-8.0926,-8.0859,-8.0777,-8.0593,-8.0244,-7.9684,-7.8757,-7.7889,-7.7499,-7.7223,-7.7223,-7.7223,-7.7223,-7.7223,-9.2988,-9.2988,-9.2988,-9.2988,-9.2988,-9.2988,-9.2988,-9.2988,-9.2988,-9.2988,-9.2988,-9.2988,-9.2616,-9.1948,-9.1242,-9.0462,-8.9607,-8.8753,-8.8307,-8.8127,-8.7958,-8.7863,-8.7697,-8.7501,-8.7368,-8.7305,-8.7169,-8.7064,-8.7031,-8.6925,-8.6891,-8.7031,-8.6786,-8.6572,-8.6356,-8.6428,-8.65,-8.6028,-8.5693,-8.4951,-8.4087,-8.39,-8.3276,-8.2731,-8.2453,-8.2245,-8.137,-8.1109,-8.0713,-8.0103,-7.9921,-7.9772,-7.9562,-7.9448,-7.9647,-7.9949,-8.0092,-8.0498,-8.0314,-8.013,-7.9834,-7.9795,-8.0316,-8.0724,-8.1382,-8.1056,-8.1236,-8.2724,-8.1994,-8.232,-8.2892,-8.2469,-8.265,-8.2939,-8.3047,-8.2965,-8.2956,-8.3106,-8.3546,-8.4167,-8.4313,-8.3982,-8.3158,-8.2526,-8.204,-8.1522,-8.0999,-8.0598,-8.065,-8.0916,-8.1031,-8.1631,-8.1478,-8.1478,-8.15,-8.1638,-8.1741,-8.1871,-8.1871,-8.199,-8.1979,-8.2129,-8.2262,-8.2112,-8.2018,-8.1294,-8.0648,-7.9361,-7.8189,-7.7637,-7.7223,-7.7223,-7.7223,-7.7223,-7.7223,-9.2988,-9.2988,-9.2988,-9.2988,-9.2988,-9.2988,-9.2988,-9.2988,-9.2988,-9.2988,-9.2988,-9.2988,-9.2951,-9.2616,-9.1873,-9.1093,-9.0387,-8.957,-8.8864,-8.8344,-8.8053,-8.799,-8.7826,-8.773,-8.7567,-8.7368,-8.7234,-8.7132,-8.7029,-8.6995,-8.7031,-8.7031,-8.7031,-8.696,-8.6856,-8.6856,-8.696,-8.6572,-8.6174,-8.5842,-8.5473,-8.5325,-8.4771,-8.3879,-8.3898,-8.3725,-8.2199,-8.2245,-8.1965,-8.1251,-8.1179,-8.0964,-8.0717,-8.0572,-8.0834,-8.1238,-8.1708,-8.2141,-8.2319,-8.1345,-8.0095,-8.024,-8.1088,-8.2285,-8.2918,-8.3817,-8.4282,-8.4098,-8.3433,-8.3864,-8.4288,-8.44,-8.4233,-8.4456,-8.4642,-8.4716,-8.4791,-8.5043,-8.5514,-8.6383,-8.6277,-8.5627,-8.541,-8.4634,-8.3797,-8.3258,-8.2862,-8.2451,-8.2366,-8.2514,-8.2115,-8.2199,-8.1908,-8.1802,-8.1741,-8.1823,-8.1871,-8.2071,-8.2164,-8.2555,-8.2855,-8.3147,-8.3288,-8.3649,-8.3458,-8.2468,-8.1422,-8.0194,-7.897,-7.7772,-7.7223,-7.7223,-7.7223,-7.7223,-7.7223,-9.2988,-9.2988,-9.2988,-9.2988,-9.2988,-9.2988,-9.2988,-9.2988,-9.2988,-9.2988,-9.2988,-9.2988,-9.2988,-9.2765,-9.2133,-9.1539,-9.1056,-8.983,-8.9236,-8.8753,-8.8418,-8.8127,-8.7958,-8.7826,-8.7697,-8.7567,-8.7402,-8.7268,-8.7166,-8.7098,-8.7031,-8.7031,-8.7031,-8.6997,-8.7031,-8.7031,-8.7031,-8.6925,-8.6679,-8.6536,-8.65,-8.6464,-8.621,-8.5774,-8.5737,-8.5516,-8.4573,-8.4428,-8.3883,-8.3374,-8.3121,-8.2758,-8.2468,-8.2432,-8.261,-8.2892,-8.3328,-8.3717,-8.3961,-8.3183,-8.2792,-8.2792,-8.3329,-8.379,-8.4168,-8.4499,-8.4572,-8.4572,-8.4719,-8.4903,-8.5306,-8.5343,-8.5422,-8.5859,-8.6114,-8.6151,-8.6224,-8.6334,-8.6444,-8.6779,-8.6889,-8.6638,-8.6567,-8.6533,-8.5736,-8.499,-8.4657,-8.4314,-8.4065,-8.3805,-8.3375,-8.2926,-8.2691,-8.2315,-8.2257,-8.2118,-8.2024,-8.2315,-8.26,-8.3147,-8.3677,-8.3854,-8.4106,-8.4599,-8.4809,-8.3848,-8.2648,-8.1113,-7.9705,-7.8231,-7.754,-7.7223,-7.7223,-7.7154,-7.6972,-9.2988,-9.2988,-9.2988,-9.2988,-9.2988,-9.2988,-9.2988,-9.2988,-9.2988,-9.2988,-9.2988,-9.2988,-9.2988,-9.2802,-9.2431,-9.1873,-9.1465,-9.061,-8.983,-8.9236,-8.8753,-8.8344,-8.8127,-8.799,-8.7826,-8.7799,-8.7637,-8.7472,-8.7335,-8.72,-8.7166,-8.7098,-8.7064,-8.71,-8.7031,-8.7031,-8.7031,-8.7031,-8.7031,-8.7031,-8.696,-8.696,-8.6925,-8.6817,-8.6817,-8.6634,-8.6088,-8.587,-8.5539,-8.506,-8.4767,-8.4725,-8.4649,-8.4609,-8.4609,-8.4682,-8.4829,-8.4939,-8.4939,-8.4719,-8.4609,-8.422,-8.4657,-8.4869,-8.4976,-8.5123,-8.5563,-8.549,-8.5416,-8.5527,-8.6114,-8.6187,-8.6261,-8.6554,-8.6628,-8.6701,-8.6738,-8.6811,-8.6848,-8.696,-8.7031,-8.7031,-8.696,-8.6891,-8.657,-8.5992,-8.5917,-8.5425,-8.488,-8.464,-8.4355,-8.3897,-8.3505,-8.3147,-8.2781,-8.2961,-8.3147,-8.3279,-8.3591,-8.3981,-8.4437,-8.464,-8.5078,-8.5692,-8.5696,-8.5106,-8.396,-8.2473,-8.054,-7.8563,-7.79,-7.7223,-7.6775,-7.6637,-7.642,-9.2988,-9.2988,-9.2988,-9.2988,-9.2988,-9.2988,-9.2988,-9.2988,-9.2988,-9.2988,-9.2988,-9.2988,-9.2988,-9.2951,-9.2802,-9.2431,-9.1948,-9.1539,-9.0833,-8.9793,-8.9198,-8.879,-8.8381,-8.8127,-8.799,-8.7826,-8.7697,-8.76,-8.7497,-8.7431,-8.7365,-8.7268,-8.7203,-8.7132,-8.7031,-8.7031,-8.7031,-8.7031,-8.7031,-8.7031,-8.7031,-8.7031,-8.7031,-8.7031,-8.7031,-8.6885,-8.6811,-8.6738,-8.6371,-8.593,-8.5783,-8.5527,-8.5086,-8.4976,-8.4939,-8.4903,-8.5453,-8.571,-8.571,-8.5049,-8.4939,-8.5013,-8.5563,-8.5747,-8.593,-8.6297,-8.6664,-8.6371,-8.6591,-8.6701,-8.6921,-8.6921,-8.6921,-8.6958,-8.6995,-8.7031,-8.7031,-8.7031,-8.7031,-8.7031,-8.7031,-8.7031,-8.7031,-8.6997,-8.6997,-8.6891,-8.6925,-8.6572,-8.5841,-8.554,-8.5273,-8.4801,-8.4355,-8.3981,-8.3762,-8.4058,-8.4225,-8.4314,-8.4518,-8.488,-8.5273,-8.5578,-8.6101,-8.6749,-8.6533,-8.5956,-8.4972,-8.3807,-8.1386,-7.9037,-7.7831,-7.7085,-7.6568,-7.6189,-7.611,-9.2988,-9.2988,-9.2988,-9.2988,-9.2988,-9.2988,-9.2988,-9.2988,-9.2988,-9.2988,-9.2988,-9.2988,-9.2988,-9.2988,-9.2988,-9.2802,-9.2505,-9.1799,-9.1093,-9.0833,-8.9904,-8.9273,-8.879,-8.8381,-8.809,-8.799,-8.7858,-8.7794,-8.7697,-8.7595,-8.7431,-8.7301,-8.7237,-8.7064,-8.7031,-8.7031,-8.7031,-8.7031,-8.7031,-8.7031,-8.7031,-8.7031,-8.7031,-8.7031,-8.7031,-8.7031,-8.7031,-8.7031,-8.6811,-8.6554,-8.6481,-8.6334,-8.6077,-8.604,-8.6077,-8.6114,-8.6554,-8.6591,-8.6591,-8.6297,-8.6261,-8.6261,-8.6297,-8.6518,-8.6664,-8.6811,-8.6995,-8.7031,-8.7031,-8.7031,-8.6995,-8.6995,-8.6995,-8.6995,-8.7031,-8.7031,-8.7031,-8.7031,-8.7031,-8.7031,-8.7031,-8.7031,-8.7031,-8.7031,-8.7031,-8.7031,-8.7031,-8.7031,-8.6501,-8.6392,-8.6247,-8.5654,-8.5195,-8.484,-8.472,-8.488,-8.5114,-8.527,-8.5425,-8.5692,-8.6064,-8.6356,-8.6572,-8.6891,-8.6889,-8.6744,-8.5479,-8.3991,-8.1588,-7.9528,-7.8267,-7.7254,-7.6775,-7.6361,-7.612,-9.2988,-9.2988,-9.2988,-9.2988,-9.2988,-9.2988,-9.2988,-9.2988,-9.2988,-9.2988,-9.2988,-9.2988,-9.2988,-9.2988,-9.2988,-9.2988,-9.2914,-9.2468,-9.1799,-9.165,-9.0722,-8.9904,-8.9273,-8.8753,-8.8418,-8.8201,-8.799,-8.7889,-8.7927,-8.7794,-8.7665,-8.7468,-8.7237,-8.7132,-8.7135,-8.7066,-8.7031,-8.7031,-8.7031,-8.7031,-8.7031,-8.7031,-8.7031,-8.7031,-8.7031,-8.7031,-8.7031,-8.7031,-8.7031,-8.7031,-8.7031,-8.7031,-8.7031,-8.7031,-8.7031,-8.7031,-8.7031,-8.6995,-8.6958,-8.6921,-8.6811,-8.6885,-8.7031,-8.7031,-8.7031,-8.6995,-8.6995,-8.7031,-8.7031,-8.7031,-8.7031,-8.7031,-8.7031,-8.7031,-8.7031,-8.7031,-8.7031,-8.7031,-8.7031,-8.7031,-8.7031,-8.7031,-8.7031,-8.7031,-8.7031,-8.7031,-8.7031,-8.7031,-8.7031,-8.6925,-8.6856,-8.6392,-8.6064,-8.5878,-8.5654,-8.5692,-8.5916,-8.6101,-8.6211,-8.6356,-8.6536,-8.6749,-8.6891,-8.7031,-8.696,-8.6634,-8.5691,-8.4028,-8.1937,-8.0061,-7.8596,-7.7676,-7.7012,-7.6464,-7.5982,-9.2988,-9.2988,-9.2988,-9.2988,-9.2988,-9.2988,-9.2988,-9.2988,-9.2988,-9.2988,-9.2988,-9.2988,-9.2988,-9.2988,-9.2988,-9.2988,-9.2988,-9.2876,-9.2468,-9.1948,-9.1428,-9.061,-8.9867,-8.931,-8.8827,-8.8381,-8.809,-8.8021,-8.8084,-8.7958,-8.7863,-8.7734,-8.7402,-8.7301,-8.7237,-8.7169,-8.7066,-8.7031,-8.7031,-8.7031,-8.7031,-8.7031,-8.7031,-8.7031,-8.7031,-8.7031,-8.7031,-8.7031,-8.7031,-8.7031,-8.7031,-8.7031,-8.7031,-8.7031,-8.7031,-8.7031,-8.7031,-8.7031,-8.7031,-8.7031,-8.7031,-8.7031,-8.7031,-8.7031,-8.7031,-8.7031,-8.7031,-8.7031,-8.7031,-8.7031,-8.7031,-8.7031,-8.7031,-8.7031,-8.7031,-8.7031,-8.7031,-8.7031,-8.7031,-8.7031,-8.7031,-8.7031,-8.7031,-8.7031,-8.7031,-8.7031,-8.7031,-8.7031,-8.7031,-8.7031,-8.6925,-8.6925,-8.6714,-8.6856,-8.6679,-8.6392,-8.6392,-8.6572,-8.6679,-8.6786,-8.6997,-8.7031,-8.7031,-8.7031,-8.7031,-8.6485,-8.5358,-8.4061,-8.2501,-8.0766,-7.9155,-7.7977,-7.7232,-7.6129,-7.5464,-9.2988,-9.2988,-9.2988,-9.2988,-9.2988,-9.2988,-9.2988,-9.2988,-9.2988,-9.2988,-9.2988,-9.2988,-9.2988,-9.2988,-9.2988,-9.2988,-9.2988,-9.2951,-9.2876,-9.2505,-9.2022,-9.1502,-9.0759,-8.9942,-8.931,-8.8827,-8.8455,-8.8158,-8.8053,-8.799,-8.7889,-8.773,-8.7567,-8.7435,-8.7372,-8.7271,-8.7169,-8.7029,-8.7031,-8.7031,-8.7031,-8.7031,-8.7031,-8.7031,-8.7031,-8.7031,-8.7031,-8.7031,-8.7031,-8.7031,-8.7031,-8.7031,-8.7031,-8.7031,-8.7031,-8.7031,-8.7031,-8.7031,-8.7031,-8.7031,-8.7031,-8.7031,-8.7031,-8.7031,-8.7031,-8.7031,-8.7031,-8.7031,-8.7031,-8.7031,-8.7031,-8.7031,-8.7031,-8.7031,-8.7031,-8.7031,-8.7031,-8.7031,-8.7031,-8.7031,-8.7031,-8.7031,-8.7031,-8.7031,-8.7031,-8.7031,-8.7031,-8.7031,-8.7031,-8.7031,-8.7031,-8.7031,-8.7031,-8.7031,-8.7031,-8.6786,-8.6856,-8.6997,-8.7031,-8.7031,-8.7031,-8.7031,-8.7031,-8.7031,-8.7031,-8.6151,-8.4942,-8.3765,-8.2903,-8.138,-7.9839,-7.8541,-7.7355,-7.6487,-7.5647,-9.2988,-9.2988,-9.2988,-9.2988,-9.2988,-9.2988,-9.2988,-9.2988,-9.2988,-9.2988,-9.2988,-9.2988,-9.2988,-9.2988,-9.2988,-9.2988,-9.2988,-9.2988,-9.2951,-9.2802,-9.2431,-9.1985,-9.1353,-9.0722,-8.9979,-8.9384,-8.8827,-8.8455,-8.8164,-8.8021,-8.7927,-8.7889,-8.773,-8.76,-8.7501,-8.7435,-8.7268,-8.7132,-8.7029,-8.7031,-8.7031,-8.7031,-8.7031,-8.7031,-8.7031,-8.7031,-8.7031,-8.7031,-8.7031,-8.7031,-8.7031,-8.7031,-8.7031,-8.7031,-8.7031,-8.7031,-8.7031,-8.7031,-8.7031,-8.7031,-8.7031,-8.7031,-8.7031,-8.7031,-8.7031,-8.7031,-8.7031,-8.7031,-8.7031,-8.7031,-8.7031,-8.7031,-8.7031,-8.7031,-8.7031,-8.7031,-8.7031,-8.7031,-8.7031,-8.7031,-8.7031,-8.7031,-8.7031,-8.7031,-8.7031,-8.7031,-8.7031,-8.7031,-8.7031,-8.7031,-8.7031,-8.7031,-8.7031,-8.7031,-8.7031,-8.7031,-8.7031,-8.7031,-8.7031,-8.7031,-8.7031,-8.7031,-8.7031,-8.7031,-8.7031,-8.6004,-8.4903,-8.4335,-8.3443,-8.1888,-8.0586,-7.9691,-7.8488,-7.737,-7.6601,-9.2988,-9.2988,-9.2988,-9.2988,-9.2988,-9.2988,-9.2988,-9.2988,-9.2988,-9.2988,-9.2988,-9.2988,-9.2988,-9.2988,-9.2988,-9.2988,-9.2988,-9.2988,-9.2988,-9.2988,-9.2876,-9.2505,-9.2096,-9.1613,-9.0647,-8.9793,-8.9161,-8.8716,-8.8233,-8.8053,-8.8053,-8.8084,-8.7927,-8.7799,-8.7697,-8.76,-8.7468,-8.7301,-8.7132,-8.7029,-8.7031,-8.7031,-8.7031,-8.7031,-8.7031,-8.7031,-8.7031,-8.7031,-8.7031,-8.7031,-8.7031,-8.7031,-8.7031,-8.7031,-8.7031,-8.7031,-8.7031,-8.7031,-8.7031,-8.7031,-8.7031,-8.7031,-8.7031,-8.7031,-8.7031,-8.7031,-8.7031,-8.7031,-8.7031,-8.7031,-8.7031,-8.7031,-8.7031,-8.7031,-8.7031,-8.7031,-8.7031,-8.7031,-8.7031,-8.7031,-8.7031,-8.7031,-8.7031,-8.7031,-8.7031,-8.7031,-8.7031,-8.7031,-8.7031,-8.7031,-8.7031,-8.7031,-8.7031,-8.7031,-8.7031,-8.7031,-8.7031,-8.7031,-8.7031,-8.7031,-8.7031,-8.7031,-8.7031,-8.7031,-8.6958,-8.604,-8.5126,-8.4552,-8.3649,-8.2059,-8.1054,-8.0695,-7.9741,-7.865,-7.7533,-9.2988,-9.2988,-9.2988,-9.2988,-9.2988,-9.2988,-9.2988,-9.2988,-9.2988,-9.2988,-9.2988,-9.2988,-9.2988,-9.2988,-9.2988,-9.2988,-9.2988,-9.2988,-9.2988,-9.2988,-9.2988,-9.2876,-9.2542,-9.2022,-9.1205,-9.035,-8.9607,-8.8901,-8.827,-8.8084,-8.8084,-8.8084,-8.8021,-8.7958,-8.7826,-8.773,-8.7632,-8.7468,-8.7335,-8.7166,-8.7064,-8.7031,-8.7031,-8.7031,-8.7031,-8.7031,-8.7031,-8.7031,-8.7031,-8.7031,-8.7031,-8.7031,-8.7031,-8.7031,-8.7031,-8.7031,-8.7031,-8.7031,-8.7031,-8.7031,-8.7031,-8.7031,-8.7031,-8.7031,-8.7031,-8.7031,-8.7031,-8.7031,-8.7031,-8.7031,-8.7031,-8.7031,-8.7031,-8.7031,-8.7031,-8.7031,-8.7031,-8.7031,-8.7031,-8.7031,-8.7031,-8.7031,-8.7031,-8.7031,-8.7031,-8.7031,-8.7031,-8.7031,-8.7031,-8.7031,-8.7031,-8.7031,-8.7031,-8.7031,-8.7031,-8.7031,-8.7031,-8.7031,-8.7031,-8.7031,-8.7031,-8.7031,-8.7031,-8.7031,-8.6811,-8.6004,-8.5306,-8.4722,-8.3673,-8.2223,-8.1681,-8.137,-8.123,-8.037,-7.8969,-9.2988,-9.2988,-9.2988,-9.2988,-9.2988,-9.2988,-9.2988,-9.2988,-9.2988,-9.2988,-9.2988,-9.2988,-9.2988,-9.2988,-9.2988,-9.2988,-9.2988,-9.2988,-9.2988,-9.2988,-9.2988,-9.2988,-9.2728,-9.2431,-9.1836,-9.1019,-8.9793,-8.8938,-8.827,-8.8084,-8.8084,-8.8084,-8.8084,-8.8053,-8.7927,-8.7927,-8.7826,-8.7628,-8.7534,-8.7402,-8.72,-8.7098,-8.7031,-8.7031,-8.7031,-8.7031,-8.7031,-8.7031,-8.7031,-8.7031,-8.7031,-8.7031,-8.7031,-8.7031,-8.7031,-8.7031,-8.7031,-8.7031,-8.7031,-8.7031,-8.7031,-8.7031,-8.7031,-8.7031,-8.7031,-8.7031,-8.7031,-8.7031,-8.7031,-8.7031,-8.7031,-8.7031,-8.7031,-8.7031,-8.7031,-8.7031,-8.7031,-8.7031,-8.7031,-8.7031,-8.7031,-8.7031,-8.7031,-8.7031,-8.7031,-8.7031,-8.7031,-8.7031,-8.7031,-8.7031,-8.7031,-8.7031,-8.7031,-8.7031,-8.7031,-8.7031,-8.7031,-8.7031,-8.7031,-8.7031,-8.7031,-8.7031,-8.7031,-8.7031,-8.6775,-8.6114,-8.549,-8.4866,-8.3801,-8.2385,-8.2125,-8.2051,-8.1952,-8.1748,-8.055,-9.2988,-9.2988,-9.2988,-9.2988,-9.2988,-9.2988,-9.2988,-9.2988,-9.2988,-9.2988,-9.2988,-9.2988,-9.2988,-9.2988,-9.2988,-9.2988,-9.2988,-9.2988,-9.2988,-9.2988,-9.2988,-9.2988,-9.2988,-9.2876,-9.2245,-9.1279,-9.0016,-8.9161,-8.8418,-8.8233,-8.8084,-8.8084,-8.8084,-8.8084,-8.8084,-8.8084,-8.799,-8.7895,-8.7762,-8.7697,-8.7468,-8.7234,-8.7098,-8.7066,-8.6995,-8.7031,-8.7031,-8.7031,-8.7031,-8.7031,-8.7031,-8.7031,-8.7031,-8.7031,-8.7031,-8.7031,-8.7031,-8.7031,-8.7031,-8.7031,-8.7031,-8.7031,-8.7031,-8.7031,-8.7031,-8.7031,-8.7031,-8.7031,-8.7031,-8.7031,-8.7031,-8.7031,-8.7031,-8.7031,-8.7031,-8.7031,-8.7031,-8.7031,-8.7031,-8.7031,-8.7031,-8.7031,-8.7031,-8.7031,-8.7031,-8.7031,-8.7031,-8.7031,-8.7031,-8.7031,-8.7031,-8.7031,-8.7031,-8.7031,-8.7031,-8.7031,-8.7031,-8.7031,-8.7031,-8.7031,-8.7031,-8.7031,-8.7031,-8.7031,-8.6664,-8.6261,-8.5563,-8.4866,-8.3691,-8.2627,-8.2296,-8.2186,-8.2154,-8.1952,-8.1748,-9.2988,-9.2988,-9.2988,-9.2988,-9.2988,-9.2988,-9.2988,-9.2988,-9.2988,-9.2988,-9.2988,-9.2988,-9.2988,-9.2988,-9.2988,-9.2988,-9.2988,-9.2988,-9.2988,-9.2988,-9.2988,-9.2988,-9.2988,-9.2951,-9.2431,-9.1465,-9.0313,-8.9384,-8.879,-8.8381,-8.8084,-8.8084,-8.8084,-8.8084,-8.8084,-8.8084,-8.8053,-8.799,-8.7895,-8.7794,-8.7697,-8.7468,-8.7305,-8.7203,-8.71,-8.7066,-8.7031,-8.7031,-8.7031,-8.7031,-8.7031,-8.7031,-8.7031,-8.7031,-8.7031,-8.7031,-8.7031,-8.7031,-8.7031,-8.7031,-8.7031,-8.7031,-8.7031,-8.7031,-8.7031,-8.7031,-8.7031,-8.7031,-8.7031,-8.7031,-8.7031,-8.7031,-8.7031,-8.7031,-8.7031,-8.7031,-8.7031,-8.7031,-8.7031,-8.7031,-8.7031,-8.7031,-8.7031,-8.7031,-8.7031,-8.7031,-8.7031,-8.7031,-8.7031,-8.7031,-8.7031,-8.7031,-8.7031,-8.7031,-8.7031,-8.7031,-8.7031,-8.7031,-8.7031,-8.7031,-8.7031,-8.7031,-8.7031,-8.7031,-8.6885,-8.6554,-8.582,-8.4939,-8.4168,-8.3177,-8.2517,-8.2223,-8.2186,-8.2154,-8.1952]},{"header":{"parameterUnit":"m.s-1","parameterCategory":1,"la1":31.0,"la2":29.5877,"lo1":-88.7671,"lo2":-86.6584,"dx":0.0162,"dy":0.0185,"nx":115,"ny":88,"refTime":"2023-02-09T06:00:00:Z","depth":0,"parameterNumber":3,"parameterNumberName":"V-component_of_WINDS"},"data":[0.0,0.0,0.0,0.0,0.0,0.0,0.0,0.0,0.0,0.0,0.0,0.0,0.0,0.0,0.0,0.0,0.0,0.0,0.0,0.0,0.0,0.0,0.0,0.0,0.0,0.0,0.0,0.0,0.0,0.0,0.0,0.0,0.0,0.0,0.0,0.0,0.0,0.0,0.0,0.0,0.0,0.0,0.0,0.0,0.0,0.0,0.0,0.0,0.0,0.0,0.0,0.0,0.0,0.0,0.0,0.0,0.0,0.0,0.0,0.0,0.0,0.0,0.0,0.0,0.0,0.0,0.0,0.0,0.0,0.0,0.0,0.0,0.0,0.0,0.0,0.0,0.0,0.0,0.0,0.0,0.0,0.0,0.0,0.0,0.0,0.0,0.0,0.0,0.0,0.0,0.0,0.0,0.0,0.0,0.0,0.0,0.0,0.0,0.0,0.0,0.0,0.0,0.0,0.0,0.0,0.0,0.0,0.0,0.0,0.0,0.0,0.0,0.0,0.0,0.0,0.0,0.0,0.0,0.0,0.0,0.0,0.0,0.0,0.0,0.0,0.0,0.0,0.0,0.0,0.0,0.0,0.0,0.0,0.0,0.0,0.0,0.0,0.0,0.0,0.0,0.0,0.0,0.0,0.0,0.0,0.0,0.0,0.0,0.0,0.0,0.0,0.0,0.0,0.0,0.0,0.0,0.0,0.0,0.0,0.0,0.0,0.0,0.0,0.0,0.0,0.0,0.0,0.0,0.0,0.0,0.0,0.0,0.0,0.0,0.0,0.0,0.0,0.0,0.0,0.0,0.0,0.0,0.0,0.0,0.0,0.0,0.0,0.0,0.0,0.0,0.0,0.0,0.0,0.0,0.0,0.0,0.0,0.0,0.0,0.0,0.0,0.0,0.0,0.0,0.0,0.0,0.0,0.0,0.0,0.0,0.0,0.0,0.0,0.0,0.0,0.0,0.0,0.0,0.0,0.0,0.0,0.0,0.0,0.0,0.0,0.0,0.0,0.0,0.0,0.0,0.0,0.0,0.0,0.0,0.0,0.0,0.0,0.0,0.0,0.0,0.0,0.0,0.0,0.0,0.0,0.0,0.0,0.0,0.0,0.0,0.0,0.0,0.0,0.0,0.0,0.0,0.0,0.0,0.0,0.0,0.0,0.0,0.0,0.0,0.0,0.0,0.0,0.0,0.0,0.0,0.0,0.0,0.0,0.0,0.0,0.0,0.0,0.0,0.0,0.0,0.0,0.0,0.0,0.0,0.0,0.0,0.0,0.0,0.0,0.0,0.0,0.0,0.0,0.0,0.0,0.0,0.0,0.0,0.0,0.0,0.0,0.0,0.0,0.0,0.0,0.0,0.0,0.0,0.0,0.0,0.0,0.0,0.0,0.0,0.0,0.0,0.0,0.0,0.0,0.0,0.0,0.0,0.0,0.0,0.0,0.0,0.0,0.0,0.0,0.0,0.0,0.0,0.0,0.0,0.0,0.0,0.0,0.0,0.0,0.0,0.0,0.0,0.0,0.0,0.0,0.0,0.0,0.0,0.0,0.0,0.0,0.0,0.0,0.0,0.0,0.0,0.0,0.0,0.0,0.0,0.0,0.0,0.0,0.0,0.0,0.0,0.0,0.0,0.0,0.0,0.0,0.0,0.0,0.0,0.0,0.0,0.0,0.0,0.0,0.0,0.0,0.0,0.0,0.0,0.0,0.0,0.0,0.0,0.0,0.0,0.0,0.0,0.0,0.0,0.0,0.0,0.0,0.0,0.0,0.0,0.0,0.0,0.0,0.0,0.0,0.0,0.0,0.0,0.0,0.0,0.0,0.0,0.0,0.0,0.0,0.0,0.0,0.0,0.0,0.0,0.0,0.0,0.0,0.0,0.0,0.0,0.0,0.0,0.0,0.0,0.0,0.0,0.0,0.0,0.0,0.0,0.0,0.0,0.0,0.0,0.0,0.0,0.0,0.0,0.0,0.0,0.0,0.0,0.0,0.0,0.0,0.0,0.0,0.0,0.0,0.0,0.0,0.0,0.0,0.0,0.0,0.0,0.0,0.0,0.0,0.0,0.0,0.0,0.0,0.0,0.0,0.0,0.0,0.0,0.0,0.0,0.0,0.0,0.0,0.0,0.0,0.0,0.0,0.0,0.0,0.0,0.0,0.0,0.0,0.0,0.0,0.0,0.0,0.0,0.0,0.0,0.0,0.0,0.0,0.0,0.0,0.0,0.0,0.0,0.0,0.0,0.0,0.0,0.0,0.0,0.0,0.0,0.0,0.0,0.0,0.0,0.0,0.0,0.0,0.0,0.0,0.0,0.0,0.0,0.0,0.0,0.0,0.0,0.0,0.0,0.0,0.0,0.0,0.0,0.0,0.0,0.0,0.0,0.0,0.0,0.0,0.0,0.0,0.0,0.0,0.0,0.0,0.0,0.0,0.0,0.0,0.0,0.0,0.0,0.0,0.0,0.0,0.0,0.0,0.0,0.0,0.0,0.0,0.0,0.0,0.0,0.0,0.0,0.0,0.0,0.0,0.0,0.0,0.0,0.0,0.0,0.0,0.0,0.0,0.0,0.0,0.0,0.0,0.0,0.0,0.0,0.0,0.0,0.0,0.0,0.0,0.0,0.0,0.0,0.0,0.0,0.0,0.0,0.0,0.0,0.0,0.0,0.0,0.0,0.0,0.0,0.0,0.0,0.0,0.0,0.0,0.0,0.0,0.0,0.0,0.0,0.0,0.0,0.0,0.0,0.0,0.0,0.0,0.0,0.0,0.0,0.0,0.0,0.0,0.0,0.0,0.0,0.0,0.0,0.0,0.0,0.0,0.0,0.0,0.0,0.0,0.0,0.0,0.0,0.0,0.0,0.0,0.0,0.0,0.0,0.0,0.0,0.0,0.0,0.0,0.0,0.0,0.0,0.0,0.0,0.0,0.0,0.0,0.0,0.0,0.0,0.0,0.0,0.0,0.0,0.0,0.0,0.0,0.0,0.0,0.0,0.0,0.0,0.0,0.0,0.0,0.0,0.0,0.0,0.0,0.0,0.0,0.0,0.0,0.0,0.0,0.0,0.0,0.0,0.0,0.0,0.0,0.0,0.0,0.0,0.0,0.0,0.0,0.0,0.0,0.0,0.0,0.0,0.0,0.0,0.0,0.0,0.0,0.0,0.0,0.0,0.0,0.0,0.0,0.0,0.0,0.0,0.0,0.0,0.0,0.0,0.0,0.0,0.0,0.0,0.0,0.0,0.0,0.0,0.0,0.0,0.0,0.0,0.0,0.0,0.0,0.0,0.0,0.0,0.0,0.0,0.0,0.0,0.0,0.0,0.0,0.0,0.0,0.0,0.0,0.0,0.0,0.0,0.0,0.0,0.0,0.0,0.0,0.0,0.0,0.0,0.0,0.0,0.0,0.0,0.0,0.0,0.0,0.0,0.0,0.0,0.0,0.0,0.0,0.0,0.0,0.0,0.0,0.0,0.0,0.0,0.0,0.0,0.0,0.0,0.0,0.0,0.0,0.0,0.0,0.0,0.0,0.0,0.0,0.0,0.0,0.0,0.0,0.0,0.0,0.0,0.0,0.0,0.0,0.0,0.0,0.0,0.0,0.0,0.0,0.0,0.0,0.0,0.0,0.0,0.0,0.0,0.0,0.0,0.0,0.0,0.0,0.0,0.0,0.0,0.0,0.0,0.0,0.0,0.0,0.0,0.0,0.0,0.0,0.0,0.0,0.0,0.0,0.0,0.0,0.0,0.0,0.0,0.0,0.0,0.0,0.0,0.0,0.0,0.0,0.0,0.0,0.0,0.0,0.0,0.0,0.0,0.0,0.0,0.0,0.0,0.0,0.0,0.0,0.0,0.0,0.0,0.0,0.0,0.0,0.0,0.0,0.0,0.0,0.0,0.0,0.0,0.0,0.0,0.0,0.0,0.0,0.0,0.0,0.0,0.0,0.0,0.0,0.0,0.0,0.0,0.0,0.0,0.0,0.0,0.0,0.0,0.0,0.0,0.0,0.0,0.0,0.0,0.0,0.0,0.0,0.0,0.0,0.0,0.0,0.0,0.0,0.0,0.0,0.0,0.0,0.0,0.0,0.0,0.0,0.0,0.0,0.0,0.0,0.0,0.0,0.0,0.0,0.0,0.0,0.0,0.0,0.0,0.0,0.0,0.0,0.0,0.0,0.0,0.0,0.0,0.0,0.0,0.0,0.0,0.0,0.0,0.0,0.0,0.0,0.0,0.0,0.0,0.0,0.0,0.0,0.0,0.0,0.0,0.0,0.0,3.1326,0.0,0.0,0.0,0.0,0.0,0.0,0.0,0.0,0.0,0.0,0.0,0.0,0.0,0.0,0.0,0.0,0.0,0.0,0.0,0.0,0.0,0.0,0.0,0.0,0.0,0.0,0.0,0.0,0.0,0.0,0.0,0.0,0.0,0.0,0.0,0.0,0.0,0.0,0.0,0.0,0.0,0.0,0.0,0.0,0.0,0.0,0.0,0.0,0.0,0.0,0.0,0.0,0.0,0.0,0.0,0.0,0.0,0.0,0.0,0.0,0.0,0.0,0.0,0.0,0.0,0.0,0.0,0.0,0.0,0.0,0.0,0.0,0.0,0.0,0.0,0.0,0.0,0.0,0.0,0.0,0.0,0.0,0.0,0.0,0.0,0.0,0.0,0.0,0.0,0.0,0.0,0.0,0.0,0.0,0.0,0.0,0.0,0.0,0.0,0.0,0.0,0.0,0.0,0.0,0.0,0.0,0.0,0.0,0.0,0.0,3.3315,3.2368,3.2669,3.2408,3.1315,0.0,0.0,0.0,0.0,0.0,0.0,0.0,0.0,0.0,0.0,0.0,0.0,0.0,0.0,0.0,0.0,0.0,0.0,0.0,0.0,0.0,0.0,0.0,0.0,0.0,0.0,0.0,0.0,0.0,0.0,0.0,0.0,0.0,0.0,0.0,0.0,0.0,0.0,0.0,0.0,0.0,0.0,0.0,0.0,0.0,0.0,0.0,0.0,0.0,0.0,0.0,0.0,0.0,0.0,0.0,0.0,0.0,0.0,0.0,0.0,0.0,0.0,0.0,0.0,0.0,0.0,0.0,0.0,0.0,0.0,0.0,0.0,0.0,0.0,0.0,0.0,0.0,0.0,0.0,0.0,0.0,0.0,0.0,0.0,0.0,0.0,0.0,0.0,0.0,0.0,0.0,0.0,0.0,0.0,0.0,0.0,0.0,0.0,0.0,0.0,0.0,0.0,0.0,0.0,0.0,0.0,0.0,0.0,0.0,0.0,0.0,0.0,3.356,3.3022,3.187,0.0,0.0,0.0,0.0,0.0,0.0,0.0,0.0,0.0,0.0,0.0,0.0,0.0,0.0,0.0,0.0,0.0,0.0,0.0,0.0,0.0,0.0,0.0,0.0,0.0,0.0,0.0,0.0,0.0,0.0,0.0,0.0,0.0,0.0,0.0,0.0,0.0,0.0,0.0,0.0,0.0,0.0,0.0,0.0,0.0,0.0,0.0,0.0,0.0,0.0,0.0,0.0,0.0,0.0,0.0,0.0,0.0,0.0,0.0,0.0,0.0,0.0,0.0,0.0,0.0,0.0,0.0,0.0,0.0,0.0,0.0,0.0,0.0,0.0,0.0,0.0,0.0,0.0,0.0,0.0,0.0,0.0,0.0,0.0,0.0,0.0,0.0,0.0,0.0,0.0,0.0,0.0,0.0,0.0,0.0,0.0,0.0,0.0,0.0,0.0,0.0,0.0,0.0,0.0,0.0,0.0,0.0,0.0,0.0,0.0,3.9271,3.7183,3.8412,0.0,3.3606,0.0,0.0,0.0,0.0,0.0,0.0,0.0,0.0,0.0,0.0,0.0,0.0,0.0,0.0,0.0,0.0,0.0,0.0,0.0,0.0,0.0,0.0,0.0,0.0,0.0,0.0,0.0,0.0,0.0,0.0,0.0,0.0,0.0,0.0,0.0,0.0,0.0,0.0,0.0,0.0,0.0,0.0,0.0,0.0,0.0,0.0,0.0,0.0,0.0,0.0,0.0,0.0,0.0,0.0,0.0,0.0,0.0,0.0,0.0,0.0,0.0,0.0,0.0,0.0,0.0,0.0,0.0,0.0,0.0,0.0,0.0,0.0,0.0,0.0,0.0,0.0,0.0,0.0,0.0,0.0,0.0,0.0,0.0,0.0,0.0,0.0,0.0,0.0,0.0,0.0,0.0,0.0,0.0,0.0,0.0,0.0,0.0,0.0,0.0,0.0,0.0,0.0,0.0,0.0,0.0,0.0,0.0,0.0,0.0,0.0,3.8519,3.7605,3.777,3.7439,0.0,0.0,0.0,0.0,0.0,0.0,0.0,0.0,0.0,0.0,0.0,0.0,0.0,0.0,0.0,0.0,0.0,0.0,0.0,0.0,0.0,0.0,0.0,0.0,0.0,0.0,0.0,0.0,0.0,0.0,0.0,0.0,0.0,0.0,0.0,0.0,0.0,0.0,0.0,0.0,0.0,0.0,0.0,0.0,0.0,0.0,0.0,0.0,0.0,0.0,0.0,0.0,0.0,0.0,0.0,0.0,0.0,0.0,0.0,0.0,0.0,0.0,0.0,0.0,0.0,0.0,0.0,0.0,0.0,0.0,0.0,0.0,0.0,0.0,0.0,0.0,0.0,0.0,0.0,0.0,0.0,0.0,0.0,0.0,0.0,0.0,0.0,0.0,0.0,0.0,0.0,0.0,0.0,0.0,0.0,0.0,0.0,0.0,0.0,0.0,0.0,0.0,0.0,0.0,0.0,0.0,0.0,0.0,0.0,0.0,3.9695,3.9009,3.8778,3.8139,3.806,3.8566,0.0,0.0,0.0,0.0,0.0,0.0,0.0,0.0,0.0,0.0,0.0,0.0,0.0,0.0,0.0,0.0,0.0,0.0,0.0,0.0,0.0,0.0,0.0,0.0,0.0,0.0,0.0,0.0,0.0,0.0,0.0,0.0,0.0,0.0,0.0,0.0,0.0,0.0,0.0,0.0,0.0,0.0,0.0,0.0,0.0,0.0,0.0,0.0,0.0,0.0,0.0,0.0,0.0,0.0,0.0,0.0,0.0,0.0,0.0,0.0,0.0,0.0,0.0,0.0,0.0,0.0,0.0,0.0,0.0,0.0,0.0,0.0,0.0,0.0,0.0,0.0,0.0,0.0,0.0,0.0,0.0,0.0,0.0,0.0,0.0,0.0,0.0,0.0,0.0,0.0,0.0,0.0,0.0,0.0,0.0,0.0,0.0,0.0,0.0,0.0,0.0,0.0,0.0,0.0,0.0,0.0,0.0,0.0,4.052,4.1985,4.2434,4.1558,4.1191,4.0294,0.0,0.0,0.0,0.0,0.0,0.0,0.0,0.0,0.0,0.0,0.0,0.0,0.0,0.0,0.0,0.0,0.0,0.0,0.0,0.0,0.0,0.0,0.0,0.0,0.0,0.0,0.0,0.0,0.0,0.0,0.0,0.0,0.0,0.0,0.0,0.0,0.0,0.0,0.0,0.0,0.0,0.0,0.0,0.0,0.0,0.0,0.0,0.0,0.0,0.0,0.0,0.0,0.0,0.0,0.0,0.0,0.0,0.0,0.0,0.0,0.0,0.0,0.0,0.0,0.0,0.0,0.0,0.0,0.0,0.0,0.0,0.0,0.0,0.0,0.0,0.0,0.0,0.0,0.0,0.0,0.0,0.0,0.0,0.0,0.0,0.0,0.0,0.0,0.0,0.0,0.0,0.0,0.0,0.0,0.0,0.0,0.0,0.0,0.0,0.0,0.0,0.0,0.0,0.0,0.0,0.0,0.0,0.0,0.0,4.2149,4.2217,4.1973,4.1426,4.125,4.0919,0.0,0.0,0.0,0.0,0.0,0.0,0.0,0.0,0.0,0.0,0.0,0.0,0.0,0.0,0.0,0.0,0.0,0.0,0.0,0.0,0.0,0.0,0.0,0.0,0.0,0.0,0.0,0.0,0.0,0.0,0.0,0.0,0.0,0.0,0.0,0.0,0.0,0.0,0.0,0.0,0.0,0.0,0.0,0.0,0.0,0.0,0.0,0.0,0.0,0.0,0.0,0.0,0.0,0.0,0.0,0.0,0.0,0.0,0.0,0.0,0.0,0.0,0.0,0.0,0.0,0.0,0.0,0.0,0.0,0.0,0.0,0.0,0.0,0.0,0.0,0.0,0.0,0.0,0.0,0.0,0.0,0.0,0.0,0.0,0.0,0.0,0.0,0.0,0.0,0.0,0.0,0.0,0.0,0.0,0.0,0.0,0.0,0.0,0.0,0.0,0.0,0.0,0.0,0.0,0.0,0.0,0.0,0.0,0.0,4.2656,0.0,4.1465,4.1191,4.1172,4.1172,0.0,0.0,0.0,0.0,0.0,0.0,0.0,0.0,0.0,0.0,0.0,0.0,0.0,0.0,0.0,0.0,0.0,0.0,0.0,0.0,0.0,0.0,0.0,0.0,0.0,0.0,0.0,0.0,0.0,0.0,0.0,0.0,0.0,0.0,0.0,0.0,0.0,0.0,0.0,0.0,0.0,0.0,0.0,0.0,0.0,0.0,0.0,0.0,0.0,0.0,0.0,0.0,0.0,0.0,0.0,0.0,0.0,0.0,0.0,0.0,0.0,0.0,0.0,0.0,0.0,0.0,0.0,0.0,0.0,0.0,0.0,0.0,0.0,0.0,0.0,0.0,0.0,0.0,0.0,0.0,0.0,0.0,0.0,0.0,0.0,0.0,0.0,0.0,0.0,0.0,0.0,0.0,0.0,0.0,0.0,0.0,0.0,0.0,0.0,0.0,0.0,0.0,0.0,0.0,0.0,0.0,0.0,0.0,4.2637,4.1836,4.1406,4.1191,4.1172,4.1172,4.1172,0.0,0.0,0.0,0.0,0.0,0.0,0.0,0.0,0.0,0.0,0.0,0.0,0.0,0.0,0.0,0.0,0.0,0.0,0.0,0.0,0.0,0.0,0.0,0.0,0.0,0.0,0.0,0.0,0.0,0.0,0.0,0.0,0.0,0.0,0.0,0.0,0.0,0.0,0.0,0.0,0.0,0.0,0.0,0.0,0.0,0.0,0.0,0.0,0.0,0.0,0.0,0.0,0.0,0.0,0.0,0.0,0.0,0.0,0.0,0.0,0.0,0.0,0.0,0.0,0.0,0.0,0.0,0.0,0.0,0.0,0.0,0.0,0.0,0.0,0.0,0.0,0.0,0.0,0.0,0.0,0.0,0.0,0.0,0.0,0.0,0.0,0.0,0.0,0.0,0.0,0.0,0.0,0.0,0.0,0.0,0.0,0.0,0.0,0.0,0.0,0.0,0.0,0.0,0.0,0.0,0.0,0.0,0.0,0.0,4.1367,4.125,4.1172,4.1172,4.1172,4.1172,0.0,0.0,0.0,0.0,0.0,0.0,0.0,0.0,0.0,0.0,0.0,0.0,0.0,0.0,0.0,0.0,0.0,0.0,0.0,0.0,0.0,0.0,0.0,0.0,0.0,0.0,0.0,0.0,0.0,0.0,0.0,0.0,0.0,0.0,0.0,0.0,0.0,0.0,0.0,0.0,0.0,0.0,0.0,0.0,0.0,0.0,0.0,0.0,0.0,0.0,0.0,0.0,0.0,0.0,0.0,0.0,0.0,0.0,0.0,0.0,0.0,0.0,0.0,0.0,0.0,0.0,0.0,0.0,0.0,0.0,0.0,0.0,0.0,0.0,0.0,0.0,0.0,0.0,0.0,0.0,0.0,0.0,0.0,0.0,0.0,0.0,0.0,0.0,0.0,0.0,0.0,0.0,0.0,0.0,0.0,0.0,0.0,0.0,0.0,0.0,0.0,0.0,0.0,0.0,0.0,0.0,0.0,0.0,0.0,4.1172,4.1172,4.1172,4.1172,4.1172,4.1172,4.1172,0.0,0.0,0.0,0.0,0.0,0.0,0.0,0.0,0.0,0.0,0.0,0.0,0.0,0.0,0.0,0.0,0.0,0.0,0.0,0.0,0.0,0.0,0.0,0.0,0.0,0.0,0.0,0.0,0.0,0.0,0.0,0.0,0.0,0.0,0.0,0.0,0.0,0.0,0.0,0.0,0.0,0.0,0.0,0.0,0.0,0.0,0.0,0.0,0.0,0.0,0.0,0.0,0.0,0.0,0.0,0.0,0.0,0.0,0.0,0.0,0.0,0.0,0.0,0.0,0.0,0.0,0.0,0.0,0.0,0.0,0.0,0.0,0.0,0.0,0.0,0.0,0.0,0.0,0.0,0.0,0.0,0.0,0.0,0.0,0.0,0.0,0.0,0.0,0.0,0.0,0.0,0.0,0.0,0.0,0.0,0.0,0.0,0.0,0.0,0.0,0.0,0.0,0.0,0.0,0.0,0.0,0.0,0.0,4.1211,4.1211,4.1191,4.1172,4.1172,4.1172,0.0,0.0,0.0,0.0,0.0,0.0,0.0,0.0,0.0,0.0,0.0,0.0,0.0,0.0,0.0,0.0,0.0,0.0,0.0,0.0,0.0,0.0,0.0,0.0,0.0,0.0,0.0,0.0,0.0,0.0,0.0,0.0,0.0,0.0,0.0,0.0,0.0,0.0,0.0,0.0,0.0,0.0,0.0,0.0,0.0,0.0,0.0,0.0,0.0,0.0,0.0,0.0,0.0,0.0,0.0,0.0,0.0,0.0,0.0,0.0,0.0,0.0,0.0,0.0,0.0,0.0,0.0,0.0,0.0,0.0,0.0,0.0,0.0,0.0,0.0,0.0,0.0,0.0,0.0,0.0,0.0,0.0,0.0,0.0,0.0,0.0,0.0,0.0,0.0,0.0,0.0,0.0,0.0,0.0,0.0,0.0,0.0,0.0,0.0,0.0,0.0,0.0,0.0,0.0,0.0,0.0,0.0,0.0,0.0,4.166,4.1641,4.1484,4.1191,4.1172,4.1172,0.0,0.0,0.0,0.0,0.0,0.0,0.0,0.0,0.0,0.0,0.0,0.0,0.0,0.0,0.0,0.0,0.0,0.0,0.0,0.0,0.0,0.0,0.0,0.0,0.0,0.0,0.0,0.0,0.0,0.0,0.0,0.0,0.0,0.0,0.0,0.0,0.0,0.0,0.0,0.0,0.0,0.0,0.0,0.0,0.0,0.0,0.0,0.0,0.0,0.0,0.0,0.0,0.0,0.0,0.0,0.0,0.0,0.0,0.0,0.0,0.0,0.0,0.0,0.0,0.0,0.0,0.0,0.0,0.0,0.0,0.0,0.0,0.0,0.0,0.0,0.0,0.0,0.0,0.0,0.0,0.0,0.0,0.0,0.0,0.0,0.0,0.0,0.0,0.0,0.0,0.0,0.0,0.0,0.0,0.0,0.0,0.0,0.0,0.0,0.0,0.0,0.0,0.0,0.0,0.0,0.0,0.0,0.0,4.2305,4.207,4.207,4.1953,4.1699,4.1367,4.1172,0.0,0.0,0.0,0.0,0.0,0.0,0.0,0.0,0.0,0.0,0.0,0.0,0.0,0.0,0.0,0.0,0.0,0.0,0.0,0.0,0.0,0.0,0.0,0.0,0.0,0.0,0.0,0.0,0.0,0.0,0.0,0.0,0.0,0.0,0.0,0.0,0.0,0.0,0.0,0.0,0.0,0.0,0.0,0.0,0.0,0.0,0.0,0.0,0.0,0.0,0.0,0.0,0.0,0.0,0.0,0.0,0.0,0.0,0.0,0.0,0.0,0.0,0.0,0.0,0.0,0.0,0.0,0.0,0.0,0.0,0.0,0.0,0.0,0.0,0.0,0.0,0.0,0.0,0.0,0.0,0.0,0.0,0.0,0.0,0.0,0.0,0.0,0.0,0.0,0.0,0.0,0.0,0.0,0.0,0.0,0.0,0.0,0.0,0.0,0.0,0.0,0.0,0.0,0.0,0.0,0.0,0.0,0.0,4.2539,4.248,4.25,4.248,4.2402,4.1699,4.1308,0.0,0.0,0.0,0.0,0.0,0.0,0.0,0.0,0.0,0.0,0.0,0.0,0.0,0.0,0.0,0.0,0.0,0.0,0.0,0.0,0.0,0.0,0.0,0.0,0.0,0.0,0.0,0.0,0.0,0.0,0.0,0.0,0.0,0.0,0.0,0.0,0.0,0.0,0.0,0.0,0.0,0.0,0.0,0.0,0.0,0.0,0.0,0.0,0.0,0.0,0.0,0.0,0.0,0.0,0.0,0.0,0.0,0.0,0.0,0.0,0.0,0.0,0.0,0.0,0.0,0.0,0.0,0.0,0.0,0.0,0.0,0.0,0.0,0.0,0.0,0.0,0.0,0.0,0.0,0.0,0.0,0.0,0.0,0.0,0.0,0.0,0.0,0.0,0.0,0.0,0.0,0.0,0.0,0.0,0.0,0.0,0.0,0.0,0.0,0.0,0.0,0.0,0.0,0.0,0.0,0.0,0.0,0.0,4.3262,4.2949,4.293,4.2773,4.2422,4.2246,4.2168,0.0,0.0,0.0,0.0,0.0,0.0,0.0,0.0,0.0,0.0,0.0,0.0,0.0,0.0,0.0,0.0,0.0,0.0,0.0,0.0,0.0,0.0,0.0,0.0,0.0,0.0,0.0,0.0,0.0,0.0,0.0,0.0,0.0,0.0,0.0,0.0,0.0,0.0,0.0,0.0,0.0,0.0,0.0,0.0,0.0,0.0,0.0,0.0,3.8457,0.0,0.0,0.0,0.0,0.0,0.0,0.0,0.0,0.0,0.0,0.0,0.0,0.0,0.0,0.0,0.0,0.0,0.0,0.0,0.0,0.0,0.0,0.0,0.0,0.0,0.0,0.0,0.0,0.0,0.0,0.0,0.0,0.0,0.0,0.0,0.0,0.0,0.0,0.0,0.0,0.0,0.0,0.0,0.0,0.0,0.0,0.0,0.0,0.0,0.0,0.0,0.0,0.0,0.0,0.0,0.0,0.0,0.0,0.0,4.3594,4.3379,4.3379,4.3262,4.3047,4.3027,4.2832,0.0,0.0,0.0,0.0,0.0,0.0,0.0,0.0,0.0,0.0,0.0,0.0,0.0,0.0,0.0,0.0,0.0,0.0,0.0,0.0,0.0,0.0,0.0,0.0,0.0,0.0,0.0,0.0,0.0,0.0,0.0,0.0,0.0,0.0,0.0,0.0,0.0,0.0,0.0,0.0,0.0,0.0,0.0,0.0,0.0,0.0,0.0,0.0,0.0,0.0,0.0,0.0,0.0,0.0,0.0,0.0,0.0,0.0,0.0,0.0,0.0,0.0,0.0,0.0,0.0,0.0,0.0,0.0,0.0,0.0,0.0,0.0,0.0,0.0,0.0,0.0,0.0,0.0,0.0,0.0,0.0,0.0,0.0,0.0,0.0,0.0,0.0,0.0,0.0,0.0,0.0,0.0,0.0,0.0,0.0,0.0,0.0,0.0,0.0,0.0,0.0,0.0,0.0,0.0,0.0,0.0,0.0,4.3691,4.3691,4.3691,4.3691,4.3691,4.3691,4.3691,4.3359,4.2656,0.0,0.0,0.0,0.0,0.0,0.0,0.0,0.0,0.0,0.0,0.0,0.0,0.0,0.0,0.0,0.0,0.0,0.0,0.0,0.0,0.0,0.0,0.0,0.0,0.0,0.0,0.0,0.0,0.0,0.0,0.0,0.0,0.0,0.0,0.0,0.0,0.0,0.0,3.8574,3.8574,0.0,0.0,0.0,0.0,0.0,0.0,0.0,0.0,3.8574,0.0,0.0,0.0,0.0,0.0,0.0,0.0,0.0,0.0,0.0,0.0,0.0,0.0,0.0,0.0,0.0,0.0,0.0,0.0,0.0,0.0,0.0,0.0,0.0,0.0,0.0,0.0,0.0,0.0,0.0,0.0,0.0,0.0,0.0,0.0,0.0,0.0,0.0,0.0,0.0,0.0,0.0,0.0,0.0,0.0,0.0,0.0,0.0,0.0,0.0,0.0,0.0,0.0,0.0,0.0,0.0,4.3691,4.3691,4.3691,4.3691,4.3691,4.3691,4.3691,4.3691,4.3633,4.3496,0.0,0.0,0.0,0.0,0.0,0.0,0.0,0.0,0.0,0.0,0.0,0.0,0.0,0.0,0.0,0.0,0.0,0.0,0.0,0.0,0.0,0.0,0.0,0.0,0.0,0.0,0.0,0.0,0.0,0.0,0.0,0.0,0.0,0.0,0.0,0.0,0.0,0.0,0.0,3.8574,3.8574,0.0,0.0,0.0,0.0,0.0,0.0,0.0,0.0,3.8555,0.0,0.0,0.0,0.0,0.0,0.0,0.0,0.0,0.0,0.0,0.0,0.0,0.0,0.0,0.0,0.0,0.0,0.0,0.0,0.0,0.0,0.0,0.0,0.0,0.0,0.0,0.0,0.0,0.0,0.0,0.0,0.0,0.0,0.0,0.0,0.0,0.0,0.0,0.0,0.0,0.0,0.0,0.0,0.0,0.0,0.0,0.0,0.0,0.0,0.0,0.0,0.0,0.0,0.0,0.0,4.3691,4.3691,4.3691,4.3691,4.3691,4.3691,4.3691,4.3691,4.3691,0.0,0.0,0.0,0.0,0.0,0.0,0.0,0.0,0.0,0.0,0.0,0.0,0.0,0.0,0.0,0.0,0.0,0.0,0.0,0.0,0.0,0.0,0.0,0.0,0.0,0.0,0.0,0.0,0.0,0.0,0.0,0.0,0.0,0.0,0.0,0.0,0.0,0.0,0.0,0.0,3.8574,3.8574,3.8574,0.0,0.0,0.0,0.0,0.0,0.0,3.8574,3.8574,0.0,0.0,0.0,0.0,0.0,0.0,0.0,0.0,0.0,0.0,0.0,0.0,0.0,0.0,0.0,0.0,0.0,0.0,0.0,0.0,0.0,0.0,0.0,0.0,0.0,0.0,0.0,0.0,0.0,0.0,0.0,0.0,0.0,0.0,0.0,0.0,0.0,0.0,0.0,0.0,0.0,0.0,0.0,0.0,0.0,0.0,0.0,0.0,0.0,0.0,0.0,0.0,0.0,0.0,0.0,4.3691,4.3691,4.3691,4.3691,4.3691,4.3691,4.3691,4.3691,4.3691,0.0,0.0,0.0,0.0,0.0,0.0,0.0,0.0,0.0,0.0,0.0,0.0,0.0,0.0,0.0,0.0,0.0,0.0,0.0,0.0,0.0,0.0,0.0,0.0,0.0,0.0,0.0,0.0,0.0,0.0,0.0,0.0,0.0,0.0,0.0,0.0,0.0,0.0,0.0,0.0,0.0,3.8574,3.8574,3.8574,0.0,0.0,0.0,0.0,3.8574,3.8574,0.0,0.0,0.0,0.0,0.0,0.0,0.0,0.0,0.0,0.0,0.0,0.0,0.0,0.0,0.0,0.0,0.0,0.0,0.0,0.0,0.0,0.0,0.0,0.0,0.0,0.0,0.0,0.0,0.0,0.0,0.0,0.0,0.0,0.0,0.0,0.0,0.0,0.0,0.0,0.0,0.0,0.0,0.0,0.0,0.0,0.0,0.0,0.0,0.0,0.0,0.0,0.0,0.0,0.0,0.0,0.0,4.3691,4.3691,4.3691,4.3691,4.3691,4.3691,4.3691,4.3691,4.3691,0.0,0.0,0.0,0.0,0.0,0.0,0.0,0.0,0.0,0.0,0.0,0.0,0.0,0.0,0.0,0.0,0.0,0.0,0.0,0.0,0.0,0.0,0.0,0.0,0.0,0.0,0.0,0.0,0.0,0.0,0.0,0.0,0.0,0.0,0.0,0.0,0.0,0.0,0.0,0.0,0.0,3.8574,3.8574,3.8574,3.8574,0.0,0.0,3.8574,3.8574,3.8574,0.0,0.0,0.0,0.0,0.0,0.0,0.0,0.0,0.0,0.0,0.0,0.0,0.0,0.0,0.0,0.0,0.0,0.0,0.0,0.0,0.0,0.0,0.0,0.0,0.0,0.0,0.0,0.0,0.0,0.0,0.0,0.0,0.0,0.0,0.0,0.0,0.0,0.0,0.0,0.0,0.0,0.0,0.0,0.0,0.0,0.0,0.0,0.0,0.0,0.0,0.0,0.0,0.0,0.0,0.0,4.3691,4.3691,4.3691,4.3691,4.3691,4.3691,4.3691,4.3691,4.3691,4.3691,0.0,0.0,0.0,0.0,0.0,0.0,0.0,0.0,0.0,0.0,0.0,0.0,0.0,0.0,0.0,0.0,0.0,0.0,0.0,0.0,0.0,0.0,0.0,0.0,0.0,0.0,0.0,0.0,0.0,0.0,0.0,0.0,0.0,0.0,0.0,0.0,0.0,0.0,0.0,0.0,0.0,0.0,3.9336,3.9316,0.0,0.0,0.0,3.8848,3.8613,0.0,0.0,0.0,0.0,0.0,0.0,0.0,0.0,0.0,0.0,0.0,0.0,0.0,0.0,0.0,0.0,0.0,0.0,0.0,0.0,0.0,0.0,0.0,0.0,0.0,0.0,0.0,0.0,0.0,0.0,0.0,0.0,0.0,0.0,0.0,0.0,0.0,0.0,0.0,0.0,0.0,0.0,0.0,0.0,0.0,0.0,0.0,0.0,0.0,0.0,0.0,0.0,0.0,0.0,0.0,0.0,0.0,4.3691,4.3691,4.3691,4.3691,4.3691,4.3691,4.3691,4.3691,0.0,0.0,0.0,0.0,0.0,0.0,0.0,0.0,0.0,0.0,0.0,0.0,0.0,0.0,0.0,0.0,0.0,0.0,0.0,0.0,0.0,0.0,0.0,0.0,0.0,0.0,0.0,3.9883,0.0,0.0,0.0,0.0,0.0,0.0,0.0,0.0,0.0,0.0,0.0,0.0,0.0,0.0,3.9883,3.9883,3.9883,3.9785,0.0,0.0,3.9258,3.8965,3.8809,3.873,0.0,0.0,0.0,0.0,0.0,0.0,0.0,0.0,0.0,0.0,0.0,0.0,0.0,0.0,0.0,0.0,0.0,0.0,0.0,0.0,0.0,0.0,0.0,0.0,0.0,0.0,0.0,0.0,0.0,0.0,0.0,0.0,0.0,0.0,0.0,0.0,0.0,0.0,0.0,0.0,0.0,0.0,0.0,0.0,0.0,0.0,0.0,0.0,0.0,0.0,0.0,0.0,0.0,0.0,4.3691,4.3691,4.3691,4.3691,4.3691,4.3691,4.3691,4.3691,4.3691,4.3691,0.0,0.0,0.0,0.0,0.0,0.0,0.0,0.0,0.0,0.0,0.0,0.0,0.0,0.0,0.0,0.0,0.0,0.0,0.0,0.0,0.0,0.0,0.0,0.0,0.0,0.0,0.0,0.0,0.0,0.0,0.0,0.0,0.0,0.0,0.0,0.0,0.0,0.0,0.0,0.0,0.0,3.9902,3.9883,3.9883,3.9902,0.0,3.9844,3.9844,3.9805,3.9434,3.916,3.916,0.0,0.0,0.0,0.0,0.0,0.0,0.0,0.0,0.0,0.0,0.0,0.0,0.0,0.0,0.0,0.0,0.0,0.0,0.0,0.0,0.0,0.0,0.0,0.0,0.0,0.0,0.0,0.0,0.0,0.0,0.0,0.0,0.0,0.0,0.0,0.0,0.0,0.0,0.0,0.0,0.0,0.0,0.0,0.0,0.0,0.0,0.0,0.0,0.0,0.0,0.0,0.0,0.0,4.3691,4.3691,4.3691,4.3691,4.3691,4.3691,4.3691,4.3691,4.3691,4.3691,0.0,0.0,0.0,0.0,0.0,0.0,0.0,0.0,0.0,0.0,0.0,0.0,0.0,0.0,0.0,0.0,0.0,0.0,0.0,0.0,0.0,0.0,0.0,0.0,0.0,0.0,0.0,0.0,4.0684,4.0684,4.0684,0.0,0.0,0.0,0.0,0.0,0.0,0.0,0.0,0.0,0.0,4.0684,4.0684,4.0684,0.0,0.0,4.0273,4.0195,3.9941,3.9746,3.9629,3.9629,3.9492,0.0,0.0,0.0,0.0,0.0,0.0,0.0,0.0,0.0,0.0,0.0,0.0,0.0,0.0,0.0,0.0,0.0,0.0,0.0,0.0,0.0,0.0,0.0,0.0,0.0,0.0,0.0,0.0,0.0,0.0,0.0,0.0,0.0,0.0,0.0,0.0,0.0,0.0,0.0,0.0,0.0,0.0,0.0,0.0,0.0,0.0,0.0,0.0,0.0,0.0,0.0,0.0,4.3691,4.3691,4.3691,4.3691,4.3691,4.3691,4.3691,4.3691,4.3691,4.3691,0.0,0.0,0.0,0.0,0.0,0.0,0.0,0.0,0.0,0.0,0.0,0.0,0.0,0.0,0.0,0.0,0.0,0.0,0.0,0.0,0.0,0.0,0.0,0.0,0.0,0.0,0.0,0.0,4.1172,4.1172,4.1172,0.0,0.0,0.0,0.0,0.0,0.0,0.0,0.0,0.0,0.0,4.1172,4.1172,4.1172,4.1074,4.0762,4.0723,4.0625,4.0332,4.0176,4.0078,4.0078,0.0,0.0,0.0,0.0,0.0,0.0,0.0,0.0,0.0,0.0,0.0,0.0,0.0,0.0,0.0,0.0,0.0,0.0,0.0,0.0,0.0,0.0,0.0,0.0,0.0,0.0,0.0,4.3481,0.0,0.0,4.3481,0.0,0.0,0.0,0.0,0.0,0.0,0.0,0.0,0.0,0.0,0.0,0.0,0.0,0.0,0.0,0.0,0.0,0.0,0.0,0.0,0.0,0.0,4.3691,4.3691,4.3691,4.3691,4.3691,4.3691,4.3691,4.3691,4.3691,4.3691,4.3691,0.0,0.0,0.0,0.0,0.0,0.0,0.0,0.0,0.0,0.0,0.0,0.0,0.0,0.0,0.0,0.0,0.0,0.0,0.0,0.0,0.0,0.0,0.0,0.0,0.0,0.0,4.1172,4.1172,4.1172,0.0,0.0,0.0,0.0,0.0,0.0,0.0,0.0,0.0,4.1172,4.1172,4.1172,4.1172,4.1172,4.1152,4.1152,4.1152,4.1152,4.1113,4.0781,4.0508,0.0,0.0,0.0,0.0,0.0,0.0,0.0,0.0,0.0,0.0,0.0,0.0,0.0,0.0,0.0,0.0,0.0,0.0,0.0,0.0,0.0,0.0,0.0,0.0,0.0,0.0,0.0,4.3481,4.3481,0.0,0.0,0.0,0.0,0.0,0.0,0.0,0.0,0.0,0.0,0.0,4.1464,4.1339,0.0,0.0,0.0,0.0,0.0,0.0,0.0,0.0,0.0,0.0,0.0,0.0,4.3691,4.3691,4.3691,4.3691,4.3691,4.3691,4.3691,4.3691,4.3691,4.3691,4.3691,0.0,0.0,0.0,0.0,0.0,0.0,0.0,0.0,0.0,0.0,0.0,0.0,0.0,0.0,0.0,0.0,0.0,0.0,0.0,0.0,0.0,0.0,0.0,0.0,0.0,4.1172,0.0,0.0,0.0,0.0,0.0,0.0,0.0,0.0,0.0,0.0,4.1172,4.1172,4.1172,4.1172,4.1172,4.1172,4.1172,4.1172,0.0,0.0,0.0,0.0,0.0,0.0,0.0,0.0,0.0,0.0,0.0,0.0,0.0,0.0,3.9355,3.9043,3.8984,3.8906,3.8633,0.0,0.0,0.0,0.0,0.0,0.0,0.0,0.0,0.0,0.0,0.0,0.0,0.0,0.0,4.3481,4.3481,4.3481,0.0,0.0,0.0,0.0,0.0,0.0,0.0,0.0,4.2326,4.1959,4.1684,4.1409,4.1207,4.106,4.106,4.1229,0.0,0.0,0.0,0.0,0.0,0.0,0.0,0.0,4.3691,4.3691,4.3691,4.3691,4.3691,4.3691,4.3691,4.3691,4.3691,4.3691,4.3691,4.3691,4.3691,0.0,0.0,0.0,0.0,0.0,0.0,0.0,0.0,0.0,0.0,0.0,0.0,0.0,0.0,0.0,0.0,0.0,0.0,0.0,0.0,0.0,0.0,0.0,4.1172,0.0,0.0,0.0,0.0,0.0,0.0,0.0,0.0,0.0,4.1172,4.1172,4.1172,4.1172,4.1172,4.1172,4.1172,0.0,0.0,0.0,0.0,0.0,0.0,0.0,4.1172,4.1172,4.1172,4.1172,4.1172,4.0937,4.0664,4.0391,0.0,0.0,3.9551,3.9434,3.9355,3.9082,3.8809,3.8652,3.8769,3.8555,3.8398,0.0,0.0,0.0,0.0,4.3536,0.0,0.0,0.0,4.3481,4.3481,0.0,4.3481,0.0,0.0,0.0,0.0,4.3481,4.3481,0.0,0.0,4.2858,4.2454,4.1757,4.1702,4.1482,4.1097,4.1079,4.1145,4.1145,4.1546,0.0,0.0,0.0,0.0,0.0,0.0,4.3711,4.3691,4.3711,4.3691,4.3691,4.3691,4.3691,4.3691,4.3691,4.3691,4.3691,4.3691,4.3691,4.3691,4.3691,0.0,0.0,0.0,0.0,0.0,0.0,0.0,0.0,0.0,0.0,0.0,0.0,0.0,0.0,0.0,0.0,0.0,0.0,0.0,0.0,4.1445,0.0,0.0,0.0,0.0,0.0,0.0,0.0,0.0,0.0,4.1172,4.1172,4.1172,4.1172,4.1172,0.0,0.0,0.0,0.0,4.1172,4.1172,4.1172,4.1172,4.1172,4.1172,4.1172,4.1172,0.0,0.0,4.1172,4.1172,4.1152,4.1172,4.1133,4.0918,4.0098,3.9922,3.9902,3.9863,3.9824,3.9726,3.9336,3.9199,3.9101,4.3798,0.0,0.0,0.0,0.0,4.3609,4.3481,4.3481,4.3481,4.3481,4.3481,4.3481,0.0,0.0,0.0,0.0,0.0,0.0,4.3426,4.3298,4.3004,4.2747,4.2509,4.1959,4.1629,4.15,4.1207,4.106,4.1145,4.121,4.163,4.2402,0.0,0.0,0.0,0.0,4.3297,4.3317,4.3546,4.3691,4.3691,4.3691,4.3691,4.3691,4.3691,4.3691,4.3691,4.3691,4.3691,4.3691,4.3691,0.0,0.0,0.0,0.0,0.0,0.0,0.0,0.0,0.0,0.0,0.0,0.0,0.0,0.0,0.0,0.0,0.0,0.0,0.0,4.2246,4.1875,4.1621,0.0,0.0,0.0,0.0,0.0,0.0,0.0,0.0,0.0,4.1172,4.1172,4.1172,0.0,0.0,4.1172,4.1172,4.1172,4.1172,4.1172,4.1172,0.0,4.1172,4.1172,4.1172,4.1172,4.1172,4.1172,4.1172,4.1172,4.1172,4.1172,4.1172,4.1094,4.0859,4.0547,4.0254,3.998,3.9883,3.9863,3.9726,3.9707,3.9668,4.4039,4.4919,4.4654,4.438,4.4068,4.3829,4.3646,4.3481,4.3481,4.3481,4.3481,4.3481,4.3481,4.3481,4.3481,0.0,0.0,0.0,4.3481,4.3481,4.3243,4.3023,4.2839,4.2381,4.1996,4.1684,4.1427,4.131,4.1145,4.106,4.1481,4.2049,0.0,4.2383,4.2818,4.2818,4.2818,4.2818,4.3214,4.3463,4.3463,4.3628,4.3691,4.3691,4.3691,4.3691,4.3691,4.3691,4.3691,4.3691,4.3691,4.3691,0.0,0.0,0.0,0.0,0.0,0.0,0.0,0.0,0.0,0.0,0.0,4.334,4.332,0.0,0.0,0.0,4.2773,4.2617,4.2441,4.2207,0.0,0.0,0.0,0.0,0.0,0.0,0.0,4.082,4.1016,4.1172,4.1172,4.1172,4.1172,4.1172,4.1172,4.1172,4.1172,0.0,4.1172,4.1172,4.1172,4.1172,4.1172,4.1172,4.1172,4.1172,4.1172,4.1172,4.1172,4.1172,4.1172,4.1172,4.1172,4.1172,4.1172,4.0957,4.0703,4.0449,4.0391,4.0351,4.0195,4.0137,4.0117,4.4198,4.4258,4.4937,4.4783,4.4141,4.4105,4.3866,4.3499,4.3481,4.3481,4.3481,4.3481,4.3481,4.3481,4.3481,0.0,4.3481,4.3481,4.3481,4.3481,4.3481,4.3298,4.2931,4.2876,4.2472,4.1739,4.1702,4.1464,4.1079,4.106,4.1313,4.1612,4.1612,4.1882,4.2318,4.2318,4.2318,4.2318,4.2818,4.3068,4.3068,4.3463,4.3691,4.3691,4.3691,4.3691,4.3691,4.3691,4.3691,4.3691,4.3691,4.3691,4.3691,0.0,0.0,0.0,0.0,0.0,0.0,0.0,0.0,0.0,0.0,0.0,0.0,0.0,0.0,0.0,4.3359,0.0,4.2558,4.25,0.0,0.0,0.0,4.2266,4.1894,4.1836,4.1699,4.1308,0.0,0.0,4.123,4.1191,4.1172,4.1172,4.1172,4.1172,4.1172,4.1172,4.1172,4.1172,4.1172,4.1172,4.1172,4.1172,4.1172,4.1172,4.1172,4.1172,4.1172,4.1172,4.1172,4.1172,4.1172,4.1172,4.1172,4.1152,4.1172,4.1133,4.1133,4.1035,4.0664,4.0566,4.0469,4.2059,4.2234,4.3884,4.4627,4.4508,4.4215,4.3866,4.3499,4.3481,4.3481,4.3481,4.3481,4.3481,4.3481,4.3481,4.3481,4.3481,4.3481,4.3481,4.3481,4.3481,4.3444,4.3334,4.3023,4.2619,4.2142,4.1831,4.1464,4.1079,4.106,4.1145,4.121,4.121,4.1462,4.1882,4.1882,4.1882,4.1882,4.2318,4.2735,4.3068,4.3463,4.3691,4.3691,4.3691,4.3691,4.3691,4.3691,4.3691,4.3691,4.3691,4.3691,4.3691,4.3691,0.0,0.0,0.0,0.0,0.0,0.0,0.0,0.0,0.0,4.3691,4.3691,0.0,4.3691,0.0,4.3613,4.3516,4.3418,4.3125,0.0,0.0,4.2617,4.2383,4.2285,4.2285,4.2246,4.2148,4.1836,4.1641,4.1641,4.1367,4.1172,4.1172,4.1172,4.1172,4.1172,4.1172,4.1172,4.1172,4.1172,4.1172,4.1172,4.1172,4.1172,4.1172,4.1172,4.1172,4.1172,4.1172,4.1172,4.1172,4.1172,4.1172,4.1172,4.1172,4.1172,4.1172,4.1172,4.1152,4.1035,4.1016,4.0996,4.1271,4.1464,4.3513,4.4392,4.4247,4.4325,4.4123,4.3738,4.3573,4.3481,4.3481,4.3481,4.3481,4.3481,4.3481,4.3481,4.3481,4.3481,4.3481,4.3481,4.3481,4.3481,4.3481,4.3261,4.2839,4.2289,4.2051,4.1647,4.1079,4.106,4.106,4.106,4.106,4.1229,4.1462,4.1462,4.1462,4.1462,4.1882,4.2383,4.3068,4.3297,4.3546,4.3691,4.3691,4.3691,4.3691,4.3691,4.3691,4.3691,4.3691,4.3691,4.3691,4.3691,4.3691,0.0,0.0,0.0,0.0,0.0,0.0,0.0,0.0,0.0,0.0,0.0,4.3691,4.3691,4.3691,4.3691,4.3691,4.3496,4.3359,4.3359,4.3144,4.293,4.2734,4.2715,4.2637,4.2441,4.2226,4.207,4.207,4.1875,4.1738,4.1738,4.1582,4.1387,4.1211,4.1172,4.1172,4.1172,4.1172,4.1172,4.1172,4.1172,4.1172,4.1172,4.1172,4.1172,4.1172,4.1172,4.1172,4.1172,4.1172,4.1172,4.1172,4.1172,4.1172,4.1172,4.1172,4.1172,4.1172,4.1172,4.1172,4.1078,4.1271,4.3209,4.3891,4.3727,4.4358,4.4398,4.405,4.3719,4.3536,4.3481,4.3481,4.3481,4.3481,4.3481,4.3481,4.3481,4.3481,4.3481,4.3481,4.3481,4.3481,4.3481,4.3481,4.3096,4.2362,4.2307,4.1886,4.1152,4.1079,4.106,4.106,4.106,4.106,4.106,4.106,4.106,4.1145,4.1546,4.2216,4.2985,4.3151,4.338,4.3711,4.3691,4.3691,4.3691,4.3691,4.3691,4.3691,4.3691,4.3691,4.3691,4.3691,4.3691,0.0,4.3691,0.0,0.0,0.0,0.0,0.0,0.0,0.0,0.0,4.3691,4.3691,4.3691,4.3691,4.3691,4.3691,4.3691,4.3691,4.3691,4.3691,4.3555,4.3203,4.3164,4.3008,4.2637,4.2539,4.2519,4.2519,4.248,4.2422,4.2344,4.209,4.1777,4.1426,4.1269,4.1172,4.1172,4.1172,4.1191,4.1269,4.1269,4.1289,4.1328,4.1406,4.1328,4.1387,4.1367,4.1348,4.1289,4.1289,4.125,4.1191,4.1172,4.1172,4.1172,4.1172,4.1172,4.1172,4.1172,4.1172,4.0044,4.0238,4.1384,4.2296,4.3054,4.3727,4.401,4.4086,4.4013,4.3793,4.3499,4.3481,4.3481,4.3481,4.3481,4.3481,4.3481,4.3481,4.3481,4.3481,4.3481,4.3481,4.3481,4.3481,4.3243,4.2747,4.2436,4.2032,4.1555,4.1225,4.106,4.106,4.106,4.106,4.106,0.0,0.0,0.0,4.19,4.2318,4.2569,4.3214,4.3628,4.3711,4.3691,0.0,4.3691,4.3691,4.3691,4.3691,4.3691,0.0,0.0,0.0,0.0,0.0,0.0,0.0,0.0,0.0,0.0,0.0,4.3652,4.3691,4.3691,4.3691,4.3691,4.3691,4.3691,4.3691,4.3691,4.3691,4.3691,4.3691,4.3691,4.3672,4.3594,4.3574,4.3535,4.3476,4.3164,4.2949,4.293,4.2656,4.2441,4.2461,4.2363,4.2285,4.2207,4.1621,4.1211,4.1172,4.123,4.1328,4.1621,4.168,4.1797,4.207,4.2187,4.2168,4.2148,4.2148,4.2031,4.1758,4.168,4.1562,4.1269,4.1172,4.1211,4.1172,4.1172,4.1172,4.1172,4.1172,4.1172,3.9768,3.9849,4.0901,4.185,0.0,4.3761,4.4311,4.4655,4.4251,4.3866,4.3499,4.3481,4.3481,4.3481,4.3481,4.3481,4.3481,4.3481,4.3481,4.3481,4.3481,4.3481,4.3481,4.3481,4.3279,4.2858,4.2472,4.2069,4.1684,4.1262,4.106,4.106,4.106,4.106,4.106,4.106,4.106,4.106,4.1565,4.1816,4.2049,4.2466,4.2799,4.3048,4.3048,0.0,0.0,0.0,0.0,0.0,0.0,0.0,0.0,4.3691,0.0,4.3691,4.3691,4.3691,4.3691,4.3691,4.3691,4.3691,4.3691,4.3691,4.3691,4.3691,4.3691,4.3691,4.3691,4.3691,4.3691,4.3691,4.3691,4.3691,4.3691,4.3691,4.3691,4.3691,4.3691,4.3691,4.3516,4.3398,4.3379,4.3223,4.3066,4.3047,4.2871,4.2754,4.2695,4.2207,4.1797,4.1797,4.1777,4.1875,4.2051,4.2109,4.2168,4.2383,4.2422,4.2422,4.2422,4.2422,4.2344,4.2148,4.2109,4.2031,4.1855,4.1797,4.1738,4.1543,4.1484,4.1387,4.123,4.1172,4.1172,3.9768,3.9865,4.0707,4.177,4.2922,4.3704,4.45,4.5132,4.4398,0.0,0.0,4.3481,4.3481,4.3481,4.3481,4.3481,4.3481,4.3481,4.3481,4.3481,4.3481,4.3481,4.3481,4.3481,4.3316,4.2968,4.2509,4.2106,4.1776,4.1299,4.106,4.106,4.106,4.106,4.106,4.106,4.106,4.1145,4.1145,4.1378,4.1695,4.1779,4.2049,4.2402,4.2402,4.2569,4.2985,4.3068,4.3214,4.3546,4.3711,4.3628,4.3628,4.3628,4.3628,4.3628,4.3609,4.3691,4.3691,4.3691,4.3691,4.3691,4.3691,4.3691,4.3691,4.3691,4.3691,4.3691,4.3691,4.3691,4.3691,4.3691,4.3691,4.3691,4.3691,4.3691,4.3691,4.3691,4.3691,4.3691,4.3691,4.3691,4.3691,4.3672,4.3691,4.3652,4.3379,4.3183,4.3125,4.2715,4.2344,4.2344,4.2305,4.2402,4.2519,4.2539,4.2558,4.2695,4.2695,4.2656,4.2656,4.2656,4.2637,4.2558,4.2539,4.25,4.2441,4.2363,4.2305,4.1973,4.1894,4.1777,4.1406,4.1289,4.1269,3.9768,3.9768,3.9963,4.1111,4.2827,4.2922,4.3662,4.4746,4.4288,4.3866,4.3499,4.3481,4.3481,4.3481,4.3481,4.3481,4.3481,4.3481,4.3481,4.3481,4.3481,4.3481,4.3481,4.3481,4.3463,4.3353,4.2637,4.2252,4.2124,4.1427,4.106,4.106,4.106,4.106,4.106,4.106,4.106,4.1145,4.1462,4.163,4.1695,4.2049,4.2318,4.2402,4.2402,4.2402,4.2485,4.2902,4.3151,4.3234,4.3546,4.3546,4.3214,4.3463,4.3546,4.3234,4.3463,4.3691,4.3691,4.3691,4.3691,4.3691,4.3691,4.3691,4.3691,4.3691,4.3691,4.3691,4.3691,4.3691,4.3691,4.3691,4.3691,4.3691,4.3691,4.3691,4.3691,4.3691,4.3691,4.3691,4.3691,4.3691,4.3691,4.3691,4.3691,4.3691,4.3613,4.3594,4.3457,4.293,4.248,4.2422,4.2422,4.2578,4.2891,4.2988,4.3105,4.3476,4.3457,4.3418,4.3418,4.3418,4.3301,4.3047,4.2988,4.2871,4.2558,4.2422,4.2441,4.2363,4.2344,4.2187,4.1797,4.1699,4.1582,3.9768,3.9768,3.9768,4.0627,4.2042,4.3209,4.4003,4.4673,4.449,4.405,4.3518,4.3481,4.3481,4.3481,4.3481,4.3481,4.3481,4.3481,4.3481,4.3481,4.3481,4.3481,4.3481,4.3481,4.3481,4.3444,4.2876,4.2491,4.2234,4.1684,4.128,4.1079,4.106,4.106,4.106,4.106,4.106,4.1145,4.1294,4.1378,4.1378,4.1565,4.1733,4.1649,4.1733,4.1798,4.1965,4.2216,4.2466,4.2735,4.2902,4.2882,4.2735,4.2902,4.2882,4.2735,4.2882,4.2965,4.2965,4.3214,4.3463,4.3711,4.3691,4.3691,4.3691,4.3691,4.3691,4.3691,4.3691,4.3691,4.3691,4.3691,4.3691,4.3691,4.3691,4.3691,4.3691,4.3691,4.3691,4.3691,4.3691,4.3691,4.3691,4.3691,4.3691,4.3691,4.3691,4.3691,4.3691,4.3379,4.3125,4.3125,4.3125,4.3203,4.3379,4.3418,4.3516,4.3691,4.3691,4.3691,4.3691,4.3691,4.3613,4.3476,4.3418,4.334,4.3105,4.3125,4.3027,4.2812,4.2773,4.2598,4.2266,4.1973,4.166,3.9768,3.9768,3.9768,4.0336,4.1464,4.3209,4.4168,4.4452,4.4342,4.4088,4.3664,4.3554,4.3481,4.3481,4.3481,4.3481,4.3481,4.3481,4.3481,4.3481,4.3481,4.3481,4.3481,4.3481,4.3481,4.3444,4.3078,4.2656,4.2271,4.1886,4.1482,4.1097,4.106,4.106,4.106,4.106,4.106,4.106,4.106,4.106,4.106,4.106,4.1145,4.106,4.1145,4.1229,4.1546,4.1612,4.1863,4.2216,4.2318,4.2402,4.2235,4.2318,4.2318,4.2318,4.2318,4.2402,4.2402,4.2902,4.3297,4.3546,4.3628,4.3691,4.3691,4.3691,4.3691,4.3691,4.3691,4.3691,4.3691,4.3691,4.3691,4.3691,4.3691,4.3691,4.3691,4.3691,4.3691,4.3691,4.3691,4.3691,4.3691,4.3691,4.3691,4.3691,4.3691,4.3691,4.3691,4.3691,4.3691,4.3691,4.3691,4.3672,4.3691,4.3691,4.3691,4.3691,4.3691,4.3691,4.3691,4.3691,4.3691,4.3672,4.3672,4.3652,4.3691,4.3672,4.3535,4.3281,4.3223,4.3066,4.2676,4.2246,4.1836,3.9768,3.9768,3.9768,4.0336,4.1368,4.2443,4.3347,4.379,4.3435,4.3612,4.3995,4.3664,4.3481,4.3481,4.3481,4.3481,4.3481,4.3481,4.3481,4.3481,4.3481,4.3481,4.3481,4.3481,4.3481,4.3444,4.3078,4.2692,4.2271,4.1867,4.1482,4.1115,4.106,4.106,4.106,4.106,4.106,4.106,4.106,4.106,4.106,4.106,4.106,4.106,4.106,4.1145,4.1229,4.1546,4.1695,4.1779,4.2151,4.2235,4.1882,4.2151,4.2235,4.1798,4.2151,4.2402,4.2402,4.3131,4.3463,4.3234,4.3463,4.3691,4.3711,4.3711,4.3691,4.3691,4.3691,4.3691,4.3691,4.3691,4.3691,4.3691,4.3691,4.3691,4.3691,4.3691,4.3691,4.3691,4.3691,4.3691,4.3691,4.3691,4.3691,4.3691,4.3691,4.3691,4.3691,4.3691,4.3691,4.3691,4.3691,4.3691,4.3691,4.3691,4.3691,4.3691,4.3691,4.3691,4.3691,4.3691,4.3691,4.3691,4.3691,4.3691,4.3691,4.3691,4.3691,4.3594,4.3535,4.3496,4.3105,4.2676,4.2246,3.9768,3.9768,3.9768,4.0433,4.1271,4.1753,4.2604,4.375,4.336,4.3429,4.3977,4.3664,4.3481,4.3481,4.3481,4.3481,4.3481,4.3481,4.3481,4.3481,4.3481,4.3481,4.3481,4.3481,4.3481,4.3481,4.3316,4.2913,4.2271,4.1629,4.1225,4.1079,4.106,4.106,4.106,4.106,4.106,4.106,4.106,4.106,4.106,4.106,4.106,4.106,4.106,4.106,4.1145,4.1313,4.1378,4.1378,4.1565,4.1565,4.1378,4.1565,4.1565,4.1378,4.1565,4.1733,4.1965,4.2383,4.255,4.2652,4.2818,4.3048,4.3297,4.3297,4.3463,4.3628,4.3691,4.3691,4.3691,4.3691,4.3691,4.3691,4.3691,4.3691,4.3691,4.3691,4.3691,4.3691,4.3691,4.3691,4.3691,4.3691,4.3691,4.3691,4.3691,4.3691,4.3691,4.3691,4.3691,4.3691,4.3691,4.3691,4.3691,4.3691,4.3691,4.3691,4.3691,4.3691,4.3691,4.3691,4.3691,4.3691,4.3691,4.3691,4.3691,4.3691,4.3691,4.3691,4.3691,4.3633,4.3476,4.3105,4.2754,3.9768,3.9768,3.9768,4.0238,4.0901,4.0901,4.1716,4.3026,4.2837,4.3115,4.3742,4.363,4.3481,4.3481,4.3481,4.3481,4.3481,4.3481,4.3481,4.3481,4.3481,4.3481,4.3481,4.3481,4.3481,4.3481,4.3481,4.3059,4.2289,4.1592,4.117,4.1163,4.106,4.106,4.106,4.106,4.106,4.106,4.106,4.106,4.106,4.106,4.106,4.106,4.106,4.106,4.106,4.106,4.106,4.1145,4.106,4.106,4.106,4.106,4.106,4.1145,4.1229,4.1313,4.1528,4.1779,4.1965,4.2235,4.2318,4.2569,4.2818,4.2985,4.3234,4.3463,4.3628,4.3691,4.3691,4.3691,4.3691,4.3691,4.3691,4.3691,4.3691,4.3691,4.3691,4.3691,4.3691,4.3691,4.3691,4.3691,4.3691,4.3691,4.3691,4.3691,4.3691,4.3691,4.3691,4.3691,4.3691,4.3691,4.3691,4.3691,4.3691,4.3691,4.3691,4.3691,4.3691,4.3691,4.3691,4.3691,4.3691,4.3691,4.3691,4.3691,4.3691,4.3691,4.3691,4.3691,4.3652,4.3398,4.3223,3.9768,3.9768,3.9768,3.9865,3.9849,3.9865,4.0513,4.1653,4.1629,4.222,4.3132,4.3451,4.3481,4.3481,4.3481,4.3481,4.3481,4.3481,4.3481,4.3481,4.3481,4.3481,4.3481,4.3481,4.3481,4.3481,4.3481,4.3078,4.2289,4.1849,4.1445,4.1079,4.106,4.106,4.106,4.106,4.106,4.106,4.106,4.106,4.106,4.106,4.106,4.106,4.106,4.106,4.106,4.106,4.106,4.106,4.106,4.106,4.106,4.106,4.106,4.1145,4.1462,4.1462,4.1313,4.1816,4.2132,4.1882,4.2049,4.2402,4.2485,4.2735,4.2985,4.3151,4.338,4.3609,4.3628,4.3628,4.3691,4.3691,4.3691,4.3691,4.3691,4.3691,4.3691,4.3691,4.3691,4.3691,4.3691,4.3691,4.3691,4.3691,4.3691,4.3691,4.3691,4.3691,4.3691,4.3691,4.3691,4.3691,4.3691,4.3691,4.3691,4.3691,4.3691,4.3691,4.3691,4.3691,4.3691,4.3691,4.3691,4.3691,4.3691,4.3691,4.3691,4.3691,4.3691,4.3691,4.3691,4.3691,4.3535,3.9768,3.9768,3.9768,3.9768,3.9768,3.9768,4.0336,4.1302,4.1534,4.2145,4.3058,4.3379,4.3481,4.3481,4.3481,4.3481,4.3481,4.3481,4.3481,4.3481,4.3481,4.3481,4.3481,4.3481,4.3481,4.3481,4.3481,4.3078,4.2307,4.1886,4.1464,4.1218,4.106,4.106,4.106,4.106,4.106,4.106,4.106,4.106,4.106,4.106,4.106,4.106,4.106,4.106,4.106,4.106,4.106,4.106,4.106,4.106,4.106,4.106,4.106,4.1145,4.1229,4.1229,4.1145,4.1397,4.1481,4.1397,4.1481,4.1714,4.1882,4.2132,4.2299,4.2569,4.2716,4.2882,4.2965,4.338,4.3691,4.3691,4.3711,4.3691,4.3691,4.3691,4.3691,4.3691,4.3691,4.3691,4.3691,4.3691,4.3691,4.3691,4.3691,4.3691,4.3691,4.3691,4.3711,4.3691,4.3691,4.3691,4.3691,4.3691,4.3691,4.3691,4.3691,4.3711,4.3711,4.3628,4.3546,4.3546,4.3546,4.3546,4.3463,4.3628,4.3609,4.3628,4.3628,4.3691,4.3691,4.3691,4.3633,3.9768,3.9768,3.9768,3.9768,3.9768,3.9768,4.0141,4.0836,4.1197,4.1799,4.2614,4.3053,4.3341,4.3499,4.3481,4.3481,4.3481,4.3481,4.3481,4.3481,4.3481,4.3481,4.3481,4.3481,4.3481,4.3481,4.3481,4.3114,4.2491,4.2069,4.1666,4.1299,4.1134,4.106,4.106,4.106,4.106,4.106,4.106,4.106,4.106,4.106,4.106,4.106,4.106,4.106,4.106,4.106,4.106,4.106,4.106,4.106,4.106,4.106,4.106,4.106,4.1145,4.106,4.106,4.106,4.1145,4.106,4.1145,4.121,4.1462,4.163,4.1882,4.2132,4.2318,4.2402,4.2485,4.2965,4.3297,4.3463,4.3628,4.3691,4.3691,4.3691,4.3691,4.3691,4.3691,4.3691,4.3691,4.3691,4.3691,4.3691,4.3691,4.3691,4.3691,4.3711,4.3628,4.3546,4.3463,4.338,4.3214,4.3131,4.3463,4.3546,4.3214,4.3297,4.3463,4.338,4.338,4.3297,4.3297,4.3297,4.3297,4.338,4.3463,4.3546,4.3628,4.3691,4.3691,4.3691,4.3652,3.9768,3.9768,3.9768,3.9768,3.9768,3.9768,3.9768,3.998,4.0509,4.1063,4.1645,4.2263,4.2892,4.3357,4.3392,4.3481,4.3481,4.3481,4.3481,4.3481,4.3481,4.3481,4.3481,4.3481,4.3481,4.3481,4.3481,4.3261,4.2821,4.2417,4.2014,4.1647,4.1244,4.106,4.106,4.106,4.106,4.106,4.106,4.106,4.106,4.106,4.106,4.106,4.106,4.106,4.106,4.106,4.106,4.106,4.106,4.106,4.106,4.106,4.106,4.106,4.106,4.106,4.106,4.106,4.106,4.106,4.106,4.1145,4.1229,4.1462,4.1612,4.1714,4.2049,4.2318,4.2318,4.2402,4.2652,4.3068,4.3463,4.3628,4.3691,4.3691,4.3691,4.3691,4.3691,4.3691,4.3691,4.3691,4.3691,4.3691,4.3691,4.3691,4.3711,4.3628,4.3463,4.3234,4.3068,4.2965,4.2652,4.2485,4.2965,4.3297,4.2882,4.2735,4.2902,4.2985,4.2818,4.2818,4.2818,4.2818,4.2818,4.2882,4.3068,4.3151,4.338,4.3546,4.3546,4.3546,4.3691,3.9768,3.9768,3.9768,3.9768,3.9768,3.9768,3.9768,3.9818,4.0429,4.064,4.0915,4.1931,4.2457,4.264,4.3124,4.3481,4.3481,4.3481,4.3481,4.3481,4.3481,4.3481,4.3481,4.3481,4.3481,4.3481,4.3481,4.3279,4.2876,4.2472,4.2069,4.1684,4.128,4.1079,4.106,4.106,4.106,4.106,4.106,4.106,4.106,4.106,4.106,4.106,4.106,4.106,4.106,4.106,4.106,4.106,4.106,4.106,4.106,4.106,4.106,4.106,4.106,4.106,4.106,4.106,4.106,4.106,4.106,4.106,4.106,4.1229,4.1313,4.1294,4.1397,4.1481,4.1565,4.1798,4.2216,4.2985,4.3234,4.3463,4.3628,4.3691,4.3691,4.3691,4.3691,4.3691,4.3691,4.3691,4.3691,4.3691,4.3691,4.3691,4.3711,4.3463,4.3317,4.3068,4.2902,4.2569,4.2318,4.2068,4.2299,4.255,4.2402,4.2235,4.2402,4.2402,4.2318,4.2235,4.2235,4.2318,4.2318,4.2485,4.2569,4.2735,4.2965,4.3131,4.3317,4.338,4.3546,3.9768,3.9768,3.9768,3.9768,3.9768,3.9768,3.9768,3.9834,4.0206,4.0296,4.0403,4.1161,4.1596,4.1667,4.2497,4.2945,4.2945,4.3303,4.3481,4.3481,4.3481,4.3481,4.3481,4.3481,4.3481,4.3481,4.3481,4.3353,4.3096,4.2692,4.2289,4.1904,4.15,4.1207,4.1079,4.106,4.106,4.106,4.106,4.106,4.106,4.106,4.106,4.106,4.106,4.106,4.106,4.106,4.106,4.106,4.106,4.106,4.106,4.106,4.106,4.106,4.106,4.106,4.106,4.106,4.106,4.106,4.106,4.106,4.106,4.106,4.106,4.106,4.1145,4.106,4.1145,4.1294,4.1798,4.2466,4.2902,4.3214,4.3628,4.3691,4.3691,4.3691,4.3691,4.3691,4.3691,4.3691,4.3691,4.3691,4.3691,4.3691,4.3628,4.338,4.3151,4.2818,4.2383,4.2151,4.19,4.1733,4.163,4.1733,4.1816,4.19,4.2049,4.19,4.1733,4.1733,4.1733,4.1649,4.1733,4.1965,4.2132,4.2383,4.255,4.2818,4.3068,4.3234,4.338,3.9768,3.9768,3.9768,3.9768,3.9768,3.9768,3.9768,3.9768,3.9849,3.9933,4.0158,4.0276,4.0453,4.0738,4.1524,4.2029,4.2209,4.2855,4.3392,4.3481,4.3481,4.3481,4.3481,4.3481,4.3481,4.3481,4.3481,4.3481,4.3408,4.3004,4.2692,4.2307,4.1867,4.15,4.1207,4.1097,4.106,4.106,4.106,4.106,4.106,4.106,4.106,4.106,4.106,4.106,4.106,4.106,4.106,4.106,4.106,4.106,4.106,4.106,4.106,4.106,4.106,4.106,4.106,4.106,4.106,4.106,4.106,4.106,4.106,4.106,4.106,4.106,4.106,4.106,4.1145,4.1145,4.1378,4.1779,4.255,4.3131,4.3526,4.3546,4.3463,4.3546,4.3628,4.3628,4.3546,4.3546,4.3546,4.3546,4.3463,4.3463,4.338,4.3048,4.2818,4.2402,4.1965,4.1714,4.1481,4.1481,4.1397,4.1397,4.1481,4.1565,4.163,4.1481,4.1313,4.1313,4.1313,4.1229,4.1229,4.1546,4.1714,4.1798,4.2049,4.2466,4.2716,4.2882,4.3068,3.9768,3.9768,3.9768,3.9768,3.9768,3.9768,3.9768,3.9768,3.9768,3.9691,3.9658,4.0031,4.0044,3.9983,4.0595,4.1308,4.1849,4.2299,4.2855,4.3392,4.3481,4.3481,4.3481,4.3481,4.3481,4.3481,4.3481,4.3481,4.3463,4.3096,4.2821,4.2692,4.2069,4.1666,4.15,4.1225,4.1079,4.106,4.106,4.106,4.106,4.106,4.106,4.106,4.106,4.106,4.106,4.106,4.106,4.106,4.106,4.106,4.106,4.106,4.106,4.106,4.106,4.106,4.106,4.106,4.106,4.106,4.106,4.106,4.106,4.106,4.106,4.106,4.106,4.106,4.106,4.106,4.1294,4.1695,4.2216,4.2652,4.2735,4.2735,4.2735,4.2735,4.2799,4.2818,4.2818,4.2818,4.2799,4.2818,4.2818,4.2818,4.2799,4.255,4.2132,4.1882,4.1546,4.1313,4.1145,4.1145,4.1145,4.1145,4.1229,4.1229,4.1313,4.1229,4.1145,4.1145,4.1145,4.1145,4.1145,4.1229,4.1313,4.1294,4.163,4.2049,4.2132,4.2216,4.2569,3.9768,3.9768,3.9768,3.9768,3.9768,3.9768,3.9768,3.9768,3.9752,3.9561,3.9292,3.9417,3.9344,3.9096,3.9657,4.022,4.0856,4.1669,4.2299,4.2855,4.3303,4.3499,4.3481,4.3481,4.3481,4.3481,4.3481,4.3481,4.3463,4.3224,4.3059,4.2821,4.2417,4.2032,4.1666,4.1482,4.1225,4.1181,4.106,4.106,4.106,4.106,4.106,4.106,4.106,4.106,4.106,4.106,4.106,4.106,4.106,4.106,4.106,4.106,4.106,4.106,4.106,4.106,4.106,4.106,4.106,4.106,4.106,4.106,4.106,4.106,4.106,4.106,4.106,4.106,4.106,4.106,4.1229,4.1378,4.1733,4.1984,4.2318,4.2402,4.2402,4.2402,4.2402,4.2402,4.2402,4.2402,4.2402,4.2402,4.2485,4.2485,4.2402,4.1965,4.1612,4.1546,4.1378,4.1229,4.1145,4.1145,4.106,4.106,4.106,4.106,4.106,4.106,4.106,4.106,4.106,4.106,4.106,4.106,4.1145,4.1229,4.1378,4.1546,4.1714,4.1798,4.2049,3.9768,3.9768,3.9768,3.9768,3.9768,3.9768,3.9768,3.9768,3.9768,3.9593,3.9275,3.8926,3.8797,3.832,3.8574,3.8791,3.8942,4.0095,4.12,4.1832,4.2568,4.3034,4.3481,4.3481,4.3481,4.3481,4.3481,4.3481,4.3481,4.3463,4.3279,4.3023,4.2876,4.2491,4.2014,4.1757,4.1482,4.1225,4.1097,4.106,4.106,4.106,4.106,4.106,4.106,4.106,4.106,4.106,4.106,4.106,4.106,4.106,4.106,4.106,4.106,4.106,4.106,4.106,4.106,4.106,4.106,4.106,4.106,4.106,4.106,4.106,4.106,4.106,4.106,4.106,4.106,4.106,4.1145,4.1145,4.1145,4.1481,4.2068,4.2235,4.2235,4.2235,4.2235,4.2235,4.2235,4.2235,4.2235,4.19,4.1984,4.1984,4.19,4.163,4.1546,4.1462,4.1313,4.1145,4.1145,4.1145,4.106,4.106,4.106,4.106,4.106,4.106,4.106,4.106,4.106,4.106,4.106,4.106,4.106,4.1145,4.1229,4.1378,4.1546,4.1546,4.1714,3.9768,3.9768,3.9768,3.9768,3.9768,3.9768,3.9768,3.9752,3.9768,3.9704,3.9577,3.926,3.8799,3.845,3.7226,3.6854,3.7177,3.7423,3.8051,4.0804,4.0985,4.2102,4.3034,4.3303,4.341,4.3481,4.3481,4.3481,4.3481,4.3481,4.3463,4.3334,4.3041,4.2784,4.2564,4.2014,4.1666,4.15,4.1244,4.1097,4.106,4.106,4.106,4.106,4.106,4.106,4.106,4.106,4.106,4.106,4.106,4.106,4.106,4.106,4.106,4.106,4.106,4.106,4.106,4.106,4.106,4.106,4.106,4.106,4.106,4.106,4.106,4.106,4.106,4.106,4.106,4.106,4.106,4.106,4.1145,4.1145,4.1397,4.1397,4.1481,4.1481,4.1481,4.1397,4.1397,4.1481,4.1481,4.1397,4.1397,4.1397,4.1397,4.1397,4.1397,4.1397,4.1313,4.106,4.106,4.106,4.106,4.106,4.106,4.106,4.106,4.106,4.106,4.106,4.106,4.106,4.106,4.106,4.106,4.106,4.106,4.1229,4.1294,4.1294,4.1294,3.9362,3.8662,3.8662,3.8271,3.7765,3.8369,3.8662,3.8874,3.9557,3.9768,3.9494,3.8679,3.7951,3.7405,3.5741,3.4929,3.5163,3.5461,3.6575,3.8494,3.9043,4.026,4.1454,4.1454,4.1454,4.3016,4.3481,4.3481,4.3481,4.3392,4.3481,4.3481,4.3261,4.3041,4.2876,4.2436,4.2069,4.1702,4.1482,4.128,4.1097,4.106,4.106,4.106,4.106,4.106,4.106,4.106,4.106,4.106,4.106,4.106,4.106,4.106,4.106,4.106,4.106,4.106,4.106,4.106,4.106,4.106,4.106,4.106,4.106,4.106,4.106,4.106,4.106,4.106,4.106,4.106,4.106,4.106,4.106,4.106,4.106,4.106,4.106,4.106,4.1145,4.1145,4.1145,4.106,4.1145,4.1229,4.1229,4.1229,4.1229,4.1229,4.1145,4.1145,4.1145,4.106,4.106,4.106,4.106,4.106,4.106,4.106,4.106,4.106,4.106,4.106,4.106,4.106,4.106,4.106,4.106,4.106,4.106,4.106,4.1145,4.1229,4.1229,3.8271,3.7061,3.7061,3.6272,3.5366,3.6469,3.7076,3.7258,3.8467,3.8662,3.8827,3.7237,3.6415,3.5772,3.4123,3.3118,3.2922,3.3591,3.4701,3.6282,3.6837,3.8219,3.9333,3.915,3.9424,4.2389,4.2192,4.2192,4.2281,4.2945,4.2658,4.2927,4.3481,4.3298,4.3023,4.2839,4.2546,4.2051,4.1757,4.1519,4.1225,4.1134,4.106,4.106,4.106,4.106,4.106,4.106,4.106,4.106,4.106,4.106,4.106,4.106,4.106,4.106,4.106,4.106,4.106,4.106,4.106,4.106,4.106,4.106,4.106,4.106,4.106,4.106,4.106,4.106,4.106,4.106,4.106,4.106,4.106,4.106,4.106,4.106,4.106,4.106,4.106,4.106,4.106,4.106,4.106,4.106,4.106,4.106,4.106,4.1079,4.1097,4.106,4.106,4.106,4.106,4.1115,4.1115,4.1152,4.1134,4.1134,4.1115,4.106,4.106,4.106,4.106,4.106,4.106,4.106,4.106,4.106,4.106,4.106,4.106,4.106,4.106,3.5678,3.5366,3.538,3.5167,3.5068,3.5281,3.538,3.538,3.5861,3.5876,3.5861,3.5394,3.5097,3.4423,3.2865,3.1386,3.0599,3.0972,3.2097,3.3966,3.4622,3.5818,3.7483,3.7207,3.7759,3.831,3.8602,3.8602,3.9333,4.0061,4.0894,4.1363,4.2389,4.3033,4.3013,4.3078,4.2381,4.2123,4.1723,4.1396,4.1299,4.1196,4.1097,4.1079,4.106,4.106,4.106,4.106,4.106,4.106,4.106,4.106,4.106,4.106,4.106,4.106,4.106,4.106,4.106,4.106,4.106,4.106,4.106,4.106,4.106,4.0976,4.062,4.0705,4.0873,4.106,4.106,4.0976,4.106,4.106,4.106,4.106,4.106,4.106,4.106,4.106,4.106,4.106,4.106,4.106,4.106,4.106,4.106,4.106,4.106,4.1097,4.1134,4.1097,4.106,4.106,4.106,4.1134,4.117,4.1262,4.128,4.128,4.1244,4.1115,4.1163,4.128,4.1207,4.106,4.106,4.106,4.106,4.106,4.106,4.106,4.106,4.106,4.106,3.4471,3.3773,3.3773,3.3287,3.2699,3.3487,3.3787,3.3873,3.4571,3.4969,3.477,3.4159,3.3625,3.2847,3.1377,2.9981,2.9307,2.928,3.0223,3.1542,3.2205,3.3511,3.5368,3.4995,3.5275,3.5461,3.5182,3.5833,3.7483,3.8494,3.8968,3.915,4.0078,4.0912,4.1419,4.0631,4.0765,4.0912,4.0949,4.063,4.0627,4.0957,4.1317,4.1115,4.1079,4.106,4.106,4.106,4.106,4.106,4.106,4.106,4.106,4.106,4.106,4.106,4.106,4.106,4.106,4.106,4.106,4.106,4.106,4.106,4.0807,4.0282,3.9313,3.8887,4.0433,4.018,3.8357,3.9925,4.0451,4.0028,4.0367,4.0892,4.0994,4.0994,4.0844,4.0778,4.0862,4.0862,4.106,4.106,4.106,4.106,4.1079,4.1115,4.1152,4.1262,4.139,4.1427,4.1445,4.1519,4.1519,4.15,4.1482,4.1519,4.1537,4.1537,4.1592,4.1555,4.1629,4.1794,4.1592,4.1244,4.1079,4.1079,4.1079,4.106,4.106,4.106,4.106,4.106,4.106,3.3287,3.2096,3.2096,3.1403,3.0506,3.1592,3.2096,3.2384,3.3387,3.3887,3.3887,3.2786,3.1967,3.1412,3.0305,2.9139,2.8705,2.9149,2.9375,2.9758,3.0427,3.165,3.2489,3.2502,3.2597,3.3699,3.3055,3.3337,3.5461,3.6653,3.693,3.7207,3.7299,3.8235,3.9316,3.8736,3.8646,3.8967,3.9306,3.921,3.9683,4.0453,4.1336,4.1056,4.0832,4.0645,4.1079,4.106,4.106,4.106,4.106,4.106,4.106,4.106,4.0892,4.062,4.0892,4.106,4.106,4.106,4.106,4.106,4.0705,4.0536,4.001,3.8716,3.7241,3.6448,3.7671,3.8785,3.688,3.8186,3.8802,3.8443,3.8887,3.9876,3.9625,3.9507,3.9423,3.9595,4.0122,4.0511,4.0645,4.128,4.1335,4.1427,4.1464,4.1592,4.1629,4.1721,4.1812,4.1867,4.1941,4.2087,4.2087,4.2032,4.1996,4.1959,4.1977,4.1977,4.2069,4.2142,4.2197,4.2056,4.1886,4.1555,4.1335,4.1097,4.1079,4.106,4.106,4.106,4.106,4.106,4.106,3.0607,3.0518,3.0506,3.0315,3.0214,3.0506,3.0518,3.0607,3.091,3.0708,3.1201,3.0708,3.0582,3.031,2.9797,2.9248,2.897,2.8813,2.9004,2.928,2.9663,3.0331,3.1189,3.1189,3.1474,3.2219,3.1948,3.1853,3.3149,3.4435,3.4902,3.5182,3.6282,3.7667,3.7775,3.7022,3.7652,3.7723,3.7499,3.7916,3.9028,3.9439,4.0192,4.0568,3.9995,3.9407,4.0323,4.0439,4.0506,4.062,4.0892,4.0976,4.106,4.106,4.0113,3.9671,4.0028,4.106,4.0723,4.0451,4.0451,4.001,3.9416,3.8802,3.7929,3.7139,3.5928,3.5652,3.6275,3.6047,3.528,3.596,3.6031,3.6183,3.6611,3.6987,3.6911,3.8056,3.7966,3.7891,3.8241,3.9391,4.009,4.0953,4.1629,4.1739,4.1849,4.1959,4.2069,4.2142,4.2326,4.2417,4.2454,4.2564,4.2637,4.2582,4.2527,4.2454,4.2454,4.2454,4.2546,4.2601,4.2243,4.2152,4.1933,4.1646,4.1048,4.0916,4.102,4.106,4.106,4.106,4.106,4.106,4.106,3.0214,3.0214,3.0214,3.0214,3.0214,3.0214,3.0214,3.0214,3.0214,3.0214,3.0214,3.0214,3.0129,2.9948,2.9562,2.926,2.9006,2.8753,2.8716,2.8992,2.928,2.9663,3.014,3.0617,3.1107,3.1297,3.1582,3.1772,3.2043,3.2408,3.296,3.3149,3.3887,3.4809,3.5647,3.4809,3.5089,3.5401,3.5852,3.6448,3.7556,3.8071,3.8191,3.8653,3.7915,3.7875,3.8146,3.8148,3.8013,3.7997,3.7912,3.7929,3.7929,3.7843,3.7397,3.7052,3.7414,3.7843,3.7826,3.7929,3.8186,3.7929,3.7155,3.6275,3.5494,3.5336,3.4216,3.244,3.436,3.4525,3.3738,3.4637,3.4864,3.4925,3.491,3.5478,3.5692,3.6095,3.6619,3.6463,3.6348,3.7296,3.8379,3.9286,3.9931,4.0385,4.0996,4.1782,4.2083,4.2472,4.2711,4.3004,4.3023,4.3059,4.3096,4.3096,4.3096,4.3041,4.3041,4.3041,4.3041,4.2916,4.2205,4.1938,4.1954,4.1439,4.082,4.0998,4.1305,4.1207,4.106,4.106,4.106,4.106,4.106,3.0214,3.0214,3.0214,3.0214,3.0214,3.0214,3.0214,3.0214,3.0214,3.0214,3.0214,3.0214,3.0093,2.9876,2.9646,2.9393,2.9115,2.8837,2.8693,2.8741,2.9004,2.9292,2.9663,3.0236,3.0617,3.0916,3.1297,3.1474,3.1677,3.1853,3.1948,3.1677,3.2232,3.2691,3.3149,3.296,3.2772,3.3779,3.4514,3.5296,3.6235,3.6372,3.6534,3.651,3.6173,3.5868,3.6016,3.6218,3.6147,3.5979,3.6002,3.6144,3.5944,3.6102,3.5565,3.5074,3.5137,3.4793,3.4922,3.505,3.5336,3.5423,3.4818,3.4265,3.2777,3.3471,3.3649,3.0826,3.2402,3.2427,3.1819,3.3215,3.3288,3.351,3.3764,3.4578,3.5106,3.4849,3.4606,3.4327,3.4279,3.4572,3.5727,3.7067,3.8038,3.8775,3.9944,4.1178,4.176,4.201,4.2633,4.2835,4.3209,4.3209,4.3334,4.3408,4.3463,4.3303,4.3303,4.2909,4.2335,4.1959,4.1351,4.1388,4.1228,4.0753,3.9771,4.0764,4.1574,4.128,4.106,4.106,4.106,4.106,4.106,3.0214,3.0214,3.0214,3.0214,3.0214,3.0214,3.0214,3.0214,3.0214,3.0214,3.0214,3.0214,3.0202,3.0093,2.9851,2.9598,2.9369,2.9103,2.8874,2.8705,2.8716,2.8908,2.928,2.9567,3.0045,3.0617,3.0998,3.1284,3.1569,3.1664,3.1677,3.1677,3.1677,3.1758,3.2043,3.2043,3.1758,3.2691,3.3511,3.4248,3.4642,3.4799,3.5222,3.5929,3.5182,3.4787,3.6168,3.5868,3.5533,3.5118,3.5087,3.4994,3.4679,3.472,3.4104,3.3339,3.322,3.2771,3.2323,3.359,3.5034,3.4994,3.4107,3.2621,3.1311,3.1026,3.078,3.0713,3.1714,3.146,3.0991,3.1137,3.1808,3.2103,3.2491,3.2625,3.2973,3.2645,3.2398,3.2083,3.2365,3.2976,3.3321,3.4733,3.6219,3.696,3.8309,3.9548,4.0173,4.058,4.1727,4.2335,4.298,4.3266,4.3463,4.3392,4.3303,4.2837,4.2658,4.1724,4.086,4.0441,4.0061,3.9117,3.8696,3.8784,3.9164,3.9983,4.0672,4.1026,4.106,4.106,4.106,4.106,4.106,3.0214,3.0214,3.0214,3.0214,3.0214,3.0214,3.0214,3.0214,3.0214,3.0214,3.0214,3.0214,3.0214,3.0141,2.9936,2.9743,2.9586,2.9188,2.8994,2.8837,2.8729,2.8741,2.9004,2.928,2.9663,3.0045,3.0522,3.0903,3.1189,3.1379,3.1677,3.1677,3.1677,3.1772,3.1677,3.1677,3.1677,3.1853,3.2408,3.2786,3.2772,3.2866,3.3093,3.3463,3.3341,3.272,3.3101,3.3151,3.3042,3.2947,3.2952,3.3017,3.3006,3.2887,3.2437,3.1819,3.1882,3.1405,3.0975,3.1931,3.2508,3.2508,3.1987,3.1432,3.0635,3.0755,3.0782,3.0782,3.0835,3.0902,3.1049,3.1062,3.1302,3.1356,3.1343,3.1356,3.1383,3.1423,3.1463,3.1799,3.184,3.207,3.2259,3.2461,3.388,3.5204,3.6591,3.7759,3.831,3.8968,3.988,4.0894,4.1454,4.2281,4.2479,4.2748,4.2927,4.2281,4.1634,4.0441,3.9242,3.8768,3.8219,3.7115,3.6437,3.6785,3.7556,3.8906,3.9739,4.04,4.0796,4.106,4.106,4.1024,4.1034,3.0214,3.0214,3.0214,3.0214,3.0214,3.0214,3.0214,3.0214,3.0214,3.0214,3.0214,3.0214,3.0214,3.0153,3.0033,2.9851,2.9719,2.9441,2.9188,2.8994,2.8837,2.8705,2.8741,2.8908,2.928,2.9484,2.9962,3.044,3.0713,3.1093,3.1189,3.1379,3.1474,3.1487,3.1677,3.1677,3.1677,3.1677,3.1677,3.1677,3.1758,3.1758,3.1853,3.1921,3.1921,3.1854,3.1866,3.1892,3.1663,3.138,3.1272,3.1047,3.0914,3.0795,3.0795,3.0822,3.0875,3.0915,3.0915,3.0835,3.0795,3.1175,3.1232,3.0995,3.0929,3.0982,3.1142,3.1116,3.1089,3.1129,3.1343,3.137,3.1396,3.1503,3.153,3.1557,3.157,3.1597,3.161,3.1758,3.1677,3.1677,3.1758,3.1948,3.2475,3.3548,3.3952,3.5275,3.6467,3.7022,3.7667,3.8677,3.9606,4.0441,4.1273,4.0912,4.0441,4.0169,3.9424,3.8494,3.7483,3.7022,3.6004,3.4622,3.4298,3.4818,3.5639,3.6612,3.82,3.9922,4.0444,4.106,4.0822,4.0749,4.074,3.0214,3.0214,3.0214,3.0214,3.0214,3.0214,3.0214,3.0214,3.0214,3.0214,3.0214,3.0214,3.0214,3.0202,3.0153,3.0033,2.9876,2.9743,2.9513,2.9175,2.8982,2.885,2.8717,2.8741,2.8908,2.928,2.9663,2.9949,3.0128,3.0319,3.0509,3.0903,3.1202,3.1284,3.1677,3.1677,3.1677,3.1677,3.1677,3.1677,3.1677,3.1677,3.1677,3.1677,3.1677,3.1623,3.1597,3.157,3.1436,3.1276,3.1223,3.1129,3.0969,3.0929,3.0915,3.0902,3.1102,3.1196,3.1196,3.0955,3.0915,3.0942,3.1142,3.1209,3.1276,3.141,3.1543,3.1436,3.1517,3.1557,3.1637,3.1637,3.1637,3.165,3.1664,3.1677,3.1677,3.1677,3.1677,3.1677,3.1677,3.1677,3.1677,3.1772,3.1772,3.1948,3.1853,3.2691,3.4356,3.4995,3.5539,3.6653,3.7667,3.8494,3.9059,3.8418,3.8051,3.7759,3.7299,3.6467,3.5539,3.4902,3.3699,3.2219,3.2461,3.3318,3.3686,3.4073,3.6555,3.8977,4.0408,4.0987,4.0712,4.051,4.0575,3.0214,3.0214,3.0214,3.0214,3.0214,3.0214,3.0214,3.0214,3.0214,3.0214,3.0214,3.0214,3.0214,3.0214,3.0214,3.0153,3.0057,2.9827,2.9598,2.9513,2.9212,2.9006,2.885,2.8717,2.8728,2.8908,2.9184,2.9375,2.9663,2.9841,3.0319,3.0808,3.1107,3.1474,3.1677,3.1677,3.1677,3.1677,3.1677,3.1677,3.1677,3.1677,3.1677,3.1677,3.1677,3.1677,3.1677,3.1677,3.1597,3.1503,3.1476,3.1423,3.133,3.1316,3.133,3.1343,3.1503,3.1517,3.1517,3.141,3.1396,3.1396,3.141,3.149,3.1543,3.1597,3.1664,3.1677,3.1677,3.1677,3.1664,3.1664,3.1664,3.1664,3.1677,3.1677,3.1677,3.1677,3.1677,3.1677,3.1677,3.1677,3.1677,3.1677,3.1677,3.1677,3.1677,3.1677,3.288,3.3055,3.3431,3.4715,3.5725,3.656,3.6837,3.6467,3.6019,3.5647,3.5275,3.4622,3.3793,3.3149,3.2691,3.1948,3.184,3.1894,3.2599,3.3615,3.6006,3.8146,3.9557,4.0753,4.0822,4.0602,4.0473,3.0214,3.0214,3.0214,3.0214,3.0214,3.0214,3.0214,3.0214,3.0214,3.0214,3.0214,3.0214,3.0214,3.0214,3.0214,3.0214,3.0189,3.0045,2.9827,2.9779,2.9477,2.9212,2.9006,2.8837,2.8729,2.8765,2.8908,2.9088,2.91,2.9375,2.9758,3.0331,3.1107,3.1284,3.1392,3.1582,3.1677,3.1677,3.1677,3.1677,3.1677,3.1677,3.1677,3.1677,3.1677,3.1677,3.1677,3.1677,3.1677,3.1677,3.1677,3.1677,3.1677,3.1677,3.1677,3.1677,3.1677,3.1664,3.165,3.1637,3.1597,3.1623,3.1677,3.1677,3.1677,3.1664,3.1664,3.1677,3.1677,3.1677,3.1677,3.1677,3.1677,3.1677,3.1677,3.1677,3.1677,3.1677,3.1677,3.1677,3.1677,3.1677,3.1677,3.1677,3.1677,3.1677,3.1677,3.1677,3.1677,3.1853,3.2043,3.3055,3.3793,3.4262,3.4715,3.4622,3.4168,3.3699,3.3417,3.3149,3.2786,3.2219,3.1948,3.1677,3.1758,3.1854,3.2038,3.3312,3.5203,3.7014,3.8546,3.9685,4.0625,4.0657,4.04,3.0214,3.0214,3.0214,3.0214,3.0214,3.0214,3.0214,3.0214,3.0214,3.0214,3.0214,3.0214,3.0214,3.0214,3.0214,3.0214,3.0214,3.0177,3.0045,2.9876,2.9707,2.9441,2.92,2.9019,2.8862,2.8717,2.8728,2.8812,2.862,2.9004,2.9292,2.9675,3.0522,3.0808,3.1107,3.1297,3.1582,3.1677,3.1677,3.1677,3.1677,3.1677,3.1677,3.1677,3.1677,3.1677,3.1677,3.1677,3.1677,3.1677,3.1677,3.1677,3.1677,3.1677,3.1677,3.1677,3.1677,3.1677,3.1677,3.1677,3.1677,3.1677,3.1677,3.1677,3.1677,3.1677,3.1677,3.1677,3.1677,3.1677,3.1677,3.1677,3.1677,3.1677,3.1677,3.1677,3.1677,3.1677,3.1677,3.1677,3.1677,3.1677,3.1677,3.1677,3.1677,3.1677,3.1677,3.1677,3.1677,3.1677,3.1853,3.1853,3.2313,3.2043,3.2408,3.3055,3.3055,3.2691,3.2408,3.2232,3.1772,3.1677,3.1677,3.1677,3.1677,3.1692,3.1702,3.2479,3.3963,3.5643,3.7016,3.909,4.0205,4.0372,4.0125,3.0214,3.0214,3.0214,3.0214,3.0214,3.0214,3.0214,3.0214,3.0214,3.0214,3.0214,3.0214,3.0214,3.0214,3.0214,3.0214,3.0214,3.0202,3.0177,3.0057,2.99,2.9731,2.9489,2.9224,2.9019,2.8862,2.8741,2.8644,2.8716,2.8908,2.9088,2.9567,3.0045,3.0427,3.0726,3.1011,3.1297,3.1569,3.1677,3.1677,3.1677,3.1677,3.1677,3.1677,3.1677,3.1677,3.1677,3.1677,3.1677,3.1677,3.1677,3.1677,3.1677,3.1677,3.1677,3.1677,3.1677,3.1677,3.1677,3.1677,3.1677,3.1677,3.1677,3.1677,3.1677,3.1677,3.1677,3.1677,3.1677,3.1677,3.1677,3.1677,3.1677,3.1677,3.1677,3.1677,3.1677,3.1677,3.1677,3.1677,3.1677,3.1677,3.1677,3.1677,3.1677,3.1677,3.1677,3.1677,3.1677,3.1677,3.1677,3.1677,3.1677,3.1677,3.1677,3.2232,3.2043,3.1772,3.1677,3.1677,3.1677,3.1677,3.1677,3.1677,3.1677,3.1356,3.1021,3.205,3.318,3.3813,3.513,3.7673,3.9627,3.9605,3.9695,3.0214,3.0214,3.0214,3.0214,3.0214,3.0214,3.0214,3.0214,3.0214,3.0214,3.0214,3.0214,3.0214,3.0214,3.0214,3.0214,3.0214,3.0214,3.0202,3.0153,3.0033,2.9888,2.9682,2.9477,2.9236,2.9043,2.8862,2.8741,2.8753,2.8812,2.91,2.9088,2.9567,2.9949,3.0236,3.0427,3.0903,3.1284,3.1569,3.1677,3.1677,3.1677,3.1677,3.1677,3.1677,3.1677,3.1677,3.1677,3.1677,3.1677,3.1677,3.1677,3.1677,3.1677,3.1677,3.1677,3.1677,3.1677,3.1677,3.1677,3.1677,3.1677,3.1677,3.1677,3.1677,3.1677,3.1677,3.1677,3.1677,3.1677,3.1677,3.1677,3.1677,3.1677,3.1677,3.1677,3.1677,3.1677,3.1677,3.1677,3.1677,3.1677,3.1677,3.1677,3.1677,3.1677,3.1677,3.1677,3.1677,3.1677,3.1677,3.1677,3.1677,3.1677,3.1677,3.1677,3.1677,3.1677,3.1677,3.1677,3.1677,3.1677,3.1677,3.1677,3.1677,3.1303,3.0902,3.1427,3.2344,3.2877,3.3483,3.5273,3.7332,3.847,3.861,3.0214,3.0214,3.0214,3.0214,3.0214,3.0214,3.0214,3.0214,3.0214,3.0214,3.0214,3.0214,3.0214,3.0214,3.0214,3.0214,3.0214,3.0214,3.0214,3.0214,3.0177,3.0057,2.9924,2.9767,2.9453,2.9175,2.897,2.8825,2.8669,2.8716,2.8716,2.862,2.91,2.9484,2.9663,2.9949,3.0331,3.0808,3.1284,3.1569,3.1677,3.1677,3.1677,3.1677,3.1677,3.1677,3.1677,3.1677,3.1677,3.1677,3.1677,3.1677,3.1677,3.1677,3.1677,3.1677,3.1677,3.1677,3.1677,3.1677,3.1677,3.1677,3.1677,3.1677,3.1677,3.1677,3.1677,3.1677,3.1677,3.1677,3.1677,3.1677,3.1677,3.1677,3.1677,3.1677,3.1677,3.1677,3.1677,3.1677,3.1677,3.1677,3.1677,3.1677,3.1677,3.1677,3.1677,3.1677,3.1677,3.1677,3.1677,3.1677,3.1677,3.1677,3.1677,3.1677,3.1677,3.1677,3.1677,3.1677,3.1677,3.1677,3.1677,3.1677,3.165,3.1316,3.1088,3.1403,3.1587,3.1808,3.244,3.3219,3.4672,3.6154,3.7606,3.0214,3.0214,3.0214,3.0214,3.0214,3.0214,3.0214,3.0214,3.0214,3.0214,3.0214,3.0214,3.0214,3.0214,3.0214,3.0214,3.0214,3.0214,3.0214,3.0214,3.0214,3.0177,3.0069,2.99,2.9634,2.9357,2.9115,2.8886,2.8681,2.862,2.862,2.862,2.8812,2.9004,2.928,2.9567,2.9854,3.0331,3.0713,3.1189,3.1474,3.1677,3.1677,3.1677,3.1677,3.1677,3.1677,3.1677,3.1677,3.1677,3.1677,3.1677,3.1677,3.1677,3.1677,3.1677,3.1677,3.1677,3.1677,3.1677,3.1677,3.1677,3.1677,3.1677,3.1677,3.1677,3.1677,3.1677,3.1677,3.1677,3.1677,3.1677,3.1677,3.1677,3.1677,3.1677,3.1677,3.1677,3.1677,3.1677,3.1677,3.1677,3.1677,3.1677,3.1677,3.1677,3.1677,3.1677,3.1677,3.1677,3.1677,3.1677,3.1677,3.1677,3.1677,3.1677,3.1677,3.1677,3.1677,3.1677,3.1677,3.1677,3.1677,3.1677,3.1597,3.1303,3.1049,3.0941,3.1076,3.1049,3.1048,3.1745,3.1997,3.3188,3.5262,3.0214,3.0214,3.0214,3.0214,3.0214,3.0214,3.0214,3.0214,3.0214,3.0214,3.0214,3.0214,3.0214,3.0214,3.0214,3.0214,3.0214,3.0214,3.0214,3.0214,3.0214,3.0214,3.0129,3.0033,2.9839,2.9574,2.9175,2.8898,2.8681,2.862,2.862,2.862,2.862,2.8716,2.91,2.91,2.928,2.9746,3.014,3.0522,3.1093,3.1379,3.1677,3.1677,3.1677,3.1677,3.1677,3.1677,3.1677,3.1677,3.1677,3.1677,3.1677,3.1677,3.1677,3.1677,3.1677,3.1677,3.1677,3.1677,3.1677,3.1677,3.1677,3.1677,3.1677,3.1677,3.1677,3.1677,3.1677,3.1677,3.1677,3.1677,3.1677,3.1677,3.1677,3.1677,3.1677,3.1677,3.1677,3.1677,3.1677,3.1677,3.1677,3.1677,3.1677,3.1677,3.1677,3.1677,3.1677,3.1677,3.1677,3.1677,3.1677,3.1677,3.1677,3.1677,3.1677,3.1677,3.1677,3.1677,3.1677,3.1677,3.1677,3.1677,3.1583,3.1343,3.1116,3.0889,3.0501,3.0393,3.0196,3.0169,3.0437,3.087,3.2749,3.0214,3.0214,3.0214,3.0214,3.0214,3.0214,3.0214,3.0214,3.0214,3.0214,3.0214,3.0214,3.0214,3.0214,3.0214,3.0214,3.0214,3.0214,3.0214,3.0214,3.0214,3.0214,3.0214,3.0177,2.9972,2.9658,2.9248,2.897,2.8729,2.8669,2.862,2.862,2.862,2.862,2.862,2.862,2.8908,2.9196,2.9471,2.9663,3.0331,3.0998,3.1379,3.1582,3.1664,3.1677,3.1677,3.1677,3.1677,3.1677,3.1677,3.1677,3.1677,3.1677,3.1677,3.1677,3.1677,3.1677,3.1677,3.1677,3.1677,3.1677,3.1677,3.1677,3.1677,3.1677,3.1677,3.1677,3.1677,3.1677,3.1677,3.1677,3.1677,3.1677,3.1677,3.1677,3.1677,3.1677,3.1677,3.1677,3.1677,3.1677,3.1677,3.1677,3.1677,3.1677,3.1677,3.1677,3.1677,3.1677,3.1677,3.1677,3.1677,3.1677,3.1677,3.1677,3.1677,3.1677,3.1677,3.1677,3.1677,3.1677,3.1677,3.1677,3.1543,3.1396,3.1142,3.0889,3.0461,3.0074,2.9953,2.9913,3.0003,3.0437,3.087,3.0214,3.0214,3.0214,3.0214,3.0214,3.0214,3.0214,3.0214,3.0214,3.0214,3.0214,3.0214,3.0214,3.0214,3.0214,3.0214,3.0214,3.0214,3.0214,3.0214,3.0214,3.0214,3.0214,3.0202,3.0033,2.9719,2.9344,2.9043,2.885,2.8717,2.862,2.862,2.862,2.862,2.862,2.862,2.8716,2.8908,2.9196,2.9375,2.9663,3.0331,3.0916,3.1202,3.1487,3.1582,3.1677,3.1677,3.1677,3.1677,3.1677,3.1677,3.1677,3.1677,3.1677,3.1677,3.1677,3.1677,3.1677,3.1677,3.1677,3.1677,3.1677,3.1677,3.1677,3.1677,3.1677,3.1677,3.1677,3.1677,3.1677,3.1677,3.1677,3.1677,3.1677,3.1677,3.1677,3.1677,3.1677,3.1677,3.1677,3.1677,3.1677,3.1677,3.1677,3.1677,3.1677,3.1677,3.1677,3.1677,3.1677,3.1677,3.1677,3.1677,3.1677,3.1677,3.1677,3.1677,3.1677,3.1677,3.1677,3.1677,3.1677,3.1677,3.1623,3.1503,3.1236,3.0915,3.0635,3.0274,3.0034,2.9927,2.9913,3.0003,3.0437]}]]